<?xml version="1.0" encoding="UTF-8" standalone="no" ?>
<gpx xmlns="http://www.topografix.com/GPX/1/1" xmlns:xsi="http://www.w3.org/2001/XMLSchema-instance" xsi:schemaLocation="http://www.topografix.com/GPX/1/1 http://www.topografix.com/GPX/1/1/gpx.xsd" version="1.1" creator="VisuGPX - https://www.visugpx.com">
  <metadata>
    <name>ORLEANS-BLOIS VIA CHAMBORD</name>
    <desc><![CDATA[Un bout de la Loire a vélo au départ d'Orleans]]></desc>
  </metadata>
  <trk>
    <name><![CDATA[ORLEANS-BLOIS-CHAMBORD]]></name>
    <trkseg>
      <trkpt lat="47.89344" lon="1.9231">
        <ele>96</ele>
        <time>2019-01-11T20:27:32Z</time>
      </trkpt>
      <trkpt lat="47.89334" lon="1.9231">
        <ele>96</ele>
        <time>2019-01-11T20:27:33Z</time>
      </trkpt>
      <trkpt lat="47.89324" lon="1.92305">
        <ele>96</ele>
        <time>2019-01-11T20:27:34Z</time>
      </trkpt>
      <trkpt lat="47.89323" lon="1.92287">
        <ele>96</ele>
        <time>2019-01-11T20:27:35Z</time>
      </trkpt>
      <trkpt lat="47.89328" lon="1.92255">
        <ele>97</ele>
        <time>2019-01-11T20:27:36Z</time>
      </trkpt>
      <trkpt lat="47.8933" lon="1.92247">
        <ele>97</ele>
        <time>2019-01-11T20:27:37Z</time>
      </trkpt>
      <trkpt lat="47.89336" lon="1.92247">
        <ele>97</ele>
        <time>2019-01-11T20:27:38Z</time>
      </trkpt>
      <trkpt lat="47.89339" lon="1.92231">
        <ele>98</ele>
        <time>2019-01-11T20:27:39Z</time>
      </trkpt>
      <trkpt lat="47.89344" lon="1.92216">
        <ele>98</ele>
        <time>2019-01-11T20:27:40Z</time>
      </trkpt>
      <trkpt lat="47.89354" lon="1.92211">
        <ele>98</ele>
        <time>2019-01-11T20:27:41Z</time>
      </trkpt>
      <trkpt lat="47.89359" lon="1.92204">
        <ele>99</ele>
        <time>2019-01-11T20:27:42Z</time>
      </trkpt>
      <trkpt lat="47.89364" lon="1.92202">
        <ele>99</ele>
        <time>2019-01-11T20:27:43Z</time>
      </trkpt>
      <trkpt lat="47.89444" lon="1.92175">
        <ele>97</ele>
        <time>2019-01-11T20:27:44Z</time>
      </trkpt>
      <trkpt lat="47.89468" lon="1.92168">
        <ele>94</ele>
        <time>2019-01-11T20:27:45Z</time>
      </trkpt>
      <trkpt lat="47.89493" lon="1.9216">
        <ele>91</ele>
        <time>2019-01-11T20:27:46Z</time>
      </trkpt>
      <trkpt lat="47.89524" lon="1.92151">
        <ele>90</ele>
        <time>2019-01-11T20:27:47Z</time>
      </trkpt>
      <trkpt lat="47.89595" lon="1.92129">
        <ele>90</ele>
        <time>2019-01-11T20:27:48Z</time>
      </trkpt>
      <trkpt lat="47.89664" lon="1.92107">
        <ele>90</ele>
        <time>2019-01-11T20:27:49Z</time>
      </trkpt>
      <trkpt lat="47.89822" lon="1.92059">
        <ele>92</ele>
        <time>2019-01-11T20:27:50Z</time>
      </trkpt>
      <trkpt lat="47.89858" lon="1.92047">
        <ele>94</ele>
        <time>2019-01-11T20:27:51Z</time>
      </trkpt>
      <trkpt lat="47.8988" lon="1.9204">
        <ele>96</ele>
        <time>2019-01-11T20:27:52Z</time>
      </trkpt>
      <trkpt lat="47.89875" lon="1.92009">
        <ele>96</ele>
        <time>2019-01-11T20:27:53Z</time>
      </trkpt>
      <trkpt lat="47.89868" lon="1.91977">
        <ele>97</ele>
        <time>2019-01-11T20:27:54Z</time>
      </trkpt>
      <trkpt lat="47.89815" lon="1.9167">
        <ele>98</ele>
        <time>2019-01-11T20:27:55Z</time>
      </trkpt>
      <trkpt lat="47.89813" lon="1.91654">
        <ele>98</ele>
        <time>2019-01-11T20:27:56Z</time>
      </trkpt>
      <trkpt lat="47.89811" lon="1.91632">
        <ele>97</ele>
        <time>2019-01-11T20:27:57Z</time>
      </trkpt>
      <trkpt lat="47.8981" lon="1.91604">
        <ele>97</ele>
        <time>2019-01-11T20:27:58Z</time>
      </trkpt>
      <trkpt lat="47.89798" lon="1.91319">
        <ele>95</ele>
        <time>2019-01-11T20:27:59Z</time>
      </trkpt>
      <trkpt lat="47.89786" lon="1.90926">
        <ele>93</ele>
        <time>2019-01-11T20:28:00Z</time>
      </trkpt>
      <trkpt lat="47.89784" lon="1.90834">
        <ele>97</ele>
        <time>2019-01-11T20:28:01Z</time>
      </trkpt>
      <trkpt lat="47.89782" lon="1.90681">
        <ele>95</ele>
        <time>2019-01-11T20:28:02Z</time>
      </trkpt>
      <trkpt lat="47.89783" lon="1.90647">
        <ele>96</ele>
        <time>2019-01-11T20:28:03Z</time>
      </trkpt>
      <trkpt lat="47.89795" lon="1.90493">
        <ele>98</ele>
        <time>2019-01-11T20:28:04Z</time>
      </trkpt>
      <trkpt lat="47.89801" lon="1.90444">
        <ele>99</ele>
        <time>2019-01-11T20:28:05Z</time>
      </trkpt>
      <trkpt lat="47.89796" lon="1.90437">
        <ele>98</ele>
        <time>2019-01-11T20:28:06Z</time>
      </trkpt>
      <trkpt lat="47.89794" lon="1.90411">
        <ele>98</ele>
        <time>2019-01-11T20:28:07Z</time>
      </trkpt>
      <trkpt lat="47.89797" lon="1.90399">
        <ele>98</ele>
        <time>2019-01-11T20:28:08Z</time>
      </trkpt>
      <trkpt lat="47.89801" lon="1.90359">
        <ele>97</ele>
        <time>2019-01-11T20:28:09Z</time>
      </trkpt>
      <trkpt lat="47.89807" lon="1.90285">
        <ele>96</ele>
        <time>2019-01-11T20:28:10Z</time>
      </trkpt>
      <trkpt lat="47.8981" lon="1.90247">
        <ele>96</ele>
        <time>2019-01-11T20:28:11Z</time>
      </trkpt>
      <trkpt lat="47.89809" lon="1.90231">
        <ele>96</ele>
        <time>2019-01-11T20:28:12Z</time>
      </trkpt>
      <trkpt lat="47.89804" lon="1.90183">
        <ele>97</ele>
        <time>2019-01-11T20:28:13Z</time>
      </trkpt>
      <trkpt lat="47.89798" lon="1.90067">
        <ele>97</ele>
        <time>2019-01-11T20:28:14Z</time>
      </trkpt>
      <trkpt lat="47.8979" lon="1.89948">
        <ele>94</ele>
        <time>2019-01-11T20:28:15Z</time>
      </trkpt>
      <trkpt lat="47.89781" lon="1.89804">
        <ele>93</ele>
        <time>2019-01-11T20:28:16Z</time>
      </trkpt>
      <trkpt lat="47.89781" lon="1.89785">
        <ele>93</ele>
        <time>2019-01-11T20:28:17Z</time>
      </trkpt>
      <trkpt lat="47.8978" lon="1.89662">
        <ele>93</ele>
        <time>2019-01-11T20:28:18Z</time>
      </trkpt>
      <trkpt lat="47.8978" lon="1.89645">
        <ele>93</ele>
        <time>2019-01-11T20:28:19Z</time>
      </trkpt>
      <trkpt lat="47.89772" lon="1.89604">
        <ele>92</ele>
        <time>2019-01-11T20:28:20Z</time>
      </trkpt>
      <trkpt lat="47.89766" lon="1.89578">
        <ele>92</ele>
        <time>2019-01-11T20:28:21Z</time>
      </trkpt>
      <trkpt lat="47.89763" lon="1.89563">
        <ele>91</ele>
        <time>2019-01-11T20:28:22Z</time>
      </trkpt>
      <trkpt lat="47.89761" lon="1.89542">
        <ele>91</ele>
        <time>2019-01-11T20:28:23Z</time>
      </trkpt>
      <trkpt lat="47.89763" lon="1.89523">
        <ele>91</ele>
        <time>2019-01-11T20:28:24Z</time>
      </trkpt>
      <trkpt lat="47.89764" lon="1.89509">
        <ele>92</ele>
        <time>2019-01-11T20:28:25Z</time>
      </trkpt>
      <trkpt lat="47.89772" lon="1.89465">
        <ele>93</ele>
        <time>2019-01-11T20:28:26Z</time>
      </trkpt>
      <trkpt lat="47.89781" lon="1.89396">
        <ele>94</ele>
        <time>2019-01-11T20:28:27Z</time>
      </trkpt>
      <trkpt lat="47.89782" lon="1.89362">
        <ele>94</ele>
        <time>2019-01-11T20:28:28Z</time>
      </trkpt>
      <trkpt lat="47.89782" lon="1.8897">
        <ele>94</ele>
        <time>2019-01-11T20:28:29Z</time>
      </trkpt>
      <trkpt lat="47.89784" lon="1.88238">
        <ele>96</ele>
        <time>2019-01-11T20:28:30Z</time>
      </trkpt>
      <trkpt lat="47.89783" lon="1.87995">
        <ele>99</ele>
        <time>2019-01-11T20:28:31Z</time>
      </trkpt>
      <trkpt lat="47.89785" lon="1.87752">
        <ele>103</ele>
        <time>2019-01-11T20:28:32Z</time>
      </trkpt>
      <trkpt lat="47.89786" lon="1.87713">
        <ele>104</ele>
        <time>2019-01-11T20:28:33Z</time>
      </trkpt>
      <trkpt lat="47.89787" lon="1.87686">
        <ele>104</ele>
        <time>2019-01-11T20:28:34Z</time>
      </trkpt>
      <trkpt lat="47.89786" lon="1.87669">
        <ele>104</ele>
        <time>2019-01-11T20:28:35Z</time>
      </trkpt>
      <trkpt lat="47.89781" lon="1.87663">
        <ele>104</ele>
        <time>2019-01-11T20:28:36Z</time>
      </trkpt>
      <trkpt lat="47.89783" lon="1.87648">
        <ele>104</ele>
        <time>2019-01-11T20:28:37Z</time>
      </trkpt>
      <trkpt lat="47.89782" lon="1.87637">
        <ele>104</ele>
        <time>2019-01-11T20:28:38Z</time>
      </trkpt>
      <trkpt lat="47.89774" lon="1.87637">
        <ele>103</ele>
        <time>2019-01-11T20:28:39Z</time>
      </trkpt>
      <trkpt lat="47.89752" lon="1.87636">
        <ele>102</ele>
        <time>2019-01-11T20:28:40Z</time>
      </trkpt>
      <trkpt lat="47.89736" lon="1.87635">
        <ele>100</ele>
        <time>2019-01-11T20:28:41Z</time>
      </trkpt>
      <trkpt lat="47.89717" lon="1.87632">
        <ele>97</ele>
        <time>2019-01-11T20:28:42Z</time>
      </trkpt>
      <trkpt lat="47.89687" lon="1.87629">
        <ele>93</ele>
        <time>2019-01-11T20:28:43Z</time>
      </trkpt>
      <trkpt lat="47.89635" lon="1.87625">
        <ele>90</ele>
        <time>2019-01-11T20:28:44Z</time>
      </trkpt>
      <trkpt lat="47.8954" lon="1.8762">
        <ele>90</ele>
        <time>2019-01-11T20:28:45Z</time>
      </trkpt>
      <trkpt lat="47.89507" lon="1.87617">
        <ele>90</ele>
        <time>2019-01-11T20:28:46Z</time>
      </trkpt>
      <trkpt lat="47.89455" lon="1.87614">
        <ele>92</ele>
        <time>2019-01-11T20:28:47Z</time>
      </trkpt>
      <trkpt lat="47.89403" lon="1.87613">
        <ele>93</ele>
        <time>2019-01-11T20:28:48Z</time>
      </trkpt>
      <trkpt lat="47.89382" lon="1.87611">
        <ele>93</ele>
        <time>2019-01-11T20:28:49Z</time>
      </trkpt>
      <trkpt lat="47.8935" lon="1.87609">
        <ele>93</ele>
        <time>2019-01-11T20:28:50Z</time>
      </trkpt>
      <trkpt lat="47.8934" lon="1.87608">
        <ele>93</ele>
        <time>2019-01-11T20:28:51Z</time>
      </trkpt>
      <trkpt lat="47.89332" lon="1.87604">
        <ele>93</ele>
        <time>2019-01-11T20:28:52Z</time>
      </trkpt>
      <trkpt lat="47.89274" lon="1.87549">
        <ele>93</ele>
        <time>2019-01-11T20:28:53Z</time>
      </trkpt>
      <trkpt lat="47.89264" lon="1.8754">
        <ele>93</ele>
        <time>2019-01-11T20:28:54Z</time>
      </trkpt>
      <trkpt lat="47.89262" lon="1.87521">
        <ele>92</ele>
        <time>2019-01-11T20:28:55Z</time>
      </trkpt>
      <trkpt lat="47.89262" lon="1.87504">
        <ele>92</ele>
        <time>2019-01-11T20:28:56Z</time>
      </trkpt>
      <trkpt lat="47.89262" lon="1.87482">
        <ele>92</ele>
        <time>2019-01-11T20:28:57Z</time>
      </trkpt>
      <trkpt lat="47.89258" lon="1.87475">
        <ele>92</ele>
        <time>2019-01-11T20:28:58Z</time>
      </trkpt>
      <trkpt lat="47.89243" lon="1.8744">
        <ele>91</ele>
        <time>2019-01-11T20:28:59Z</time>
      </trkpt>
      <trkpt lat="47.89228" lon="1.87407">
        <ele>92</ele>
        <time>2019-01-11T20:29:00Z</time>
      </trkpt>
      <trkpt lat="47.89217" lon="1.87384">
        <ele>92</ele>
        <time>2019-01-11T20:29:01Z</time>
      </trkpt>
      <trkpt lat="47.89194" lon="1.87342">
        <ele>93</ele>
        <time>2019-01-11T20:29:02Z</time>
      </trkpt>
      <trkpt lat="47.89173" lon="1.87302">
        <ele>93</ele>
        <time>2019-01-11T20:29:03Z</time>
      </trkpt>
      <trkpt lat="47.89161" lon="1.87272">
        <ele>93</ele>
        <time>2019-01-11T20:29:04Z</time>
      </trkpt>
      <trkpt lat="47.89147" lon="1.87226">
        <ele>93</ele>
        <time>2019-01-11T20:29:05Z</time>
      </trkpt>
      <trkpt lat="47.89126" lon="1.87145">
        <ele>91</ele>
        <time>2019-01-11T20:29:06Z</time>
      </trkpt>
      <trkpt lat="47.89111" lon="1.87082">
        <ele>89</ele>
        <time>2019-01-11T20:29:07Z</time>
      </trkpt>
      <trkpt lat="47.8909" lon="1.86973">
        <ele>90</ele>
        <time>2019-01-11T20:29:08Z</time>
      </trkpt>
      <trkpt lat="47.89086" lon="1.86958">
        <ele>90</ele>
        <time>2019-01-11T20:29:09Z</time>
      </trkpt>
      <trkpt lat="47.89082" lon="1.86951">
        <ele>91</ele>
        <time>2019-01-11T20:29:10Z</time>
      </trkpt>
      <trkpt lat="47.89057" lon="1.86909">
        <ele>91</ele>
        <time>2019-01-11T20:29:11Z</time>
      </trkpt>
      <trkpt lat="47.89052" lon="1.86897">
        <ele>91</ele>
        <time>2019-01-11T20:29:12Z</time>
      </trkpt>
      <trkpt lat="47.89045" lon="1.86872">
        <ele>91</ele>
        <time>2019-01-11T20:29:13Z</time>
      </trkpt>
      <trkpt lat="47.89032" lon="1.86808">
        <ele>91</ele>
        <time>2019-01-11T20:29:14Z</time>
      </trkpt>
      <trkpt lat="47.89006" lon="1.86708">
        <ele>92</ele>
        <time>2019-01-11T20:29:15Z</time>
      </trkpt>
      <trkpt lat="47.88992" lon="1.86652">
        <ele>92</ele>
        <time>2019-01-11T20:29:16Z</time>
      </trkpt>
      <trkpt lat="47.8897" lon="1.86575">
        <ele>91</ele>
        <time>2019-01-11T20:29:17Z</time>
      </trkpt>
      <trkpt lat="47.88966" lon="1.86561">
        <ele>91</ele>
        <time>2019-01-11T20:29:18Z</time>
      </trkpt>
      <trkpt lat="47.88931" lon="1.86427">
        <ele>90</ele>
        <time>2019-01-11T20:29:19Z</time>
      </trkpt>
      <trkpt lat="47.88914" lon="1.86361">
        <ele>91</ele>
        <time>2019-01-11T20:29:20Z</time>
      </trkpt>
      <trkpt lat="47.88911" lon="1.86353">
        <ele>91</ele>
        <time>2019-01-11T20:29:21Z</time>
      </trkpt>
      <trkpt lat="47.88908" lon="1.86347">
        <ele>92</ele>
        <time>2019-01-11T20:29:22Z</time>
      </trkpt>
      <trkpt lat="47.88898" lon="1.86336">
        <ele>92</ele>
        <time>2019-01-11T20:29:23Z</time>
      </trkpt>
      <trkpt lat="47.88884" lon="1.86321">
        <ele>92</ele>
        <time>2019-01-11T20:29:24Z</time>
      </trkpt>
      <trkpt lat="47.88871" lon="1.86311">
        <ele>92</ele>
        <time>2019-01-11T20:29:25Z</time>
      </trkpt>
      <trkpt lat="47.88865" lon="1.86305">
        <ele>92</ele>
        <time>2019-01-11T20:29:26Z</time>
      </trkpt>
      <trkpt lat="47.88862" lon="1.86296">
        <ele>91</ele>
        <time>2019-01-11T20:29:27Z</time>
      </trkpt>
      <trkpt lat="47.88867" lon="1.86293">
        <ele>92</ele>
        <time>2019-01-11T20:29:28Z</time>
      </trkpt>
      <trkpt lat="47.8887" lon="1.86282">
        <ele>92</ele>
        <time>2019-01-11T20:29:29Z</time>
      </trkpt>
      <trkpt lat="47.88868" lon="1.86272">
        <ele>92</ele>
        <time>2019-01-11T20:29:30Z</time>
      </trkpt>
      <trkpt lat="47.88863" lon="1.86267">
        <ele>92</ele>
        <time>2019-01-11T20:29:31Z</time>
      </trkpt>
      <trkpt lat="47.88863" lon="1.86259">
        <ele>92</ele>
        <time>2019-01-11T20:29:32Z</time>
      </trkpt>
      <trkpt lat="47.88863" lon="1.86226">
        <ele>91</ele>
        <time>2019-01-11T20:29:33Z</time>
      </trkpt>
      <trkpt lat="47.88867" lon="1.862">
        <ele>91</ele>
        <time>2019-01-11T20:29:34Z</time>
      </trkpt>
      <trkpt lat="47.88868" lon="1.86185">
        <ele>91</ele>
        <time>2019-01-11T20:29:35Z</time>
      </trkpt>
      <trkpt lat="47.88868" lon="1.86175">
        <ele>91</ele>
        <time>2019-01-11T20:29:36Z</time>
      </trkpt>
      <trkpt lat="47.88864" lon="1.86142">
        <ele>90</ele>
        <time>2019-01-11T20:29:37Z</time>
      </trkpt>
      <trkpt lat="47.88861" lon="1.8612">
        <ele>91</ele>
        <time>2019-01-11T20:29:38Z</time>
      </trkpt>
      <trkpt lat="47.88858" lon="1.86103">
        <ele>91</ele>
        <time>2019-01-11T20:29:39Z</time>
      </trkpt>
      <trkpt lat="47.88852" lon="1.86076">
        <ele>91</ele>
        <time>2019-01-11T20:29:40Z</time>
      </trkpt>
      <trkpt lat="47.88843" lon="1.8605">
        <ele>91</ele>
        <time>2019-01-11T20:29:41Z</time>
      </trkpt>
      <trkpt lat="47.88823" lon="1.85995">
        <ele>92</ele>
        <time>2019-01-11T20:29:42Z</time>
      </trkpt>
      <trkpt lat="47.88813" lon="1.85969">
        <ele>92</ele>
        <time>2019-01-11T20:29:43Z</time>
      </trkpt>
      <trkpt lat="47.88787" lon="1.85903">
        <ele>92</ele>
        <time>2019-01-11T20:29:44Z</time>
      </trkpt>
      <trkpt lat="47.88775" lon="1.85876">
        <ele>92</ele>
        <time>2019-01-11T20:29:45Z</time>
      </trkpt>
      <trkpt lat="47.88763" lon="1.85844">
        <ele>92</ele>
        <time>2019-01-11T20:29:46Z</time>
      </trkpt>
      <trkpt lat="47.88739" lon="1.85781">
        <ele>93</ele>
        <time>2019-01-11T20:29:47Z</time>
      </trkpt>
      <trkpt lat="47.88731" lon="1.85757">
        <ele>93</ele>
        <time>2019-01-11T20:29:48Z</time>
      </trkpt>
      <trkpt lat="47.88725" lon="1.85733">
        <ele>93</ele>
        <time>2019-01-11T20:29:49Z</time>
      </trkpt>
      <trkpt lat="47.88721" lon="1.85714">
        <ele>93</ele>
        <time>2019-01-11T20:29:50Z</time>
      </trkpt>
      <trkpt lat="47.88717" lon="1.85686">
        <ele>93</ele>
        <time>2019-01-11T20:29:51Z</time>
      </trkpt>
      <trkpt lat="47.88714" lon="1.85654">
        <ele>92</ele>
        <time>2019-01-11T20:29:52Z</time>
      </trkpt>
      <trkpt lat="47.88714" lon="1.85638">
        <ele>92</ele>
        <time>2019-01-11T20:29:53Z</time>
      </trkpt>
      <trkpt lat="47.88715" lon="1.85617">
        <ele>92</ele>
        <time>2019-01-11T20:29:54Z</time>
      </trkpt>
      <trkpt lat="47.88716" lon="1.85587">
        <ele>91</ele>
        <time>2019-01-11T20:29:55Z</time>
      </trkpt>
      <trkpt lat="47.88714" lon="1.8557">
        <ele>91</ele>
        <time>2019-01-11T20:29:56Z</time>
      </trkpt>
      <trkpt lat="47.88703" lon="1.8551">
        <ele>91</ele>
        <time>2019-01-11T20:29:57Z</time>
      </trkpt>
      <trkpt lat="47.8869" lon="1.85449">
        <ele>91</ele>
        <time>2019-01-11T20:29:58Z</time>
      </trkpt>
      <trkpt lat="47.88688" lon="1.85439">
        <ele>91</ele>
        <time>2019-01-11T20:29:59Z</time>
      </trkpt>
      <trkpt lat="47.88663" lon="1.85345">
        <ele>91</ele>
        <time>2019-01-11T20:30:00Z</time>
      </trkpt>
      <trkpt lat="47.88649" lon="1.85296">
        <ele>90</ele>
        <time>2019-01-11T20:30:01Z</time>
      </trkpt>
      <trkpt lat="47.88611" lon="1.85183">
        <ele>90</ele>
        <time>2019-01-11T20:30:02Z</time>
      </trkpt>
      <trkpt lat="47.88582" lon="1.85104">
        <ele>89</ele>
        <time>2019-01-11T20:30:03Z</time>
      </trkpt>
      <trkpt lat="47.88537" lon="1.84989">
        <ele>91</ele>
        <time>2019-01-11T20:30:04Z</time>
      </trkpt>
      <trkpt lat="47.88494" lon="1.84892">
        <ele>91</ele>
        <time>2019-01-11T20:30:05Z</time>
      </trkpt>
      <trkpt lat="47.88446" lon="1.84791">
        <ele>91</ele>
        <time>2019-01-11T20:30:06Z</time>
      </trkpt>
      <trkpt lat="47.88435" lon="1.84767">
        <ele>91</ele>
        <time>2019-01-11T20:30:07Z</time>
      </trkpt>
      <trkpt lat="47.88408" lon="1.84693">
        <ele>91</ele>
        <time>2019-01-11T20:30:08Z</time>
      </trkpt>
      <trkpt lat="47.88355" lon="1.84546">
        <ele>90</ele>
        <time>2019-01-11T20:30:09Z</time>
      </trkpt>
      <trkpt lat="47.88344" lon="1.84527">
        <ele>90</ele>
        <time>2019-01-11T20:30:10Z</time>
      </trkpt>
      <trkpt lat="47.88322" lon="1.84489">
        <ele>89</ele>
        <time>2019-01-11T20:30:11Z</time>
      </trkpt>
      <trkpt lat="47.88286" lon="1.84441">
        <ele>91</ele>
        <time>2019-01-11T20:30:12Z</time>
      </trkpt>
      <trkpt lat="47.88252" lon="1.84409">
        <ele>92</ele>
        <time>2019-01-11T20:30:13Z</time>
      </trkpt>
      <trkpt lat="47.88219" lon="1.84388">
        <ele>91</ele>
        <time>2019-01-11T20:30:14Z</time>
      </trkpt>
      <trkpt lat="47.88198" lon="1.84371">
        <ele>91</ele>
        <time>2019-01-11T20:30:15Z</time>
      </trkpt>
      <trkpt lat="47.88182" lon="1.84353">
        <ele>91</ele>
        <time>2019-01-11T20:30:16Z</time>
      </trkpt>
      <trkpt lat="47.88165" lon="1.84325">
        <ele>91</ele>
        <time>2019-01-11T20:30:17Z</time>
      </trkpt>
      <trkpt lat="47.88145" lon="1.84287">
        <ele>91</ele>
        <time>2019-01-11T20:30:18Z</time>
      </trkpt>
      <trkpt lat="47.88119" lon="1.84218">
        <ele>91</ele>
        <time>2019-01-11T20:30:19Z</time>
      </trkpt>
      <trkpt lat="47.88101" lon="1.84161">
        <ele>90</ele>
        <time>2019-01-11T20:30:20Z</time>
      </trkpt>
      <trkpt lat="47.88086" lon="1.84127">
        <ele>90</ele>
        <time>2019-01-11T20:30:21Z</time>
      </trkpt>
      <trkpt lat="47.88066" lon="1.8409">
        <ele>91</ele>
        <time>2019-01-11T20:30:22Z</time>
      </trkpt>
      <trkpt lat="47.88026" lon="1.84037">
        <ele>90</ele>
        <time>2019-01-11T20:30:23Z</time>
      </trkpt>
      <trkpt lat="47.87994" lon="1.83995">
        <ele>89</ele>
        <time>2019-01-11T20:30:24Z</time>
      </trkpt>
      <trkpt lat="47.87989" lon="1.83987">
        <ele>90</ele>
        <time>2019-01-11T20:30:25Z</time>
      </trkpt>
      <trkpt lat="47.87979" lon="1.83974">
        <ele>90</ele>
        <time>2019-01-11T20:30:26Z</time>
      </trkpt>
      <trkpt lat="47.87967" lon="1.83955">
        <ele>91</ele>
        <time>2019-01-11T20:30:27Z</time>
      </trkpt>
      <trkpt lat="47.87951" lon="1.83925">
        <ele>91</ele>
        <time>2019-01-11T20:30:28Z</time>
      </trkpt>
      <trkpt lat="47.87931" lon="1.8389">
        <ele>92</ele>
        <time>2019-01-11T20:30:29Z</time>
      </trkpt>
      <trkpt lat="47.87912" lon="1.83857">
        <ele>92</ele>
        <time>2019-01-11T20:30:30Z</time>
      </trkpt>
      <trkpt lat="47.87904" lon="1.83843">
        <ele>92</ele>
        <time>2019-01-11T20:30:31Z</time>
      </trkpt>
      <trkpt lat="47.87896" lon="1.8384">
        <ele>92</ele>
        <time>2019-01-11T20:30:32Z</time>
      </trkpt>
      <trkpt lat="47.87887" lon="1.83839">
        <ele>91</ele>
        <time>2019-01-11T20:30:33Z</time>
      </trkpt>
      <trkpt lat="47.87876" lon="1.83843">
        <ele>91</ele>
        <time>2019-01-11T20:30:34Z</time>
      </trkpt>
      <trkpt lat="47.87867" lon="1.8385">
        <ele>91</ele>
        <time>2019-01-11T20:30:35Z</time>
      </trkpt>
      <trkpt lat="47.87853" lon="1.83863">
        <ele>91</ele>
        <time>2019-01-11T20:30:36Z</time>
      </trkpt>
      <trkpt lat="47.87848" lon="1.83869">
        <ele>91</ele>
        <time>2019-01-11T20:30:37Z</time>
      </trkpt>
      <trkpt lat="47.8784" lon="1.83873">
        <ele>91</ele>
        <time>2019-01-11T20:30:38Z</time>
      </trkpt>
      <trkpt lat="47.87831" lon="1.83876">
        <ele>91</ele>
        <time>2019-01-11T20:30:39Z</time>
      </trkpt>
      <trkpt lat="47.87819" lon="1.83879">
        <ele>92</ele>
        <time>2019-01-11T20:30:40Z</time>
      </trkpt>
      <trkpt lat="47.87798" lon="1.83876">
        <ele>93</ele>
        <time>2019-01-11T20:30:41Z</time>
      </trkpt>
      <trkpt lat="47.87785" lon="1.83872">
        <ele>94</ele>
        <time>2019-01-11T20:30:42Z</time>
      </trkpt>
      <trkpt lat="47.87777" lon="1.83865">
        <ele>94</ele>
        <time>2019-01-11T20:30:43Z</time>
      </trkpt>
      <trkpt lat="47.87764" lon="1.83848">
        <ele>94</ele>
        <time>2019-01-11T20:30:44Z</time>
      </trkpt>
      <trkpt lat="47.8774" lon="1.83791">
        <ele>93</ele>
        <time>2019-01-11T20:30:45Z</time>
      </trkpt>
      <trkpt lat="47.87717" lon="1.83749">
        <ele>93</ele>
        <time>2019-01-11T20:30:46Z</time>
      </trkpt>
      <trkpt lat="47.87706" lon="1.8374">
        <ele>93</ele>
        <time>2019-01-11T20:30:47Z</time>
      </trkpt>
      <trkpt lat="47.87698" lon="1.83739">
        <ele>93</ele>
        <time>2019-01-11T20:30:48Z</time>
      </trkpt>
      <trkpt lat="47.87679" lon="1.83744">
        <ele>94</ele>
        <time>2019-01-11T20:30:49Z</time>
      </trkpt>
      <trkpt lat="47.87578" lon="1.83789">
        <ele>93</ele>
        <time>2019-01-11T20:30:50Z</time>
      </trkpt>
      <trkpt lat="47.87523" lon="1.838">
        <ele>92</ele>
        <time>2019-01-11T20:30:51Z</time>
      </trkpt>
      <trkpt lat="47.87511" lon="1.83806">
        <ele>92</ele>
        <time>2019-01-11T20:30:52Z</time>
      </trkpt>
      <trkpt lat="47.8748" lon="1.83828">
        <ele>92</ele>
        <time>2019-01-11T20:30:53Z</time>
      </trkpt>
      <trkpt lat="47.87433" lon="1.83868">
        <ele>92</ele>
        <time>2019-01-11T20:30:54Z</time>
      </trkpt>
      <trkpt lat="47.87398" lon="1.83901">
        <ele>91</ele>
        <time>2019-01-11T20:30:55Z</time>
      </trkpt>
      <trkpt lat="47.87347" lon="1.83995">
        <ele>91</ele>
        <time>2019-01-11T20:30:56Z</time>
      </trkpt>
      <trkpt lat="47.87337" lon="1.8401">
        <ele>91</ele>
        <time>2019-01-11T20:30:57Z</time>
      </trkpt>
      <trkpt lat="47.87329" lon="1.84018">
        <ele>91</ele>
        <time>2019-01-11T20:30:58Z</time>
      </trkpt>
      <trkpt lat="47.87326" lon="1.84012">
        <ele>91</ele>
        <time>2019-01-11T20:30:59Z</time>
      </trkpt>
      <trkpt lat="47.87317" lon="1.84003">
        <ele>90</ele>
        <time>2019-01-11T20:31:00Z</time>
      </trkpt>
      <trkpt lat="47.87311" lon="1.84002">
        <ele>90</ele>
        <time>2019-01-11T20:31:01Z</time>
      </trkpt>
      <trkpt lat="47.87273" lon="1.84">
        <ele>88</ele>
        <time>2019-01-11T20:31:02Z</time>
      </trkpt>
      <trkpt lat="47.87185" lon="1.83997">
        <ele>90</ele>
        <time>2019-01-11T20:31:03Z</time>
      </trkpt>
      <trkpt lat="47.87169" lon="1.83994">
        <ele>91</ele>
        <time>2019-01-11T20:31:04Z</time>
      </trkpt>
      <trkpt lat="47.87075" lon="1.8398">
        <ele>90</ele>
        <time>2019-01-11T20:31:05Z</time>
      </trkpt>
      <trkpt lat="47.87027" lon="1.83974">
        <ele>92</ele>
        <time>2019-01-11T20:31:06Z</time>
      </trkpt>
      <trkpt lat="47.87004" lon="1.83973">
        <ele>93</ele>
        <time>2019-01-11T20:31:07Z</time>
      </trkpt>
      <trkpt lat="47.86988" lon="1.83973">
        <ele>94</ele>
        <time>2019-01-11T20:31:08Z</time>
      </trkpt>
      <trkpt lat="47.86951" lon="1.83976">
        <ele>96</ele>
        <time>2019-01-11T20:31:09Z</time>
      </trkpt>
      <trkpt lat="47.8694" lon="1.83979">
        <ele>97</ele>
        <time>2019-01-11T20:31:10Z</time>
      </trkpt>
      <trkpt lat="47.86916" lon="1.83992">
        <ele>99</ele>
        <time>2019-01-11T20:31:11Z</time>
      </trkpt>
      <trkpt lat="47.86903" lon="1.83997">
        <ele>99</ele>
        <time>2019-01-11T20:31:12Z</time>
      </trkpt>
      <trkpt lat="47.86892" lon="1.84">
        <ele>99</ele>
        <time>2019-01-11T20:31:13Z</time>
      </trkpt>
      <trkpt lat="47.86874" lon="1.83958">
        <ele>99</ele>
        <time>2019-01-11T20:31:14Z</time>
      </trkpt>
      <trkpt lat="47.8682" lon="1.83827">
        <ele>101</ele>
        <time>2019-01-11T20:31:15Z</time>
      </trkpt>
      <trkpt lat="47.86811" lon="1.83807">
        <ele>101</ele>
        <time>2019-01-11T20:31:16Z</time>
      </trkpt>
      <trkpt lat="47.86811" lon="1.83765">
        <ele>101</ele>
        <time>2019-01-11T20:31:17Z</time>
      </trkpt>
      <trkpt lat="47.86805" lon="1.83703">
        <ele>100</ele>
        <time>2019-01-11T20:31:18Z</time>
      </trkpt>
      <trkpt lat="47.86798" lon="1.83648">
        <ele>100</ele>
        <time>2019-01-11T20:31:19Z</time>
      </trkpt>
      <trkpt lat="47.86789" lon="1.83601">
        <ele>100</ele>
        <time>2019-01-11T20:31:20Z</time>
      </trkpt>
      <trkpt lat="47.86779" lon="1.83563">
        <ele>100</ele>
        <time>2019-01-11T20:31:21Z</time>
      </trkpt>
      <trkpt lat="47.86767" lon="1.83522">
        <ele>100</ele>
        <time>2019-01-11T20:31:22Z</time>
      </trkpt>
      <trkpt lat="47.86702" lon="1.83329">
        <ele>100</ele>
        <time>2019-01-11T20:31:23Z</time>
      </trkpt>
      <trkpt lat="47.86681" lon="1.83267">
        <ele>100</ele>
        <time>2019-01-11T20:31:24Z</time>
      </trkpt>
      <trkpt lat="47.8667" lon="1.83235">
        <ele>100</ele>
        <time>2019-01-11T20:31:25Z</time>
      </trkpt>
      <trkpt lat="47.86639" lon="1.83132">
        <ele>100</ele>
        <time>2019-01-11T20:31:26Z</time>
      </trkpt>
      <trkpt lat="47.86614" lon="1.83035">
        <ele>99</ele>
        <time>2019-01-11T20:31:27Z</time>
      </trkpt>
      <trkpt lat="47.86594" lon="1.82982">
        <ele>99</ele>
        <time>2019-01-11T20:31:28Z</time>
      </trkpt>
      <trkpt lat="47.86542" lon="1.82877">
        <ele>100</ele>
        <time>2019-01-11T20:31:29Z</time>
      </trkpt>
      <trkpt lat="47.86526" lon="1.82828">
        <ele>100</ele>
        <time>2019-01-11T20:31:30Z</time>
      </trkpt>
      <trkpt lat="47.86519" lon="1.82803">
        <ele>101</ele>
        <time>2019-01-11T20:31:31Z</time>
      </trkpt>
      <trkpt lat="47.86487" lon="1.82698">
        <ele>101</ele>
        <time>2019-01-11T20:31:32Z</time>
      </trkpt>
      <trkpt lat="47.86475" lon="1.82658">
        <ele>100</ele>
        <time>2019-01-11T20:31:33Z</time>
      </trkpt>
      <trkpt lat="47.86451" lon="1.82557">
        <ele>99</ele>
        <time>2019-01-11T20:31:34Z</time>
      </trkpt>
      <trkpt lat="47.86445" lon="1.82539">
        <ele>99</ele>
        <time>2019-01-11T20:31:35Z</time>
      </trkpt>
      <trkpt lat="47.86425" lon="1.82465">
        <ele>98</ele>
        <time>2019-01-11T20:31:36Z</time>
      </trkpt>
      <trkpt lat="47.86421" lon="1.82452">
        <ele>98</ele>
        <time>2019-01-11T20:31:37Z</time>
      </trkpt>
      <trkpt lat="47.86413" lon="1.8244">
        <ele>98</ele>
        <time>2019-01-11T20:31:38Z</time>
      </trkpt>
      <trkpt lat="47.86414" lon="1.82433">
        <ele>97</ele>
        <time>2019-01-11T20:31:39Z</time>
      </trkpt>
      <trkpt lat="47.8641" lon="1.82427">
        <ele>97</ele>
        <time>2019-01-11T20:31:40Z</time>
      </trkpt>
      <trkpt lat="47.86411" lon="1.82415">
        <ele>97</ele>
        <time>2019-01-11T20:31:41Z</time>
      </trkpt>
      <trkpt lat="47.86411" lon="1.82385">
        <ele>98</ele>
        <time>2019-01-11T20:31:42Z</time>
      </trkpt>
      <trkpt lat="47.86402" lon="1.82299">
        <ele>100</ele>
        <time>2019-01-11T20:31:43Z</time>
      </trkpt>
      <trkpt lat="47.86386" lon="1.82227">
        <ele>101</ele>
        <time>2019-01-11T20:31:44Z</time>
      </trkpt>
      <trkpt lat="47.86364" lon="1.82142">
        <ele>98</ele>
        <time>2019-01-11T20:31:45Z</time>
      </trkpt>
      <trkpt lat="47.8636" lon="1.82116">
        <ele>98</ele>
        <time>2019-01-11T20:31:46Z</time>
      </trkpt>
      <trkpt lat="47.86353" lon="1.82047">
        <ele>97</ele>
        <time>2019-01-11T20:31:47Z</time>
      </trkpt>
      <trkpt lat="47.86345" lon="1.81937">
        <ele>94</ele>
        <time>2019-01-11T20:31:48Z</time>
      </trkpt>
      <trkpt lat="47.86326" lon="1.81746">
        <ele>89</ele>
        <time>2019-01-11T20:31:49Z</time>
      </trkpt>
      <trkpt lat="47.86318" lon="1.81603">
        <ele>91</ele>
        <time>2019-01-11T20:31:50Z</time>
      </trkpt>
      <trkpt lat="47.86316" lon="1.81456">
        <ele>91</ele>
        <time>2019-01-11T20:31:51Z</time>
      </trkpt>
      <trkpt lat="47.86314" lon="1.81382">
        <ele>91</ele>
        <time>2019-01-11T20:31:52Z</time>
      </trkpt>
      <trkpt lat="47.86319" lon="1.81177">
        <ele>93</ele>
        <time>2019-01-11T20:31:53Z</time>
      </trkpt>
      <trkpt lat="47.86319" lon="1.81102">
        <ele>92</ele>
        <time>2019-01-11T20:31:54Z</time>
      </trkpt>
      <trkpt lat="47.86316" lon="1.80906">
        <ele>91</ele>
        <time>2019-01-11T20:31:55Z</time>
      </trkpt>
      <trkpt lat="47.86314" lon="1.80851">
        <ele>92</ele>
        <time>2019-01-11T20:31:56Z</time>
      </trkpt>
      <trkpt lat="47.8631" lon="1.80803">
        <ele>92</ele>
        <time>2019-01-11T20:31:57Z</time>
      </trkpt>
      <trkpt lat="47.86294" lon="1.80693">
        <ele>91</ele>
        <time>2019-01-11T20:31:58Z</time>
      </trkpt>
      <trkpt lat="47.86283" lon="1.80645">
        <ele>90</ele>
        <time>2019-01-11T20:31:59Z</time>
      </trkpt>
      <trkpt lat="47.86257" lon="1.80544">
        <ele>89</ele>
        <time>2019-01-11T20:32:00Z</time>
      </trkpt>
      <trkpt lat="47.86227" lon="1.80443">
        <ele>89</ele>
        <time>2019-01-11T20:32:01Z</time>
      </trkpt>
      <trkpt lat="47.86224" lon="1.80424">
        <ele>89</ele>
        <time>2019-01-11T20:32:02Z</time>
      </trkpt>
      <trkpt lat="47.86204" lon="1.80254">
        <ele>91</ele>
        <time>2019-01-11T20:32:03Z</time>
      </trkpt>
      <trkpt lat="47.86197" lon="1.80173">
        <ele>92</ele>
        <time>2019-01-11T20:32:04Z</time>
      </trkpt>
      <trkpt lat="47.862" lon="1.80138">
        <ele>92</ele>
        <time>2019-01-11T20:32:05Z</time>
      </trkpt>
      <trkpt lat="47.86203" lon="1.80116">
        <ele>93</ele>
        <time>2019-01-11T20:32:06Z</time>
      </trkpt>
      <trkpt lat="47.86223" lon="1.8002">
        <ele>91</ele>
        <time>2019-01-11T20:32:07Z</time>
      </trkpt>
      <trkpt lat="47.86233" lon="1.79983">
        <ele>90</ele>
        <time>2019-01-11T20:32:08Z</time>
      </trkpt>
      <trkpt lat="47.86255" lon="1.79921">
        <ele>91</ele>
        <time>2019-01-11T20:32:09Z</time>
      </trkpt>
      <trkpt lat="47.86275" lon="1.79874">
        <ele>90</ele>
        <time>2019-01-11T20:32:10Z</time>
      </trkpt>
      <trkpt lat="47.86278" lon="1.79865">
        <ele>90</ele>
        <time>2019-01-11T20:32:11Z</time>
      </trkpt>
      <trkpt lat="47.86299" lon="1.79815">
        <ele>90</ele>
        <time>2019-01-11T20:32:12Z</time>
      </trkpt>
      <trkpt lat="47.86328" lon="1.79736">
        <ele>90</ele>
        <time>2019-01-11T20:32:13Z</time>
      </trkpt>
      <trkpt lat="47.86339" lon="1.797">
        <ele>90</ele>
        <time>2019-01-11T20:32:14Z</time>
      </trkpt>
      <trkpt lat="47.86351" lon="1.79651">
        <ele>90</ele>
        <time>2019-01-11T20:32:15Z</time>
      </trkpt>
      <trkpt lat="47.86351" lon="1.79651">
        <ele>90</ele>
        <time>2019-01-11T20:32:16Z</time>
      </trkpt>
      <trkpt lat="47.86359" lon="1.79616">
        <ele>91</ele>
        <time>2019-01-11T20:32:17Z</time>
      </trkpt>
      <trkpt lat="47.86367" lon="1.79569">
        <ele>92</ele>
        <time>2019-01-11T20:32:18Z</time>
      </trkpt>
      <trkpt lat="47.86371" lon="1.79521">
        <ele>92</ele>
        <time>2019-01-11T20:32:19Z</time>
      </trkpt>
      <trkpt lat="47.86369" lon="1.79422">
        <ele>89</ele>
        <time>2019-01-11T20:32:20Z</time>
      </trkpt>
      <trkpt lat="47.86363" lon="1.79303">
        <ele>89</ele>
        <time>2019-01-11T20:32:21Z</time>
      </trkpt>
      <trkpt lat="47.86361" lon="1.79258">
        <ele>89</ele>
        <time>2019-01-11T20:32:22Z</time>
      </trkpt>
      <trkpt lat="47.86356" lon="1.7921">
        <ele>89</ele>
        <time>2019-01-11T20:32:23Z</time>
      </trkpt>
      <trkpt lat="47.86347" lon="1.79189">
        <ele>90</ele>
        <time>2019-01-11T20:32:24Z</time>
      </trkpt>
      <trkpt lat="47.86326" lon="1.7915">
        <ele>90</ele>
        <time>2019-01-11T20:32:25Z</time>
      </trkpt>
      <trkpt lat="47.86314" lon="1.79122">
        <ele>89</ele>
        <time>2019-01-11T20:32:26Z</time>
      </trkpt>
      <trkpt lat="47.86303" lon="1.7909">
        <ele>89</ele>
        <time>2019-01-11T20:32:27Z</time>
      </trkpt>
      <trkpt lat="47.86294" lon="1.79058">
        <ele>89</ele>
        <time>2019-01-11T20:32:28Z</time>
      </trkpt>
      <trkpt lat="47.86292" lon="1.7904">
        <ele>89</ele>
        <time>2019-01-11T20:32:29Z</time>
      </trkpt>
      <trkpt lat="47.86292" lon="1.79023">
        <ele>89</ele>
        <time>2019-01-11T20:32:30Z</time>
      </trkpt>
      <trkpt lat="47.86315" lon="1.78884">
        <ele>88</ele>
        <time>2019-01-11T20:32:31Z</time>
      </trkpt>
      <trkpt lat="47.86323" lon="1.78814">
        <ele>87</ele>
        <time>2019-01-11T20:32:32Z</time>
      </trkpt>
      <trkpt lat="47.86346" lon="1.78557">
        <ele>90</ele>
        <time>2019-01-11T20:32:33Z</time>
      </trkpt>
      <trkpt lat="47.86346" lon="1.78537">
        <ele>89</ele>
        <time>2019-01-11T20:32:34Z</time>
      </trkpt>
      <trkpt lat="47.86345" lon="1.78528">
        <ele>89</ele>
        <time>2019-01-11T20:32:35Z</time>
      </trkpt>
      <trkpt lat="47.8634" lon="1.78505">
        <ele>89</ele>
        <time>2019-01-11T20:32:36Z</time>
      </trkpt>
      <trkpt lat="47.86257" lon="1.78256">
        <ele>90</ele>
        <time>2019-01-11T20:32:37Z</time>
      </trkpt>
      <trkpt lat="47.86246" lon="1.78222">
        <ele>91</ele>
        <time>2019-01-11T20:32:38Z</time>
      </trkpt>
      <trkpt lat="47.86234" lon="1.78187">
        <ele>92</ele>
        <time>2019-01-11T20:32:39Z</time>
      </trkpt>
      <trkpt lat="47.86224" lon="1.78164">
        <ele>92</ele>
        <time>2019-01-11T20:32:40Z</time>
      </trkpt>
      <trkpt lat="47.86213" lon="1.78146">
        <ele>92</ele>
        <time>2019-01-11T20:32:41Z</time>
      </trkpt>
      <trkpt lat="47.86169" lon="1.78094">
        <ele>90</ele>
        <time>2019-01-11T20:32:42Z</time>
      </trkpt>
      <trkpt lat="47.86141" lon="1.78064">
        <ele>90</ele>
        <time>2019-01-11T20:32:43Z</time>
      </trkpt>
      <trkpt lat="47.86116" lon="1.78032">
        <ele>90</ele>
        <time>2019-01-11T20:32:44Z</time>
      </trkpt>
      <trkpt lat="47.86096" lon="1.77998">
        <ele>90</ele>
        <time>2019-01-11T20:32:45Z</time>
      </trkpt>
      <trkpt lat="47.86039" lon="1.77909">
        <ele>91</ele>
        <time>2019-01-11T20:32:46Z</time>
      </trkpt>
      <trkpt lat="47.85979" lon="1.77823">
        <ele>91</ele>
        <time>2019-01-11T20:32:47Z</time>
      </trkpt>
      <trkpt lat="47.85934" lon="1.77761">
        <ele>90</ele>
        <time>2019-01-11T20:32:48Z</time>
      </trkpt>
      <trkpt lat="47.85866" lon="1.7766">
        <ele>88</ele>
        <time>2019-01-11T20:32:49Z</time>
      </trkpt>
      <trkpt lat="47.85832" lon="1.77599">
        <ele>88</ele>
        <time>2019-01-11T20:32:50Z</time>
      </trkpt>
      <trkpt lat="47.85819" lon="1.77569">
        <ele>88</ele>
        <time>2019-01-11T20:32:51Z</time>
      </trkpt>
      <trkpt lat="47.85809" lon="1.77554">
        <ele>89</ele>
        <time>2019-01-11T20:32:52Z</time>
      </trkpt>
      <trkpt lat="47.85785" lon="1.77491">
        <ele>89</ele>
        <time>2019-01-11T20:32:53Z</time>
      </trkpt>
      <trkpt lat="47.8576" lon="1.77392">
        <ele>88</ele>
        <time>2019-01-11T20:32:54Z</time>
      </trkpt>
      <trkpt lat="47.85751" lon="1.77372">
        <ele>88</ele>
        <time>2019-01-11T20:32:55Z</time>
      </trkpt>
      <trkpt lat="47.85709" lon="1.7731">
        <ele>88</ele>
        <time>2019-01-11T20:32:56Z</time>
      </trkpt>
      <trkpt lat="47.857" lon="1.77292">
        <ele>87</ele>
        <time>2019-01-11T20:32:57Z</time>
      </trkpt>
      <trkpt lat="47.85694" lon="1.77273">
        <ele>87</ele>
        <time>2019-01-11T20:32:58Z</time>
      </trkpt>
      <trkpt lat="47.8569" lon="1.77253">
        <ele>87</ele>
        <time>2019-01-11T20:32:59Z</time>
      </trkpt>
      <trkpt lat="47.85674" lon="1.77139">
        <ele>89</ele>
        <time>2019-01-11T20:33:00Z</time>
      </trkpt>
      <trkpt lat="47.85669" lon="1.77115">
        <ele>89</ele>
        <time>2019-01-11T20:33:01Z</time>
      </trkpt>
      <trkpt lat="47.85664" lon="1.77097">
        <ele>90</ele>
        <time>2019-01-11T20:33:02Z</time>
      </trkpt>
      <trkpt lat="47.85646" lon="1.77055">
        <ele>90</ele>
        <time>2019-01-11T20:33:03Z</time>
      </trkpt>
      <trkpt lat="47.85535" lon="1.76831">
        <ele>88</ele>
        <time>2019-01-11T20:33:04Z</time>
      </trkpt>
      <trkpt lat="47.85514" lon="1.76788">
        <ele>89</ele>
        <time>2019-01-11T20:33:05Z</time>
      </trkpt>
      <trkpt lat="47.85503" lon="1.76766">
        <ele>89</ele>
        <time>2019-01-11T20:33:06Z</time>
      </trkpt>
      <trkpt lat="47.85493" lon="1.76741">
        <ele>89</ele>
        <time>2019-01-11T20:33:07Z</time>
      </trkpt>
      <trkpt lat="47.85423" lon="1.76545">
        <ele>89</ele>
        <time>2019-01-11T20:33:08Z</time>
      </trkpt>
      <trkpt lat="47.85384" lon="1.76442">
        <ele>88</ele>
        <time>2019-01-11T20:33:09Z</time>
      </trkpt>
      <trkpt lat="47.85355" lon="1.76357">
        <ele>88</ele>
        <time>2019-01-11T20:33:10Z</time>
      </trkpt>
      <trkpt lat="47.85302" lon="1.76209">
        <ele>88</ele>
        <time>2019-01-11T20:33:11Z</time>
      </trkpt>
      <trkpt lat="47.85283" lon="1.76161">
        <ele>87</ele>
        <time>2019-01-11T20:33:12Z</time>
      </trkpt>
      <trkpt lat="47.85262" lon="1.76116">
        <ele>87</ele>
        <time>2019-01-11T20:33:13Z</time>
      </trkpt>
      <trkpt lat="47.85198" lon="1.75982">
        <ele>87</ele>
        <time>2019-01-11T20:33:14Z</time>
      </trkpt>
      <trkpt lat="47.85138" lon="1.75843">
        <ele>88</ele>
        <time>2019-01-11T20:33:15Z</time>
      </trkpt>
      <trkpt lat="47.85102" lon="1.75754">
        <ele>89</ele>
        <time>2019-01-11T20:33:16Z</time>
      </trkpt>
      <trkpt lat="47.85086" lon="1.75714">
        <ele>89</ele>
        <time>2019-01-11T20:33:17Z</time>
      </trkpt>
      <trkpt lat="47.85001" lon="1.75565">
        <ele>89</ele>
        <time>2019-01-11T20:33:18Z</time>
      </trkpt>
      <trkpt lat="47.84953" lon="1.75489">
        <ele>88</ele>
        <time>2019-01-11T20:33:19Z</time>
      </trkpt>
      <trkpt lat="47.84917" lon="1.75434">
        <ele>87</ele>
        <time>2019-01-11T20:33:20Z</time>
      </trkpt>
      <trkpt lat="47.84893" lon="1.75393">
        <ele>87</ele>
        <time>2019-01-11T20:33:21Z</time>
      </trkpt>
      <trkpt lat="47.84837" lon="1.75308">
        <ele>88</ele>
        <time>2019-01-11T20:33:22Z</time>
      </trkpt>
      <trkpt lat="47.84786" lon="1.75242">
        <ele>89</ele>
        <time>2019-01-11T20:33:23Z</time>
      </trkpt>
      <trkpt lat="47.84748" lon="1.75199">
        <ele>89</ele>
        <time>2019-01-11T20:33:24Z</time>
      </trkpt>
      <trkpt lat="47.84717" lon="1.7516">
        <ele>88</ele>
        <time>2019-01-11T20:33:25Z</time>
      </trkpt>
      <trkpt lat="47.84682" lon="1.75119">
        <ele>87</ele>
        <time>2019-01-11T20:33:26Z</time>
      </trkpt>
      <trkpt lat="47.84621" lon="1.75053">
        <ele>87</ele>
        <time>2019-01-11T20:33:27Z</time>
      </trkpt>
      <trkpt lat="47.84467" lon="1.74919">
        <ele>87</ele>
        <time>2019-01-11T20:33:28Z</time>
      </trkpt>
      <trkpt lat="47.84425" lon="1.74886">
        <ele>87</ele>
        <time>2019-01-11T20:33:29Z</time>
      </trkpt>
      <trkpt lat="47.84387" lon="1.74853">
        <ele>87</ele>
        <time>2019-01-11T20:33:30Z</time>
      </trkpt>
      <trkpt lat="47.8424" lon="1.74705">
        <ele>88</ele>
        <time>2019-01-11T20:33:31Z</time>
      </trkpt>
      <trkpt lat="47.84217" lon="1.74684">
        <ele>87</ele>
        <time>2019-01-11T20:33:32Z</time>
      </trkpt>
      <trkpt lat="47.84211" lon="1.74658">
        <ele>87</ele>
        <time>2019-01-11T20:33:33Z</time>
      </trkpt>
      <trkpt lat="47.8419" lon="1.7462">
        <ele>87</ele>
        <time>2019-01-11T20:33:34Z</time>
      </trkpt>
      <trkpt lat="47.84184" lon="1.74598">
        <ele>87</ele>
        <time>2019-01-11T20:33:35Z</time>
      </trkpt>
      <trkpt lat="47.84183" lon="1.74579">
        <ele>87</ele>
        <time>2019-01-11T20:33:36Z</time>
      </trkpt>
      <trkpt lat="47.84185" lon="1.74558">
        <ele>87</ele>
        <time>2019-01-11T20:33:37Z</time>
      </trkpt>
      <trkpt lat="47.8419" lon="1.7454">
        <ele>87</ele>
        <time>2019-01-11T20:33:38Z</time>
      </trkpt>
      <trkpt lat="47.84206" lon="1.74509">
        <ele>87</ele>
        <time>2019-01-11T20:33:39Z</time>
      </trkpt>
      <trkpt lat="47.8421" lon="1.74496">
        <ele>87</ele>
        <time>2019-01-11T20:33:40Z</time>
      </trkpt>
      <trkpt lat="47.84212" lon="1.74476">
        <ele>87</ele>
        <time>2019-01-11T20:33:41Z</time>
      </trkpt>
      <trkpt lat="47.84212" lon="1.74458">
        <ele>87</ele>
        <time>2019-01-11T20:33:42Z</time>
      </trkpt>
      <trkpt lat="47.8421" lon="1.74419">
        <ele>87</ele>
        <time>2019-01-11T20:33:43Z</time>
      </trkpt>
      <trkpt lat="47.84205" lon="1.74357">
        <ele>89</ele>
        <time>2019-01-11T20:33:44Z</time>
      </trkpt>
      <trkpt lat="47.84203" lon="1.7418">
        <ele>90</ele>
        <time>2019-01-11T20:33:45Z</time>
      </trkpt>
      <trkpt lat="47.84199" lon="1.74121">
        <ele>88</ele>
        <time>2019-01-11T20:33:46Z</time>
      </trkpt>
      <trkpt lat="47.84195" lon="1.74072">
        <ele>88</ele>
        <time>2019-01-11T20:33:47Z</time>
      </trkpt>
      <trkpt lat="47.84166" lon="1.73881">
        <ele>86</ele>
        <time>2019-01-11T20:33:48Z</time>
      </trkpt>
      <trkpt lat="47.84143" lon="1.73666">
        <ele>88</ele>
        <time>2019-01-11T20:33:49Z</time>
      </trkpt>
      <trkpt lat="47.84139" lon="1.7364">
        <ele>88</ele>
        <time>2019-01-11T20:33:50Z</time>
      </trkpt>
      <trkpt lat="47.84109" lon="1.73486">
        <ele>90</ele>
        <time>2019-01-11T20:33:51Z</time>
      </trkpt>
      <trkpt lat="47.84097" lon="1.73437">
        <ele>90</ele>
        <time>2019-01-11T20:33:52Z</time>
      </trkpt>
      <trkpt lat="47.84068" lon="1.73335">
        <ele>90</ele>
        <time>2019-01-11T20:33:53Z</time>
      </trkpt>
      <trkpt lat="47.84056" lon="1.73301">
        <ele>91</ele>
        <time>2019-01-11T20:33:54Z</time>
      </trkpt>
      <trkpt lat="47.8404" lon="1.73237">
        <ele>92</ele>
        <time>2019-01-11T20:33:55Z</time>
      </trkpt>
      <trkpt lat="47.84028" lon="1.73204">
        <ele>92</ele>
        <time>2019-01-11T20:33:56Z</time>
      </trkpt>
      <trkpt lat="47.83986" lon="1.73072">
        <ele>93</ele>
        <time>2019-01-11T20:33:57Z</time>
      </trkpt>
      <trkpt lat="47.83944" lon="1.72955">
        <ele>91</ele>
        <time>2019-01-11T20:33:58Z</time>
      </trkpt>
      <trkpt lat="47.83902" lon="1.72846">
        <ele>88</ele>
        <time>2019-01-11T20:33:59Z</time>
      </trkpt>
      <trkpt lat="47.83847" lon="1.72715">
        <ele>88</ele>
        <time>2019-01-11T20:34:00Z</time>
      </trkpt>
      <trkpt lat="47.8382" lon="1.72644">
        <ele>89</ele>
        <time>2019-01-11T20:34:01Z</time>
      </trkpt>
      <trkpt lat="47.83811" lon="1.72622">
        <ele>89</ele>
        <time>2019-01-11T20:34:02Z</time>
      </trkpt>
      <trkpt lat="47.83799" lon="1.72597">
        <ele>88</ele>
        <time>2019-01-11T20:34:03Z</time>
      </trkpt>
      <trkpt lat="47.83779" lon="1.72566">
        <ele>88</ele>
        <time>2019-01-11T20:34:04Z</time>
      </trkpt>
      <trkpt lat="47.83763" lon="1.72551">
        <ele>88</ele>
        <time>2019-01-11T20:34:05Z</time>
      </trkpt>
      <trkpt lat="47.83751" lon="1.72538">
        <ele>88</ele>
        <time>2019-01-11T20:34:06Z</time>
      </trkpt>
      <trkpt lat="47.83665" lon="1.72441">
        <ele>88</ele>
        <time>2019-01-11T20:34:07Z</time>
      </trkpt>
      <trkpt lat="47.83643" lon="1.72413">
        <ele>88</ele>
        <time>2019-01-11T20:34:08Z</time>
      </trkpt>
      <trkpt lat="47.8363" lon="1.72392">
        <ele>88</ele>
        <time>2019-01-11T20:34:09Z</time>
      </trkpt>
      <trkpt lat="47.83599" lon="1.72324">
        <ele>88</ele>
        <time>2019-01-11T20:34:10Z</time>
      </trkpt>
      <trkpt lat="47.83568" lon="1.7224">
        <ele>89</ele>
        <time>2019-01-11T20:34:11Z</time>
      </trkpt>
      <trkpt lat="47.83552" lon="1.72202">
        <ele>88</ele>
        <time>2019-01-11T20:34:12Z</time>
      </trkpt>
      <trkpt lat="47.83543" lon="1.72177">
        <ele>88</ele>
        <time>2019-01-11T20:34:13Z</time>
      </trkpt>
      <trkpt lat="47.83534" lon="1.72146">
        <ele>87</ele>
        <time>2019-01-11T20:34:14Z</time>
      </trkpt>
      <trkpt lat="47.83519" lon="1.72097">
        <ele>87</ele>
        <time>2019-01-11T20:34:15Z</time>
      </trkpt>
      <trkpt lat="47.8351" lon="1.72073">
        <ele>87</ele>
        <time>2019-01-11T20:34:16Z</time>
      </trkpt>
      <trkpt lat="47.83499" lon="1.7205">
        <ele>87</ele>
        <time>2019-01-11T20:34:17Z</time>
      </trkpt>
      <trkpt lat="47.83452" lon="1.71966">
        <ele>87</ele>
        <time>2019-01-11T20:34:18Z</time>
      </trkpt>
      <trkpt lat="47.83419" lon="1.71906">
        <ele>87</ele>
        <time>2019-01-11T20:34:19Z</time>
      </trkpt>
      <trkpt lat="47.83377" lon="1.71843">
        <ele>87</ele>
        <time>2019-01-11T20:34:20Z</time>
      </trkpt>
      <trkpt lat="47.83361" lon="1.71824">
        <ele>87</ele>
        <time>2019-01-11T20:34:21Z</time>
      </trkpt>
      <trkpt lat="47.83331" lon="1.71777">
        <ele>87</ele>
        <time>2019-01-11T20:34:22Z</time>
      </trkpt>
      <trkpt lat="47.83295" lon="1.71732">
        <ele>87</ele>
        <time>2019-01-11T20:34:23Z</time>
      </trkpt>
      <trkpt lat="47.83279" lon="1.71706">
        <ele>87</ele>
        <time>2019-01-11T20:34:24Z</time>
      </trkpt>
      <trkpt lat="47.83257" lon="1.71664">
        <ele>86</ele>
        <time>2019-01-11T20:34:25Z</time>
      </trkpt>
      <trkpt lat="47.83248" lon="1.71641">
        <ele>86</ele>
        <time>2019-01-11T20:34:26Z</time>
      </trkpt>
      <trkpt lat="47.83244" lon="1.7162">
        <ele>86</ele>
        <time>2019-01-11T20:34:27Z</time>
      </trkpt>
      <trkpt lat="47.8325" lon="1.71546">
        <ele>86</ele>
        <time>2019-01-11T20:34:28Z</time>
      </trkpt>
      <trkpt lat="47.8325" lon="1.71537">
        <ele>86</ele>
        <time>2019-01-11T20:34:29Z</time>
      </trkpt>
      <trkpt lat="47.83246" lon="1.71526">
        <ele>86</ele>
        <time>2019-01-11T20:34:30Z</time>
      </trkpt>
      <trkpt lat="47.83237" lon="1.71515">
        <ele>86</ele>
        <time>2019-01-11T20:34:31Z</time>
      </trkpt>
      <trkpt lat="47.8322" lon="1.71502">
        <ele>86</ele>
        <time>2019-01-11T20:34:32Z</time>
      </trkpt>
      <trkpt lat="47.83206" lon="1.71485">
        <ele>86</ele>
        <time>2019-01-11T20:34:33Z</time>
      </trkpt>
      <trkpt lat="47.83192" lon="1.7147">
        <ele>86</ele>
        <time>2019-01-11T20:34:34Z</time>
      </trkpt>
      <trkpt lat="47.83161" lon="1.71435">
        <ele>86</ele>
        <time>2019-01-11T20:34:35Z</time>
      </trkpt>
      <trkpt lat="47.83131" lon="1.71402">
        <ele>86</ele>
        <time>2019-01-11T20:34:36Z</time>
      </trkpt>
      <trkpt lat="47.83111" lon="1.71377">
        <ele>86</ele>
        <time>2019-01-11T20:34:37Z</time>
      </trkpt>
      <trkpt lat="47.83093" lon="1.71356">
        <ele>87</ele>
        <time>2019-01-11T20:34:38Z</time>
      </trkpt>
      <trkpt lat="47.83073" lon="1.71333">
        <ele>87</ele>
        <time>2019-01-11T20:34:39Z</time>
      </trkpt>
      <trkpt lat="47.83063" lon="1.7132">
        <ele>88</ele>
        <time>2019-01-11T20:34:40Z</time>
      </trkpt>
      <trkpt lat="47.83051" lon="1.71308">
        <ele>88</ele>
        <time>2019-01-11T20:34:41Z</time>
      </trkpt>
      <trkpt lat="47.83038" lon="1.71295">
        <ele>89</ele>
        <time>2019-01-11T20:34:42Z</time>
      </trkpt>
      <trkpt lat="47.83029" lon="1.71279">
        <ele>89</ele>
        <time>2019-01-11T20:34:43Z</time>
      </trkpt>
      <trkpt lat="47.83019" lon="1.71256">
        <ele>89</ele>
        <time>2019-01-11T20:34:44Z</time>
      </trkpt>
      <trkpt lat="47.83014" lon="1.71248">
        <ele>89</ele>
        <time>2019-01-11T20:34:45Z</time>
      </trkpt>
      <trkpt lat="47.83002" lon="1.71231">
        <ele>89</ele>
        <time>2019-01-11T20:34:46Z</time>
      </trkpt>
      <trkpt lat="47.82994" lon="1.71219">
        <ele>88</ele>
        <time>2019-01-11T20:34:47Z</time>
      </trkpt>
      <trkpt lat="47.82941" lon="1.7115">
        <ele>87</ele>
        <time>2019-01-11T20:34:48Z</time>
      </trkpt>
      <trkpt lat="47.82931" lon="1.71138">
        <ele>87</ele>
        <time>2019-01-11T20:34:49Z</time>
      </trkpt>
      <trkpt lat="47.82924" lon="1.71131">
        <ele>87</ele>
        <time>2019-01-11T20:34:50Z</time>
      </trkpt>
      <trkpt lat="47.82916" lon="1.71124">
        <ele>86</ele>
        <time>2019-01-11T20:34:51Z</time>
      </trkpt>
      <trkpt lat="47.82906" lon="1.71117">
        <ele>86</ele>
        <time>2019-01-11T20:34:52Z</time>
      </trkpt>
      <trkpt lat="47.82898" lon="1.71109">
        <ele>86</ele>
        <time>2019-01-11T20:34:53Z</time>
      </trkpt>
      <trkpt lat="47.82873" lon="1.71084">
        <ele>86</ele>
        <time>2019-01-11T20:34:54Z</time>
      </trkpt>
      <trkpt lat="47.82854" lon="1.71062">
        <ele>86</ele>
        <time>2019-01-11T20:34:55Z</time>
      </trkpt>
      <trkpt lat="47.82831" lon="1.71037">
        <ele>86</ele>
        <time>2019-01-11T20:34:56Z</time>
      </trkpt>
      <trkpt lat="47.82806" lon="1.71011">
        <ele>85</ele>
        <time>2019-01-11T20:34:57Z</time>
      </trkpt>
      <trkpt lat="47.82786" lon="1.70986">
        <ele>85</ele>
        <time>2019-01-11T20:34:58Z</time>
      </trkpt>
      <trkpt lat="47.82773" lon="1.70969">
        <ele>85</ele>
        <time>2019-01-11T20:34:59Z</time>
      </trkpt>
      <trkpt lat="47.82758" lon="1.70946">
        <ele>85</ele>
        <time>2019-01-11T20:35:00Z</time>
      </trkpt>
      <trkpt lat="47.82734" lon="1.70919">
        <ele>86</ele>
        <time>2019-01-11T20:35:01Z</time>
      </trkpt>
      <trkpt lat="47.82695" lon="1.70876">
        <ele>86</ele>
        <time>2019-01-11T20:35:02Z</time>
      </trkpt>
      <trkpt lat="47.82666" lon="1.70845">
        <ele>87</ele>
        <time>2019-01-11T20:35:03Z</time>
      </trkpt>
      <trkpt lat="47.82642" lon="1.7082">
        <ele>87</ele>
        <time>2019-01-11T20:35:04Z</time>
      </trkpt>
      <trkpt lat="47.82631" lon="1.70809">
        <ele>87</ele>
        <time>2019-01-11T20:35:05Z</time>
      </trkpt>
      <trkpt lat="47.82621" lon="1.70797">
        <ele>87</ele>
        <time>2019-01-11T20:35:06Z</time>
      </trkpt>
      <trkpt lat="47.82617" lon="1.70787">
        <ele>87</ele>
        <time>2019-01-11T20:35:07Z</time>
      </trkpt>
      <trkpt lat="47.82615" lon="1.7078">
        <ele>87</ele>
        <time>2019-01-11T20:35:08Z</time>
      </trkpt>
      <trkpt lat="47.82612" lon="1.70765">
        <ele>87</ele>
        <time>2019-01-11T20:35:09Z</time>
      </trkpt>
      <trkpt lat="47.8261" lon="1.70756">
        <ele>87</ele>
        <time>2019-01-11T20:35:10Z</time>
      </trkpt>
      <trkpt lat="47.82607" lon="1.70746">
        <ele>87</ele>
        <time>2019-01-11T20:35:11Z</time>
      </trkpt>
      <trkpt lat="47.82604" lon="1.70739">
        <ele>87</ele>
        <time>2019-01-11T20:35:12Z</time>
      </trkpt>
      <trkpt lat="47.82599" lon="1.70732">
        <ele>86</ele>
        <time>2019-01-11T20:35:13Z</time>
      </trkpt>
      <trkpt lat="47.82593" lon="1.70723">
        <ele>86</ele>
        <time>2019-01-11T20:35:14Z</time>
      </trkpt>
      <trkpt lat="47.82583" lon="1.70712">
        <ele>86</ele>
        <time>2019-01-11T20:35:15Z</time>
      </trkpt>
      <trkpt lat="47.82576" lon="1.70708">
        <ele>86</ele>
        <time>2019-01-11T20:35:16Z</time>
      </trkpt>
      <trkpt lat="47.82563" lon="1.70702">
        <ele>86</ele>
        <time>2019-01-11T20:35:17Z</time>
      </trkpt>
      <trkpt lat="47.82553" lon="1.70696">
        <ele>86</ele>
        <time>2019-01-11T20:35:18Z</time>
      </trkpt>
      <trkpt lat="47.82543" lon="1.70689">
        <ele>86</ele>
        <time>2019-01-11T20:35:19Z</time>
      </trkpt>
      <trkpt lat="47.82533" lon="1.70679">
        <ele>86</ele>
        <time>2019-01-11T20:35:20Z</time>
      </trkpt>
      <trkpt lat="47.82522" lon="1.70665">
        <ele>86</ele>
        <time>2019-01-11T20:35:21Z</time>
      </trkpt>
      <trkpt lat="47.82516" lon="1.7066">
        <ele>86</ele>
        <time>2019-01-11T20:35:22Z</time>
      </trkpt>
      <trkpt lat="47.82509" lon="1.70655">
        <ele>86</ele>
        <time>2019-01-11T20:35:23Z</time>
      </trkpt>
      <trkpt lat="47.82497" lon="1.70649">
        <ele>86</ele>
        <time>2019-01-11T20:35:24Z</time>
      </trkpt>
      <trkpt lat="47.82493" lon="1.7064">
        <ele>86</ele>
        <time>2019-01-11T20:35:25Z</time>
      </trkpt>
      <trkpt lat="47.82487" lon="1.70632">
        <ele>86</ele>
        <time>2019-01-11T20:35:26Z</time>
      </trkpt>
      <trkpt lat="47.82481" lon="1.70626">
        <ele>86</ele>
        <time>2019-01-11T20:35:27Z</time>
      </trkpt>
      <trkpt lat="47.82475" lon="1.70621">
        <ele>86</ele>
        <time>2019-01-11T20:35:28Z</time>
      </trkpt>
      <trkpt lat="47.82468" lon="1.70617">
        <ele>86</ele>
        <time>2019-01-11T20:35:29Z</time>
      </trkpt>
      <trkpt lat="47.8245" lon="1.70607">
        <ele>86</ele>
        <time>2019-01-11T20:35:30Z</time>
      </trkpt>
      <trkpt lat="47.82421" lon="1.70588">
        <ele>86</ele>
        <time>2019-01-11T20:35:31Z</time>
      </trkpt>
      <trkpt lat="47.82409" lon="1.70582">
        <ele>86</ele>
        <time>2019-01-11T20:35:32Z</time>
      </trkpt>
      <trkpt lat="47.82374" lon="1.70566">
        <ele>86</ele>
        <time>2019-01-11T20:35:33Z</time>
      </trkpt>
      <trkpt lat="47.82363" lon="1.7056">
        <ele>87</ele>
        <time>2019-01-11T20:35:34Z</time>
      </trkpt>
      <trkpt lat="47.82327" lon="1.70541">
        <ele>87</ele>
        <time>2019-01-11T20:35:35Z</time>
      </trkpt>
      <trkpt lat="47.82317" lon="1.70534">
        <ele>87</ele>
        <time>2019-01-11T20:35:36Z</time>
      </trkpt>
      <trkpt lat="47.82306" lon="1.70525">
        <ele>87</ele>
        <time>2019-01-11T20:35:37Z</time>
      </trkpt>
      <trkpt lat="47.82297" lon="1.70517">
        <ele>87</ele>
        <time>2019-01-11T20:35:38Z</time>
      </trkpt>
      <trkpt lat="47.82276" lon="1.70495">
        <ele>87</ele>
        <time>2019-01-11T20:35:39Z</time>
      </trkpt>
      <trkpt lat="47.82262" lon="1.70482">
        <ele>86</ele>
        <time>2019-01-11T20:35:40Z</time>
      </trkpt>
      <trkpt lat="47.8225" lon="1.70471">
        <ele>85</ele>
        <time>2019-01-11T20:35:41Z</time>
      </trkpt>
      <trkpt lat="47.8222" lon="1.70446">
        <ele>85</ele>
        <time>2019-01-11T20:35:42Z</time>
      </trkpt>
      <trkpt lat="47.8219" lon="1.70414">
        <ele>86</ele>
        <time>2019-01-11T20:35:43Z</time>
      </trkpt>
      <trkpt lat="47.82181" lon="1.704">
        <ele>86</ele>
        <time>2019-01-11T20:35:44Z</time>
      </trkpt>
      <trkpt lat="47.8218" lon="1.70392">
        <ele>86</ele>
        <time>2019-01-11T20:35:45Z</time>
      </trkpt>
      <trkpt lat="47.82205" lon="1.70343">
        <ele>84</ele>
        <time>2019-01-11T20:35:46Z</time>
      </trkpt>
      <trkpt lat="47.82227" lon="1.70299">
        <ele>84</ele>
        <time>2019-01-11T20:35:47Z</time>
      </trkpt>
      <trkpt lat="47.82238" lon="1.70276">
        <ele>84</ele>
        <time>2019-01-11T20:35:48Z</time>
      </trkpt>
      <trkpt lat="47.82267" lon="1.70218">
        <ele>84</ele>
        <time>2019-01-11T20:35:49Z</time>
      </trkpt>
      <trkpt lat="47.82306" lon="1.7014">
        <ele>84</ele>
        <time>2019-01-11T20:35:50Z</time>
      </trkpt>
      <trkpt lat="47.82317" lon="1.70117">
        <ele>84</ele>
        <time>2019-01-11T20:35:51Z</time>
      </trkpt>
      <trkpt lat="47.82339" lon="1.70072">
        <ele>84</ele>
        <time>2019-01-11T20:35:52Z</time>
      </trkpt>
      <trkpt lat="47.8236" lon="1.70027">
        <ele>85</ele>
        <time>2019-01-11T20:35:53Z</time>
      </trkpt>
      <trkpt lat="47.82407" lon="1.69936">
        <ele>90</ele>
        <time>2019-01-11T20:35:54Z</time>
      </trkpt>
      <trkpt lat="47.82441" lon="1.69866">
        <ele>90</ele>
        <time>2019-01-11T20:35:55Z</time>
      </trkpt>
      <trkpt lat="47.82432" lon="1.69842">
        <ele>90</ele>
        <time>2019-01-11T20:35:56Z</time>
      </trkpt>
      <trkpt lat="47.824" lon="1.6978">
        <ele>90</ele>
        <time>2019-01-11T20:35:57Z</time>
      </trkpt>
      <trkpt lat="47.82382" lon="1.69748">
        <ele>90</ele>
        <time>2019-01-11T20:35:58Z</time>
      </trkpt>
      <trkpt lat="47.82386" lon="1.69722">
        <ele>90</ele>
        <time>2019-01-11T20:35:59Z</time>
      </trkpt>
      <trkpt lat="47.82382" lon="1.69717">
        <ele>89</ele>
        <time>2019-01-11T20:36:00Z</time>
      </trkpt>
      <trkpt lat="47.82372" lon="1.69716">
        <ele>89</ele>
        <time>2019-01-11T20:36:01Z</time>
      </trkpt>
      <trkpt lat="47.82329" lon="1.69722">
        <ele>89</ele>
        <time>2019-01-11T20:36:02Z</time>
      </trkpt>
      <trkpt lat="47.82302" lon="1.69723">
        <ele>89</ele>
        <time>2019-01-11T20:36:03Z</time>
      </trkpt>
      <trkpt lat="47.82287" lon="1.6972">
        <ele>89</ele>
        <time>2019-01-11T20:36:04Z</time>
      </trkpt>
      <trkpt lat="47.82228" lon="1.69666">
        <ele>88</ele>
        <time>2019-01-11T20:36:05Z</time>
      </trkpt>
      <trkpt lat="47.82133" lon="1.69587">
        <ele>88</ele>
        <time>2019-01-11T20:36:06Z</time>
      </trkpt>
      <trkpt lat="47.82106" lon="1.69562">
        <ele>88</ele>
        <time>2019-01-11T20:36:07Z</time>
      </trkpt>
      <trkpt lat="47.82082" lon="1.69536">
        <ele>89</ele>
        <time>2019-01-11T20:36:08Z</time>
      </trkpt>
      <trkpt lat="47.82078" lon="1.6953">
        <ele>89</ele>
        <time>2019-01-11T20:36:09Z</time>
      </trkpt>
      <trkpt lat="47.82065" lon="1.69515">
        <ele>89</ele>
        <time>2019-01-11T20:36:10Z</time>
      </trkpt>
      <trkpt lat="47.82016" lon="1.69469">
        <ele>88</ele>
        <time>2019-01-11T20:36:11Z</time>
      </trkpt>
      <trkpt lat="47.81978" lon="1.69434">
        <ele>88</ele>
        <time>2019-01-11T20:36:12Z</time>
      </trkpt>
      <trkpt lat="47.81953" lon="1.69404">
        <ele>88</ele>
        <time>2019-01-11T20:36:13Z</time>
      </trkpt>
      <trkpt lat="47.81911" lon="1.6936">
        <ele>88</ele>
        <time>2019-01-11T20:36:14Z</time>
      </trkpt>
      <trkpt lat="47.81894" lon="1.69347">
        <ele>88</ele>
        <time>2019-01-11T20:36:15Z</time>
      </trkpt>
      <trkpt lat="47.81883" lon="1.6934">
        <ele>88</ele>
        <time>2019-01-11T20:36:16Z</time>
      </trkpt>
      <trkpt lat="47.81833" lon="1.69315">
        <ele>86</ele>
        <time>2019-01-11T20:36:17Z</time>
      </trkpt>
      <trkpt lat="47.81817" lon="1.69301">
        <ele>86</ele>
        <time>2019-01-11T20:36:18Z</time>
      </trkpt>
      <trkpt lat="47.8176" lon="1.69245">
        <ele>85</ele>
        <time>2019-01-11T20:36:19Z</time>
      </trkpt>
      <trkpt lat="47.81742" lon="1.69222">
        <ele>85</ele>
        <time>2019-01-11T20:36:20Z</time>
      </trkpt>
      <trkpt lat="47.81713" lon="1.69189">
        <ele>85</ele>
        <time>2019-01-11T20:36:21Z</time>
      </trkpt>
      <trkpt lat="47.81705" lon="1.69182">
        <ele>85</ele>
        <time>2019-01-11T20:36:22Z</time>
      </trkpt>
      <trkpt lat="47.81688" lon="1.69164">
        <ele>85</ele>
        <time>2019-01-11T20:36:23Z</time>
      </trkpt>
      <trkpt lat="47.81676" lon="1.69146">
        <ele>85</ele>
        <time>2019-01-11T20:36:24Z</time>
      </trkpt>
      <trkpt lat="47.81668" lon="1.69131">
        <ele>85</ele>
        <time>2019-01-11T20:36:25Z</time>
      </trkpt>
      <trkpt lat="47.81656" lon="1.69091">
        <ele>86</ele>
        <time>2019-01-11T20:36:26Z</time>
      </trkpt>
      <trkpt lat="47.8162" lon="1.68984">
        <ele>87</ele>
        <time>2019-01-11T20:36:27Z</time>
      </trkpt>
      <trkpt lat="47.81618" lon="1.68974">
        <ele>87</ele>
        <time>2019-01-11T20:36:28Z</time>
      </trkpt>
      <trkpt lat="47.81618" lon="1.68956">
        <ele>87</ele>
        <time>2019-01-11T20:36:29Z</time>
      </trkpt>
      <trkpt lat="47.81617" lon="1.68947">
        <ele>87</ele>
        <time>2019-01-11T20:36:30Z</time>
      </trkpt>
      <trkpt lat="47.81611" lon="1.68923">
        <ele>87</ele>
        <time>2019-01-11T20:36:31Z</time>
      </trkpt>
      <trkpt lat="47.81598" lon="1.68889">
        <ele>86</ele>
        <time>2019-01-11T20:36:32Z</time>
      </trkpt>
      <trkpt lat="47.81589" lon="1.68871">
        <ele>86</ele>
        <time>2019-01-11T20:36:33Z</time>
      </trkpt>
      <trkpt lat="47.81578" lon="1.6886">
        <ele>86</ele>
        <time>2019-01-11T20:36:34Z</time>
      </trkpt>
      <trkpt lat="47.81553" lon="1.68858">
        <ele>85</ele>
        <time>2019-01-11T20:36:35Z</time>
      </trkpt>
      <trkpt lat="47.81542" lon="1.68851">
        <ele>85</ele>
        <time>2019-01-11T20:36:36Z</time>
      </trkpt>
      <trkpt lat="47.81538" lon="1.68843">
        <ele>85</ele>
        <time>2019-01-11T20:36:37Z</time>
      </trkpt>
      <trkpt lat="47.81539" lon="1.6883">
        <ele>86</ele>
        <time>2019-01-11T20:36:38Z</time>
      </trkpt>
      <trkpt lat="47.81552" lon="1.68813">
        <ele>86</ele>
        <time>2019-01-11T20:36:39Z</time>
      </trkpt>
      <trkpt lat="47.81557" lon="1.68805">
        <ele>87</ele>
        <time>2019-01-11T20:36:40Z</time>
      </trkpt>
      <trkpt lat="47.81562" lon="1.68798">
        <ele>87</ele>
        <time>2019-01-11T20:36:41Z</time>
      </trkpt>
      <trkpt lat="47.81543" lon="1.68772">
        <ele>88</ele>
        <time>2019-01-11T20:36:42Z</time>
      </trkpt>
      <trkpt lat="47.8152" lon="1.68737">
        <ele>88</ele>
        <time>2019-01-11T20:36:43Z</time>
      </trkpt>
      <trkpt lat="47.81489" lon="1.68696">
        <ele>88</ele>
        <time>2019-01-11T20:36:44Z</time>
      </trkpt>
      <trkpt lat="47.81463" lon="1.68658">
        <ele>88</ele>
        <time>2019-01-11T20:36:45Z</time>
      </trkpt>
      <trkpt lat="47.81405" lon="1.68563">
        <ele>88</ele>
        <time>2019-01-11T20:36:46Z</time>
      </trkpt>
      <trkpt lat="47.81382" lon="1.68532">
        <ele>87</ele>
        <time>2019-01-11T20:36:47Z</time>
      </trkpt>
      <trkpt lat="47.81361" lon="1.68508">
        <ele>86</ele>
        <time>2019-01-11T20:36:48Z</time>
      </trkpt>
      <trkpt lat="47.81325" lon="1.68474">
        <ele>86</ele>
        <time>2019-01-11T20:36:49Z</time>
      </trkpt>
      <trkpt lat="47.81299" lon="1.68452">
        <ele>87</ele>
        <time>2019-01-11T20:36:50Z</time>
      </trkpt>
      <trkpt lat="47.8127" lon="1.68433">
        <ele>87</ele>
        <time>2019-01-11T20:36:51Z</time>
      </trkpt>
      <trkpt lat="47.8125" lon="1.68418">
        <ele>87</ele>
        <time>2019-01-11T20:36:52Z</time>
      </trkpt>
      <trkpt lat="47.81229" lon="1.68405">
        <ele>87</ele>
        <time>2019-01-11T20:36:53Z</time>
      </trkpt>
      <trkpt lat="47.81197" lon="1.68389">
        <ele>87</ele>
        <time>2019-01-11T20:36:54Z</time>
      </trkpt>
      <trkpt lat="47.81165" lon="1.68378">
        <ele>86</ele>
        <time>2019-01-11T20:36:55Z</time>
      </trkpt>
      <trkpt lat="47.81145" lon="1.68372">
        <ele>86</ele>
        <time>2019-01-11T20:36:56Z</time>
      </trkpt>
      <trkpt lat="47.81071" lon="1.68347">
        <ele>85</ele>
        <time>2019-01-11T20:36:57Z</time>
      </trkpt>
      <trkpt lat="47.81038" lon="1.6834">
        <ele>85</ele>
        <time>2019-01-11T20:36:58Z</time>
      </trkpt>
      <trkpt lat="47.81002" lon="1.68336">
        <ele>85</ele>
        <time>2019-01-11T20:36:59Z</time>
      </trkpt>
      <trkpt lat="47.80786" lon="1.68328">
        <ele>85</ele>
        <time>2019-01-11T20:37:00Z</time>
      </trkpt>
      <trkpt lat="47.80696" lon="1.68331">
        <ele>85</ele>
        <time>2019-01-11T20:37:01Z</time>
      </trkpt>
      <trkpt lat="47.80666" lon="1.6834">
        <ele>85</ele>
        <time>2019-01-11T20:37:02Z</time>
      </trkpt>
      <trkpt lat="47.80436" lon="1.68405">
        <ele>84</ele>
        <time>2019-01-11T20:37:03Z</time>
      </trkpt>
      <trkpt lat="47.80371" lon="1.68427">
        <ele>84</ele>
        <time>2019-01-11T20:37:04Z</time>
      </trkpt>
      <trkpt lat="47.80364" lon="1.68432">
        <ele>84</ele>
        <time>2019-01-11T20:37:05Z</time>
      </trkpt>
      <trkpt lat="47.80344" lon="1.68449">
        <ele>84</ele>
        <time>2019-01-11T20:37:06Z</time>
      </trkpt>
      <trkpt lat="47.80309" lon="1.68471">
        <ele>84</ele>
        <time>2019-01-11T20:37:07Z</time>
      </trkpt>
      <trkpt lat="47.80276" lon="1.68495">
        <ele>84</ele>
        <time>2019-01-11T20:37:08Z</time>
      </trkpt>
      <trkpt lat="47.80257" lon="1.68507">
        <ele>84</ele>
        <time>2019-01-11T20:37:09Z</time>
      </trkpt>
      <trkpt lat="47.80228" lon="1.68525">
        <ele>84</ele>
        <time>2019-01-11T20:37:10Z</time>
      </trkpt>
      <trkpt lat="47.80133" lon="1.68577">
        <ele>83</ele>
        <time>2019-01-11T20:37:11Z</time>
      </trkpt>
      <trkpt lat="47.80122" lon="1.68583">
        <ele>83</ele>
        <time>2019-01-11T20:37:12Z</time>
      </trkpt>
      <trkpt lat="47.80104" lon="1.68583">
        <ele>83</ele>
        <time>2019-01-11T20:37:13Z</time>
      </trkpt>
      <trkpt lat="47.80098" lon="1.68581">
        <ele>83</ele>
        <time>2019-01-11T20:37:14Z</time>
      </trkpt>
      <trkpt lat="47.8009" lon="1.68576">
        <ele>83</ele>
        <time>2019-01-11T20:37:15Z</time>
      </trkpt>
      <trkpt lat="47.80077" lon="1.68564">
        <ele>83</ele>
        <time>2019-01-11T20:37:16Z</time>
      </trkpt>
      <trkpt lat="47.80071" lon="1.68557">
        <ele>83</ele>
        <time>2019-01-11T20:37:17Z</time>
      </trkpt>
      <trkpt lat="47.80036" lon="1.68529">
        <ele>83</ele>
        <time>2019-01-11T20:37:18Z</time>
      </trkpt>
      <trkpt lat="47.79976" lon="1.68476">
        <ele>83</ele>
        <time>2019-01-11T20:37:19Z</time>
      </trkpt>
      <trkpt lat="47.79934" lon="1.68435">
        <ele>83</ele>
        <time>2019-01-11T20:37:20Z</time>
      </trkpt>
      <trkpt lat="47.79888" lon="1.68399">
        <ele>84</ele>
        <time>2019-01-11T20:37:21Z</time>
      </trkpt>
      <trkpt lat="47.79863" lon="1.68387">
        <ele>84</ele>
        <time>2019-01-11T20:37:22Z</time>
      </trkpt>
      <trkpt lat="47.79842" lon="1.68374">
        <ele>84</ele>
        <time>2019-01-11T20:37:23Z</time>
      </trkpt>
      <trkpt lat="47.79776" lon="1.68352">
        <ele>83</ele>
        <time>2019-01-11T20:37:24Z</time>
      </trkpt>
      <trkpt lat="47.79747" lon="1.68347">
        <ele>82</ele>
        <time>2019-01-11T20:37:25Z</time>
      </trkpt>
      <trkpt lat="47.79732" lon="1.68341">
        <ele>82</ele>
        <time>2019-01-11T20:37:26Z</time>
      </trkpt>
      <trkpt lat="47.79726" lon="1.68335">
        <ele>82</ele>
        <time>2019-01-11T20:37:27Z</time>
      </trkpt>
      <trkpt lat="47.79719" lon="1.68322">
        <ele>82</ele>
        <time>2019-01-11T20:37:28Z</time>
      </trkpt>
      <trkpt lat="47.79713" lon="1.68313">
        <ele>82</ele>
        <time>2019-01-11T20:37:29Z</time>
      </trkpt>
      <trkpt lat="47.79703" lon="1.68305">
        <ele>82</ele>
        <time>2019-01-11T20:37:30Z</time>
      </trkpt>
      <trkpt lat="47.79683" lon="1.68296">
        <ele>82</ele>
        <time>2019-01-11T20:37:31Z</time>
      </trkpt>
      <trkpt lat="47.79663" lon="1.68281">
        <ele>82</ele>
        <time>2019-01-11T20:37:32Z</time>
      </trkpt>
      <trkpt lat="47.79645" lon="1.68264">
        <ele>81</ele>
        <time>2019-01-11T20:37:33Z</time>
      </trkpt>
      <trkpt lat="47.79608" lon="1.6822">
        <ele>81</ele>
        <time>2019-01-11T20:37:34Z</time>
      </trkpt>
      <trkpt lat="47.79592" lon="1.68198">
        <ele>81</ele>
        <time>2019-01-11T20:37:35Z</time>
      </trkpt>
      <trkpt lat="47.79569" lon="1.68176">
        <ele>81</ele>
        <time>2019-01-11T20:37:36Z</time>
      </trkpt>
      <trkpt lat="47.79543" lon="1.68144">
        <ele>82</ele>
        <time>2019-01-11T20:37:37Z</time>
      </trkpt>
      <trkpt lat="47.79533" lon="1.6813">
        <ele>83</ele>
        <time>2019-01-11T20:37:38Z</time>
      </trkpt>
      <trkpt lat="47.79525" lon="1.68121">
        <ele>83</ele>
        <time>2019-01-11T20:37:39Z</time>
      </trkpt>
      <trkpt lat="47.79519" lon="1.68119">
        <ele>83</ele>
        <time>2019-01-11T20:37:40Z</time>
      </trkpt>
      <trkpt lat="47.79505" lon="1.6811">
        <ele>83</ele>
        <time>2019-01-11T20:37:41Z</time>
      </trkpt>
      <trkpt lat="47.79495" lon="1.68095">
        <ele>84</ele>
        <time>2019-01-11T20:37:42Z</time>
      </trkpt>
      <trkpt lat="47.79469" lon="1.6806">
        <ele>84</ele>
        <time>2019-01-11T20:37:43Z</time>
      </trkpt>
      <trkpt lat="47.7944" lon="1.68034">
        <ele>83</ele>
        <time>2019-01-11T20:37:44Z</time>
      </trkpt>
      <trkpt lat="47.7941" lon="1.67996">
        <ele>83</ele>
        <time>2019-01-11T20:37:45Z</time>
      </trkpt>
      <trkpt lat="47.79402" lon="1.67984">
        <ele>83</ele>
        <time>2019-01-11T20:37:46Z</time>
      </trkpt>
      <trkpt lat="47.79377" lon="1.67957">
        <ele>83</ele>
        <time>2019-01-11T20:37:47Z</time>
      </trkpt>
      <trkpt lat="47.79352" lon="1.67933">
        <ele>83</ele>
        <time>2019-01-11T20:37:48Z</time>
      </trkpt>
      <trkpt lat="47.79338" lon="1.6791">
        <ele>83</ele>
        <time>2019-01-11T20:37:49Z</time>
      </trkpt>
      <trkpt lat="47.79317" lon="1.67889">
        <ele>83</ele>
        <time>2019-01-11T20:37:50Z</time>
      </trkpt>
      <trkpt lat="47.7931" lon="1.6788">
        <ele>83</ele>
        <time>2019-01-11T20:37:51Z</time>
      </trkpt>
      <trkpt lat="47.79295" lon="1.67857">
        <ele>84</ele>
        <time>2019-01-11T20:37:52Z</time>
      </trkpt>
      <trkpt lat="47.79278" lon="1.67823">
        <ele>84</ele>
        <time>2019-01-11T20:37:53Z</time>
      </trkpt>
      <trkpt lat="47.79242" lon="1.67761">
        <ele>84</ele>
        <time>2019-01-11T20:37:54Z</time>
      </trkpt>
      <trkpt lat="47.79226" lon="1.67739">
        <ele>83</ele>
        <time>2019-01-11T20:37:55Z</time>
      </trkpt>
      <trkpt lat="47.79209" lon="1.67722">
        <ele>82</ele>
        <time>2019-01-11T20:37:56Z</time>
      </trkpt>
      <trkpt lat="47.79197" lon="1.67696">
        <ele>82</ele>
        <time>2019-01-11T20:37:57Z</time>
      </trkpt>
      <trkpt lat="47.79174" lon="1.67654">
        <ele>84</ele>
        <time>2019-01-11T20:37:58Z</time>
      </trkpt>
      <trkpt lat="47.79147" lon="1.67595">
        <ele>82</ele>
        <time>2019-01-11T20:37:59Z</time>
      </trkpt>
      <trkpt lat="47.79137" lon="1.6757">
        <ele>82</ele>
        <time>2019-01-11T20:38:00Z</time>
      </trkpt>
      <trkpt lat="47.79108" lon="1.67472">
        <ele>84</ele>
        <time>2019-01-11T20:38:01Z</time>
      </trkpt>
      <trkpt lat="47.79095" lon="1.67448">
        <ele>84</ele>
        <time>2019-01-11T20:38:02Z</time>
      </trkpt>
      <trkpt lat="47.79088" lon="1.67429">
        <ele>85</ele>
        <time>2019-01-11T20:38:03Z</time>
      </trkpt>
      <trkpt lat="47.79086" lon="1.67418">
        <ele>85</ele>
        <time>2019-01-11T20:38:04Z</time>
      </trkpt>
      <trkpt lat="47.79085" lon="1.67385">
        <ele>85</ele>
        <time>2019-01-11T20:38:05Z</time>
      </trkpt>
      <trkpt lat="47.79081" lon="1.67363">
        <ele>84</ele>
        <time>2019-01-11T20:38:06Z</time>
      </trkpt>
      <trkpt lat="47.79075" lon="1.67337">
        <ele>84</ele>
        <time>2019-01-11T20:38:07Z</time>
      </trkpt>
      <trkpt lat="47.79073" lon="1.67319">
        <ele>84</ele>
        <time>2019-01-11T20:38:08Z</time>
      </trkpt>
      <trkpt lat="47.79074" lon="1.67267">
        <ele>84</ele>
        <time>2019-01-11T20:38:09Z</time>
      </trkpt>
      <trkpt lat="47.79063" lon="1.67172">
        <ele>84</ele>
        <time>2019-01-11T20:38:10Z</time>
      </trkpt>
      <trkpt lat="47.79064" lon="1.67126">
        <ele>83</ele>
        <time>2019-01-11T20:38:11Z</time>
      </trkpt>
      <trkpt lat="47.79066" lon="1.67112">
        <ele>83</ele>
        <time>2019-01-11T20:38:12Z</time>
      </trkpt>
      <trkpt lat="47.79066" lon="1.67084">
        <ele>82</ele>
        <time>2019-01-11T20:38:13Z</time>
      </trkpt>
      <trkpt lat="47.79069" lon="1.67055">
        <ele>83</ele>
        <time>2019-01-11T20:38:14Z</time>
      </trkpt>
      <trkpt lat="47.79069" lon="1.67045">
        <ele>83</ele>
        <time>2019-01-11T20:38:15Z</time>
      </trkpt>
      <trkpt lat="47.79065" lon="1.67029">
        <ele>83</ele>
        <time>2019-01-11T20:38:16Z</time>
      </trkpt>
      <trkpt lat="47.79068" lon="1.67014">
        <ele>83</ele>
        <time>2019-01-11T20:38:17Z</time>
      </trkpt>
      <trkpt lat="47.79071" lon="1.66956">
        <ele>84</ele>
        <time>2019-01-11T20:38:18Z</time>
      </trkpt>
      <trkpt lat="47.79066" lon="1.66938">
        <ele>85</ele>
        <time>2019-01-11T20:38:19Z</time>
      </trkpt>
      <trkpt lat="47.79065" lon="1.6693">
        <ele>85</ele>
        <time>2019-01-11T20:38:20Z</time>
      </trkpt>
      <trkpt lat="47.79063" lon="1.66922">
        <ele>85</ele>
        <time>2019-01-11T20:38:21Z</time>
      </trkpt>
      <trkpt lat="47.79061" lon="1.66894">
        <ele>85</ele>
        <time>2019-01-11T20:38:22Z</time>
      </trkpt>
      <trkpt lat="47.79064" lon="1.66862">
        <ele>86</ele>
        <time>2019-01-11T20:38:23Z</time>
      </trkpt>
      <trkpt lat="47.79067" lon="1.66844">
        <ele>86</ele>
        <time>2019-01-11T20:38:24Z</time>
      </trkpt>
      <trkpt lat="47.79089" lon="1.66797">
        <ele>86</ele>
        <time>2019-01-11T20:38:25Z</time>
      </trkpt>
      <trkpt lat="47.79092" lon="1.66781">
        <ele>86</ele>
        <time>2019-01-11T20:38:26Z</time>
      </trkpt>
      <trkpt lat="47.79094" lon="1.66743">
        <ele>87</ele>
        <time>2019-01-11T20:38:27Z</time>
      </trkpt>
      <trkpt lat="47.79093" lon="1.66722">
        <ele>87</ele>
        <time>2019-01-11T20:38:28Z</time>
      </trkpt>
      <trkpt lat="47.79099" lon="1.66688">
        <ele>86</ele>
        <time>2019-01-11T20:38:29Z</time>
      </trkpt>
      <trkpt lat="47.79099" lon="1.66674">
        <ele>86</ele>
        <time>2019-01-11T20:38:30Z</time>
      </trkpt>
      <trkpt lat="47.79096" lon="1.66657">
        <ele>86</ele>
        <time>2019-01-11T20:38:31Z</time>
      </trkpt>
      <trkpt lat="47.79092" lon="1.66645">
        <ele>86</ele>
        <time>2019-01-11T20:38:32Z</time>
      </trkpt>
      <trkpt lat="47.79054" lon="1.66581">
        <ele>85</ele>
        <time>2019-01-11T20:38:33Z</time>
      </trkpt>
      <trkpt lat="47.79049" lon="1.66561">
        <ele>84</ele>
        <time>2019-01-11T20:38:34Z</time>
      </trkpt>
      <trkpt lat="47.79037" lon="1.66483">
        <ele>82</ele>
        <time>2019-01-11T20:38:35Z</time>
      </trkpt>
      <trkpt lat="47.79027" lon="1.66431">
        <ele>82</ele>
        <time>2019-01-11T20:38:36Z</time>
      </trkpt>
      <trkpt lat="47.79023" lon="1.66398">
        <ele>82</ele>
        <time>2019-01-11T20:38:37Z</time>
      </trkpt>
      <trkpt lat="47.79016" lon="1.66279">
        <ele>84</ele>
        <time>2019-01-11T20:38:38Z</time>
      </trkpt>
      <trkpt lat="47.79003" lon="1.66152">
        <ele>84</ele>
        <time>2019-01-11T20:38:39Z</time>
      </trkpt>
      <trkpt lat="47.79" lon="1.66128">
        <ele>84</ele>
        <time>2019-01-11T20:38:40Z</time>
      </trkpt>
      <trkpt lat="47.78982" lon="1.66052">
        <ele>82</ele>
        <time>2019-01-11T20:38:41Z</time>
      </trkpt>
      <trkpt lat="47.78971" lon="1.66015">
        <ele>82</ele>
        <time>2019-01-11T20:38:42Z</time>
      </trkpt>
      <trkpt lat="47.78944" lon="1.65931">
        <ele>82</ele>
        <time>2019-01-11T20:38:43Z</time>
      </trkpt>
      <trkpt lat="47.78913" lon="1.658">
        <ele>84</ele>
        <time>2019-01-11T20:38:44Z</time>
      </trkpt>
      <trkpt lat="47.78871" lon="1.65657">
        <ele>84</ele>
        <time>2019-01-11T20:38:45Z</time>
      </trkpt>
      <trkpt lat="47.78871" lon="1.65643">
        <ele>84</ele>
        <time>2019-01-11T20:38:46Z</time>
      </trkpt>
      <trkpt lat="47.78874" lon="1.65624">
        <ele>85</ele>
        <time>2019-01-11T20:38:47Z</time>
      </trkpt>
      <trkpt lat="47.78881" lon="1.65591">
        <ele>85</ele>
        <time>2019-01-11T20:38:48Z</time>
      </trkpt>
      <trkpt lat="47.78885" lon="1.65582">
        <ele>86</ele>
        <time>2019-01-11T20:38:49Z</time>
      </trkpt>
      <trkpt lat="47.78898" lon="1.65569">
        <ele>86</ele>
        <time>2019-01-11T20:38:50Z</time>
      </trkpt>
      <trkpt lat="47.78919" lon="1.65552">
        <ele>85</ele>
        <time>2019-01-11T20:38:51Z</time>
      </trkpt>
      <trkpt lat="47.78908" lon="1.65529">
        <ele>85</ele>
        <time>2019-01-11T20:38:52Z</time>
      </trkpt>
      <trkpt lat="47.78884" lon="1.65475">
        <ele>84</ele>
        <time>2019-01-11T20:38:53Z</time>
      </trkpt>
      <trkpt lat="47.78877" lon="1.65452">
        <ele>83</ele>
        <time>2019-01-11T20:38:54Z</time>
      </trkpt>
      <trkpt lat="47.78871" lon="1.65425">
        <ele>82</ele>
        <time>2019-01-11T20:38:55Z</time>
      </trkpt>
      <trkpt lat="47.78865" lon="1.65388">
        <ele>81</ele>
        <time>2019-01-11T20:38:56Z</time>
      </trkpt>
      <trkpt lat="47.7886" lon="1.65364">
        <ele>81</ele>
        <time>2019-01-11T20:38:57Z</time>
      </trkpt>
      <trkpt lat="47.78848" lon="1.65323">
        <ele>81</ele>
        <time>2019-01-11T20:38:58Z</time>
      </trkpt>
      <trkpt lat="47.78811" lon="1.65225">
        <ele>80</ele>
        <time>2019-01-11T20:38:59Z</time>
      </trkpt>
      <trkpt lat="47.78795" lon="1.65189">
        <ele>81</ele>
        <time>2019-01-11T20:39:00Z</time>
      </trkpt>
      <trkpt lat="47.78772" lon="1.65141">
        <ele>81</ele>
        <time>2019-01-11T20:39:01Z</time>
      </trkpt>
      <trkpt lat="47.78766" lon="1.65122">
        <ele>81</ele>
        <time>2019-01-11T20:39:02Z</time>
      </trkpt>
      <trkpt lat="47.78763" lon="1.6509">
        <ele>81</ele>
        <time>2019-01-11T20:39:03Z</time>
      </trkpt>
      <trkpt lat="47.78763" lon="1.65055">
        <ele>81</ele>
        <time>2019-01-11T20:39:04Z</time>
      </trkpt>
      <trkpt lat="47.7876" lon="1.65033">
        <ele>82</ele>
        <time>2019-01-11T20:39:05Z</time>
      </trkpt>
      <trkpt lat="47.78753" lon="1.65014">
        <ele>83</ele>
        <time>2019-01-11T20:39:06Z</time>
      </trkpt>
      <trkpt lat="47.78735" lon="1.64982">
        <ele>83</ele>
        <time>2019-01-11T20:39:07Z</time>
      </trkpt>
      <trkpt lat="47.78701" lon="1.64932">
        <ele>83</ele>
        <time>2019-01-11T20:39:08Z</time>
      </trkpt>
      <trkpt lat="47.78683" lon="1.64903">
        <ele>82</ele>
        <time>2019-01-11T20:39:09Z</time>
      </trkpt>
      <trkpt lat="47.78656" lon="1.64833">
        <ele>82</ele>
        <time>2019-01-11T20:39:10Z</time>
      </trkpt>
      <trkpt lat="47.78636" lon="1.64796">
        <ele>82</ele>
        <time>2019-01-11T20:39:11Z</time>
      </trkpt>
      <trkpt lat="47.78608" lon="1.64753">
        <ele>83</ele>
        <time>2019-01-11T20:39:12Z</time>
      </trkpt>
      <trkpt lat="47.7859" lon="1.64731">
        <ele>83</ele>
        <time>2019-01-11T20:39:13Z</time>
      </trkpt>
      <trkpt lat="47.78585" lon="1.64727">
        <ele>83</ele>
        <time>2019-01-11T20:39:14Z</time>
      </trkpt>
      <trkpt lat="47.78563" lon="1.64715">
        <ele>83</ele>
        <time>2019-01-11T20:39:15Z</time>
      </trkpt>
      <trkpt lat="47.78539" lon="1.64709">
        <ele>83</ele>
        <time>2019-01-11T20:39:16Z</time>
      </trkpt>
      <trkpt lat="47.78522" lon="1.64707">
        <ele>82</ele>
        <time>2019-01-11T20:39:17Z</time>
      </trkpt>
      <trkpt lat="47.78518" lon="1.64703">
        <ele>82</ele>
        <time>2019-01-11T20:39:18Z</time>
      </trkpt>
      <trkpt lat="47.7851" lon="1.64697">
        <ele>82</ele>
        <time>2019-01-11T20:39:19Z</time>
      </trkpt>
      <trkpt lat="47.78481" lon="1.64662">
        <ele>80</ele>
        <time>2019-01-11T20:39:20Z</time>
      </trkpt>
      <trkpt lat="47.78454" lon="1.64624">
        <ele>82</ele>
        <time>2019-01-11T20:39:21Z</time>
      </trkpt>
      <trkpt lat="47.78405" lon="1.64544">
        <ele>82</ele>
        <time>2019-01-11T20:39:22Z</time>
      </trkpt>
      <trkpt lat="47.78384" lon="1.64511">
        <ele>81</ele>
        <time>2019-01-11T20:39:23Z</time>
      </trkpt>
      <trkpt lat="47.78363" lon="1.64484">
        <ele>81</ele>
        <time>2019-01-11T20:39:24Z</time>
      </trkpt>
      <trkpt lat="47.78345" lon="1.64466">
        <ele>81</ele>
        <time>2019-01-11T20:39:25Z</time>
      </trkpt>
      <trkpt lat="47.78292" lon="1.64428">
        <ele>80</ele>
        <time>2019-01-11T20:39:26Z</time>
      </trkpt>
      <trkpt lat="47.7827" lon="1.64408">
        <ele>80</ele>
        <time>2019-01-11T20:39:27Z</time>
      </trkpt>
      <trkpt lat="47.78216" lon="1.64354">
        <ele>80</ele>
        <time>2019-01-11T20:39:28Z</time>
      </trkpt>
      <trkpt lat="47.78193" lon="1.64327">
        <ele>80</ele>
        <time>2019-01-11T20:39:29Z</time>
      </trkpt>
      <trkpt lat="47.78155" lon="1.64263">
        <ele>80</ele>
        <time>2019-01-11T20:39:30Z</time>
      </trkpt>
      <trkpt lat="47.78135" lon="1.64234">
        <ele>80</ele>
        <time>2019-01-11T20:39:31Z</time>
      </trkpt>
      <trkpt lat="47.78084" lon="1.64177">
        <ele>80</ele>
        <time>2019-01-11T20:39:32Z</time>
      </trkpt>
      <trkpt lat="47.78066" lon="1.64151">
        <ele>80</ele>
        <time>2019-01-11T20:39:33Z</time>
      </trkpt>
      <trkpt lat="47.78047" lon="1.6411">
        <ele>80</ele>
        <time>2019-01-11T20:39:34Z</time>
      </trkpt>
      <trkpt lat="47.78006" lon="1.63994">
        <ele>80</ele>
        <time>2019-01-11T20:39:35Z</time>
      </trkpt>
      <trkpt lat="47.77958" lon="1.63852">
        <ele>82</ele>
        <time>2019-01-11T20:39:36Z</time>
      </trkpt>
      <trkpt lat="47.77934" lon="1.63778">
        <ele>84</ele>
        <time>2019-01-11T20:39:37Z</time>
      </trkpt>
      <trkpt lat="47.7793" lon="1.63766">
        <ele>85</ele>
        <time>2019-01-11T20:39:38Z</time>
      </trkpt>
      <trkpt lat="47.77925" lon="1.63758">
        <ele>86</ele>
        <time>2019-01-11T20:39:39Z</time>
      </trkpt>
      <trkpt lat="47.7792" lon="1.63749">
        <ele>86</ele>
        <time>2019-01-11T20:39:40Z</time>
      </trkpt>
      <trkpt lat="47.77911" lon="1.63726">
        <ele>86</ele>
        <time>2019-01-11T20:39:41Z</time>
      </trkpt>
      <trkpt lat="47.77907" lon="1.63711">
        <ele>86</ele>
        <time>2019-01-11T20:39:42Z</time>
      </trkpt>
      <trkpt lat="47.77894" lon="1.63689">
        <ele>86</ele>
        <time>2019-01-11T20:39:43Z</time>
      </trkpt>
      <trkpt lat="47.77879" lon="1.63644">
        <ele>87</ele>
        <time>2019-01-11T20:39:44Z</time>
      </trkpt>
      <trkpt lat="47.77895" lon="1.63597">
        <ele>89</ele>
        <time>2019-01-11T20:39:45Z</time>
      </trkpt>
      <trkpt lat="47.77852" lon="1.63558">
        <ele>88</ele>
        <time>2019-01-11T20:39:46Z</time>
      </trkpt>
      <trkpt lat="47.77803" lon="1.63517">
        <ele>88</ele>
        <time>2019-01-11T20:39:47Z</time>
      </trkpt>
      <trkpt lat="47.77767" lon="1.6349">
        <ele>88</ele>
        <time>2019-01-11T20:39:48Z</time>
      </trkpt>
      <trkpt lat="47.77766" lon="1.63478">
        <ele>89</ele>
        <time>2019-01-11T20:39:49Z</time>
      </trkpt>
      <trkpt lat="47.77766" lon="1.63478">
        <ele>89</ele>
        <time>2019-01-11T20:39:50Z</time>
      </trkpt>
      <trkpt lat="47.77739" lon="1.63471">
        <ele>89</ele>
        <time>2019-01-11T20:39:51Z</time>
      </trkpt>
      <trkpt lat="47.77651" lon="1.63427">
        <ele>91</ele>
        <time>2019-01-11T20:39:52Z</time>
      </trkpt>
      <trkpt lat="47.77651" lon="1.63427">
        <ele>91</ele>
        <time>2019-01-11T20:39:52Z</time>
      </trkpt>
      <trkpt lat="47.77504" lon="1.63352">
        <ele>90</ele>
        <time>2019-01-11T20:39:53Z</time>
      </trkpt>
      <trkpt lat="47.77447" lon="1.63322">
        <ele>88</ele>
        <time>2019-01-11T20:39:54Z</time>
      </trkpt>
      <trkpt lat="47.7744" lon="1.63317">
        <ele>89</ele>
        <time>2019-01-11T20:39:55Z</time>
      </trkpt>
      <trkpt lat="47.77433" lon="1.63315">
        <ele>88</ele>
        <time>2019-01-11T20:39:56Z</time>
      </trkpt>
      <trkpt lat="47.7743" lon="1.63307">
        <ele>89</ele>
        <time>2019-01-11T20:39:57Z</time>
      </trkpt>
      <trkpt lat="47.77423" lon="1.63298">
        <ele>89</ele>
        <time>2019-01-11T20:39:58Z</time>
      </trkpt>
      <trkpt lat="47.77418" lon="1.63289">
        <ele>89</ele>
        <time>2019-01-11T20:39:59Z</time>
      </trkpt>
      <trkpt lat="47.77412" lon="1.6328">
        <ele>89</ele>
        <time>2019-01-11T20:40:00Z</time>
      </trkpt>
      <trkpt lat="47.77405" lon="1.63273">
        <ele>89</ele>
        <time>2019-01-11T20:40:01Z</time>
      </trkpt>
      <trkpt lat="47.77397" lon="1.63268">
        <ele>89</ele>
        <time>2019-01-11T20:40:02Z</time>
      </trkpt>
      <trkpt lat="47.77389" lon="1.63261">
        <ele>89</ele>
        <time>2019-01-11T20:40:03Z</time>
      </trkpt>
      <trkpt lat="47.77382" lon="1.63254">
        <ele>90</ele>
        <time>2019-01-11T20:40:04Z</time>
      </trkpt>
      <trkpt lat="47.77379" lon="1.63246">
        <ele>90</ele>
        <time>2019-01-11T20:40:05Z</time>
      </trkpt>
      <trkpt lat="47.77337" lon="1.63233">
        <ele>90</ele>
        <time>2019-01-11T20:40:06Z</time>
      </trkpt>
      <trkpt lat="47.77332" lon="1.6323">
        <ele>90</ele>
        <time>2019-01-11T20:40:07Z</time>
      </trkpt>
      <trkpt lat="47.77256" lon="1.63209">
        <ele>88</ele>
        <time>2019-01-11T20:40:08Z</time>
      </trkpt>
      <trkpt lat="47.77244" lon="1.63204">
        <ele>88</ele>
        <time>2019-01-11T20:40:09Z</time>
      </trkpt>
      <trkpt lat="47.7699" lon="1.63067">
        <ele>85</ele>
        <time>2019-01-11T20:40:10Z</time>
      </trkpt>
      <trkpt lat="47.76871" lon="1.63">
        <ele>88</ele>
        <time>2019-01-11T20:40:11Z</time>
      </trkpt>
      <trkpt lat="47.76849" lon="1.62987">
        <ele>88</ele>
        <time>2019-01-11T20:40:12Z</time>
      </trkpt>
      <trkpt lat="47.76821" lon="1.62963">
        <ele>88</ele>
        <time>2019-01-11T20:40:13Z</time>
      </trkpt>
      <trkpt lat="47.76799" lon="1.62947">
        <ele>87</ele>
        <time>2019-01-11T20:40:14Z</time>
      </trkpt>
      <trkpt lat="47.76754" lon="1.62924">
        <ele>84</ele>
        <time>2019-01-11T20:40:15Z</time>
      </trkpt>
      <trkpt lat="47.76683" lon="1.62875">
        <ele>85</ele>
        <time>2019-01-11T20:40:16Z</time>
      </trkpt>
      <trkpt lat="47.76662" lon="1.62855">
        <ele>84</ele>
        <time>2019-01-11T20:40:17Z</time>
      </trkpt>
      <trkpt lat="47.7664" lon="1.62837">
        <ele>84</ele>
        <time>2019-01-11T20:40:18Z</time>
      </trkpt>
      <trkpt lat="47.76608" lon="1.62819">
        <ele>84</ele>
        <time>2019-01-11T20:40:19Z</time>
      </trkpt>
      <trkpt lat="47.76515" lon="1.62766">
        <ele>83</ele>
        <time>2019-01-11T20:40:20Z</time>
      </trkpt>
      <trkpt lat="47.76374" lon="1.62697">
        <ele>82</ele>
        <time>2019-01-11T20:40:21Z</time>
      </trkpt>
      <trkpt lat="47.76368" lon="1.62687">
        <ele>82</ele>
        <time>2019-01-11T20:40:22Z</time>
      </trkpt>
      <trkpt lat="47.76351" lon="1.62632">
        <ele>83</ele>
        <time>2019-01-11T20:40:23Z</time>
      </trkpt>
      <trkpt lat="47.76342" lon="1.62616">
        <ele>83</ele>
        <time>2019-01-11T20:40:24Z</time>
      </trkpt>
      <trkpt lat="47.76314" lon="1.62592">
        <ele>83</ele>
        <time>2019-01-11T20:40:25Z</time>
      </trkpt>
      <trkpt lat="47.76146" lon="1.62459">
        <ele>82</ele>
        <time>2019-01-11T20:40:26Z</time>
      </trkpt>
      <trkpt lat="47.76138" lon="1.62447">
        <ele>82</ele>
        <time>2019-01-11T20:40:27Z</time>
      </trkpt>
      <trkpt lat="47.7613" lon="1.62466">
        <ele>82</ele>
        <time>2019-01-11T20:40:28Z</time>
      </trkpt>
      <trkpt lat="47.76107" lon="1.6253">
        <ele>82</ele>
        <time>2019-01-11T20:40:29Z</time>
      </trkpt>
      <trkpt lat="47.76094" lon="1.62585">
        <ele>83</ele>
        <time>2019-01-11T20:40:30Z</time>
      </trkpt>
      <trkpt lat="47.76033" lon="1.6255">
        <ele>82</ele>
        <time>2019-01-11T20:40:31Z</time>
      </trkpt>
      <trkpt lat="47.76019" lon="1.62544">
        <ele>81</ele>
        <time>2019-01-11T20:40:32Z</time>
      </trkpt>
      <trkpt lat="47.75932" lon="1.62491">
        <ele>81</ele>
        <time>2019-01-11T20:40:33Z</time>
      </trkpt>
      <trkpt lat="47.75927" lon="1.62486">
        <ele>81</ele>
        <time>2019-01-11T20:40:34Z</time>
      </trkpt>
      <trkpt lat="47.75902" lon="1.6247">
        <ele>81</ele>
        <time>2019-01-11T20:40:35Z</time>
      </trkpt>
      <trkpt lat="47.75797" lon="1.62408">
        <ele>84</ele>
        <time>2019-01-11T20:40:36Z</time>
      </trkpt>
      <trkpt lat="47.75775" lon="1.62401">
        <ele>85</ele>
        <time>2019-01-11T20:40:37Z</time>
      </trkpt>
      <trkpt lat="47.75751" lon="1.62396">
        <ele>85</ele>
        <time>2019-01-11T20:40:38Z</time>
      </trkpt>
      <trkpt lat="47.75658" lon="1.62359">
        <ele>80</ele>
        <time>2019-01-11T20:40:39Z</time>
      </trkpt>
      <trkpt lat="47.75594" lon="1.62337">
        <ele>82</ele>
        <time>2019-01-11T20:40:40Z</time>
      </trkpt>
      <trkpt lat="47.75557" lon="1.62315">
        <ele>82</ele>
        <time>2019-01-11T20:40:41Z</time>
      </trkpt>
      <trkpt lat="47.75465" lon="1.62281">
        <ele>81</ele>
        <time>2019-01-11T20:40:42Z</time>
      </trkpt>
      <trkpt lat="47.75459" lon="1.6228">
        <ele>81</ele>
        <time>2019-01-11T20:40:43Z</time>
      </trkpt>
      <trkpt lat="47.75391" lon="1.62287">
        <ele>80</ele>
        <time>2019-01-11T20:40:44Z</time>
      </trkpt>
      <trkpt lat="47.75376" lon="1.62285">
        <ele>80</ele>
        <time>2019-01-11T20:40:45Z</time>
      </trkpt>
      <trkpt lat="47.75365" lon="1.62281">
        <ele>80</ele>
        <time>2019-01-11T20:40:46Z</time>
      </trkpt>
      <trkpt lat="47.75344" lon="1.62272">
        <ele>80</ele>
        <time>2019-01-11T20:40:47Z</time>
      </trkpt>
      <trkpt lat="47.75316" lon="1.62257">
        <ele>80</ele>
        <time>2019-01-11T20:40:48Z</time>
      </trkpt>
      <trkpt lat="47.75257" lon="1.62219">
        <ele>81</ele>
        <time>2019-01-11T20:40:49Z</time>
      </trkpt>
      <trkpt lat="47.75208" lon="1.62196">
        <ele>81</ele>
        <time>2019-01-11T20:40:50Z</time>
      </trkpt>
      <trkpt lat="47.75182" lon="1.62182">
        <ele>81</ele>
        <time>2019-01-11T20:40:51Z</time>
      </trkpt>
      <trkpt lat="47.75145" lon="1.6217">
        <ele>81</ele>
        <time>2019-01-11T20:40:52Z</time>
      </trkpt>
      <trkpt lat="47.75131" lon="1.62166">
        <ele>81</ele>
        <time>2019-01-11T20:40:53Z</time>
      </trkpt>
      <trkpt lat="47.75074" lon="1.62163">
        <ele>82</ele>
        <time>2019-01-11T20:40:54Z</time>
      </trkpt>
      <trkpt lat="47.74991" lon="1.6217">
        <ele>82</ele>
        <time>2019-01-11T20:40:55Z</time>
      </trkpt>
      <trkpt lat="47.74842" lon="1.6217">
        <ele>83</ele>
        <time>2019-01-11T20:40:56Z</time>
      </trkpt>
      <trkpt lat="47.74731" lon="1.62137">
        <ele>80</ele>
        <time>2019-01-11T20:40:57Z</time>
      </trkpt>
      <trkpt lat="47.74697" lon="1.62125">
        <ele>81</ele>
        <time>2019-01-11T20:40:58Z</time>
      </trkpt>
      <trkpt lat="47.7467" lon="1.62118">
        <ele>81</ele>
        <time>2019-01-11T20:40:59Z</time>
      </trkpt>
      <trkpt lat="47.74649" lon="1.62114">
        <ele>81</ele>
        <time>2019-01-11T20:41:00Z</time>
      </trkpt>
      <trkpt lat="47.74603" lon="1.62113">
        <ele>80</ele>
        <time>2019-01-11T20:41:01Z</time>
      </trkpt>
      <trkpt lat="47.7459" lon="1.6211">
        <ele>80</ele>
        <time>2019-01-11T20:41:02Z</time>
      </trkpt>
      <trkpt lat="47.74572" lon="1.62101">
        <ele>80</ele>
        <time>2019-01-11T20:41:03Z</time>
      </trkpt>
      <trkpt lat="47.74538" lon="1.62076">
        <ele>80</ele>
        <time>2019-01-11T20:41:04Z</time>
      </trkpt>
      <trkpt lat="47.74508" lon="1.62052">
        <ele>79</ele>
        <time>2019-01-11T20:41:05Z</time>
      </trkpt>
      <trkpt lat="47.74414" lon="1.61966">
        <ele>79</ele>
        <time>2019-01-11T20:41:06Z</time>
      </trkpt>
      <trkpt lat="47.74327" lon="1.61893">
        <ele>78</ele>
        <time>2019-01-11T20:41:07Z</time>
      </trkpt>
      <trkpt lat="47.7424" lon="1.61825">
        <ele>81</ele>
        <time>2019-01-11T20:41:08Z</time>
      </trkpt>
      <trkpt lat="47.74202" lon="1.61791">
        <ele>79</ele>
        <time>2019-01-11T20:41:09Z</time>
      </trkpt>
      <trkpt lat="47.74186" lon="1.61773">
        <ele>79</ele>
        <time>2019-01-11T20:41:10Z</time>
      </trkpt>
      <trkpt lat="47.74131" lon="1.61706">
        <ele>79</ele>
        <time>2019-01-11T20:41:11Z</time>
      </trkpt>
      <trkpt lat="47.7407" lon="1.61643">
        <ele>80</ele>
        <time>2019-01-11T20:41:12Z</time>
      </trkpt>
      <trkpt lat="47.74062" lon="1.61633">
        <ele>80</ele>
        <time>2019-01-11T20:41:13Z</time>
      </trkpt>
      <trkpt lat="47.74053" lon="1.61623">
        <ele>80</ele>
        <time>2019-01-11T20:41:14Z</time>
      </trkpt>
      <trkpt lat="47.74037" lon="1.61606">
        <ele>81</ele>
        <time>2019-01-11T20:41:15Z</time>
      </trkpt>
      <trkpt lat="47.74007" lon="1.61567">
        <ele>81</ele>
        <time>2019-01-11T20:41:16Z</time>
      </trkpt>
      <trkpt lat="47.73974" lon="1.61531">
        <ele>80</ele>
        <time>2019-01-11T20:41:17Z</time>
      </trkpt>
      <trkpt lat="47.73951" lon="1.61498">
        <ele>80</ele>
        <time>2019-01-11T20:41:18Z</time>
      </trkpt>
      <trkpt lat="47.73929" lon="1.61457">
        <ele>81</ele>
        <time>2019-01-11T20:41:19Z</time>
      </trkpt>
      <trkpt lat="47.73894" lon="1.61399">
        <ele>82</ele>
        <time>2019-01-11T20:41:20Z</time>
      </trkpt>
      <trkpt lat="47.73876" lon="1.61366">
        <ele>82</ele>
        <time>2019-01-11T20:41:21Z</time>
      </trkpt>
      <trkpt lat="47.73856" lon="1.61336">
        <ele>81</ele>
        <time>2019-01-11T20:41:22Z</time>
      </trkpt>
      <trkpt lat="47.73844" lon="1.61326">
        <ele>81</ele>
        <time>2019-01-11T20:41:23Z</time>
      </trkpt>
      <trkpt lat="47.73834" lon="1.61321">
        <ele>81</ele>
        <time>2019-01-11T20:41:24Z</time>
      </trkpt>
      <trkpt lat="47.73824" lon="1.61318">
        <ele>81</ele>
        <time>2019-01-11T20:41:25Z</time>
      </trkpt>
      <trkpt lat="47.73816" lon="1.61311">
        <ele>80</ele>
        <time>2019-01-11T20:41:26Z</time>
      </trkpt>
      <trkpt lat="47.73781" lon="1.61261">
        <ele>82</ele>
        <time>2019-01-11T20:41:27Z</time>
      </trkpt>
      <trkpt lat="47.73761" lon="1.61229">
        <ele>82</ele>
        <time>2019-01-11T20:41:28Z</time>
      </trkpt>
      <trkpt lat="47.73711" lon="1.61139">
        <ele>78</ele>
        <time>2019-01-11T20:41:29Z</time>
      </trkpt>
      <trkpt lat="47.73696" lon="1.61107">
        <ele>78</ele>
        <time>2019-01-11T20:41:30Z</time>
      </trkpt>
      <trkpt lat="47.73684" lon="1.61072">
        <ele>78</ele>
        <time>2019-01-11T20:41:31Z</time>
      </trkpt>
      <trkpt lat="47.73675" lon="1.61056">
        <ele>79</ele>
        <time>2019-01-11T20:41:32Z</time>
      </trkpt>
      <trkpt lat="47.73667" lon="1.61039">
        <ele>79</ele>
        <time>2019-01-11T20:41:33Z</time>
      </trkpt>
      <trkpt lat="47.7365" lon="1.60996">
        <ele>80</ele>
        <time>2019-01-11T20:41:34Z</time>
      </trkpt>
      <trkpt lat="47.73642" lon="1.60967">
        <ele>80</ele>
        <time>2019-01-11T20:41:35Z</time>
      </trkpt>
      <trkpt lat="47.73631" lon="1.60921">
        <ele>81</ele>
        <time>2019-01-11T20:41:36Z</time>
      </trkpt>
      <trkpt lat="47.73628" lon="1.60904">
        <ele>81</ele>
        <time>2019-01-11T20:41:37Z</time>
      </trkpt>
      <trkpt lat="47.73627" lon="1.60886">
        <ele>81</ele>
        <time>2019-01-11T20:41:38Z</time>
      </trkpt>
      <trkpt lat="47.73627" lon="1.6085">
        <ele>80</ele>
        <time>2019-01-11T20:41:39Z</time>
      </trkpt>
      <trkpt lat="47.73625" lon="1.60832">
        <ele>80</ele>
        <time>2019-01-11T20:41:40Z</time>
      </trkpt>
      <trkpt lat="47.7362" lon="1.60812">
        <ele>80</ele>
        <time>2019-01-11T20:41:41Z</time>
      </trkpt>
      <trkpt lat="47.73606" lon="1.60786">
        <ele>80</ele>
        <time>2019-01-11T20:41:42Z</time>
      </trkpt>
      <trkpt lat="47.73587" lon="1.60766">
        <ele>80</ele>
        <time>2019-01-11T20:41:43Z</time>
      </trkpt>
      <trkpt lat="47.73555" lon="1.60739">
        <ele>80</ele>
        <time>2019-01-11T20:41:44Z</time>
      </trkpt>
      <trkpt lat="47.73508" lon="1.60705">
        <ele>80</ele>
        <time>2019-01-11T20:41:45Z</time>
      </trkpt>
      <trkpt lat="47.73491" lon="1.60689">
        <ele>79</ele>
        <time>2019-01-11T20:41:46Z</time>
      </trkpt>
      <trkpt lat="47.73465" lon="1.60653">
        <ele>78</ele>
        <time>2019-01-11T20:41:47Z</time>
      </trkpt>
      <trkpt lat="47.73456" lon="1.60636">
        <ele>78</ele>
        <time>2019-01-11T20:41:48Z</time>
      </trkpt>
      <trkpt lat="47.73447" lon="1.60603">
        <ele>77</ele>
        <time>2019-01-11T20:41:49Z</time>
      </trkpt>
      <trkpt lat="47.7343" lon="1.60549">
        <ele>76</ele>
        <time>2019-01-11T20:41:50Z</time>
      </trkpt>
      <trkpt lat="47.73425" lon="1.60526">
        <ele>77</ele>
        <time>2019-01-11T20:41:51Z</time>
      </trkpt>
      <trkpt lat="47.73422" lon="1.60503">
        <ele>77</ele>
        <time>2019-01-11T20:41:52Z</time>
      </trkpt>
      <trkpt lat="47.73421" lon="1.60465">
        <ele>77</ele>
        <time>2019-01-11T20:41:53Z</time>
      </trkpt>
      <trkpt lat="47.73416" lon="1.60428">
        <ele>78</ele>
        <time>2019-01-11T20:41:54Z</time>
      </trkpt>
      <trkpt lat="47.73409" lon="1.60389">
        <ele>78</ele>
        <time>2019-01-11T20:41:55Z</time>
      </trkpt>
      <trkpt lat="47.73404" lon="1.60372">
        <ele>79</ele>
        <time>2019-01-11T20:41:56Z</time>
      </trkpt>
      <trkpt lat="47.7339" lon="1.60325">
        <ele>79</ele>
        <time>2019-01-11T20:41:57Z</time>
      </trkpt>
      <trkpt lat="47.73363" lon="1.60256">
        <ele>78</ele>
        <time>2019-01-11T20:41:58Z</time>
      </trkpt>
      <trkpt lat="47.73339" lon="1.60202">
        <ele>79</ele>
        <time>2019-01-11T20:41:59Z</time>
      </trkpt>
      <trkpt lat="47.73328" lon="1.60158">
        <ele>79</ele>
        <time>2019-01-11T20:42:00Z</time>
      </trkpt>
      <trkpt lat="47.73322" lon="1.6014">
        <ele>79</ele>
        <time>2019-01-11T20:42:01Z</time>
      </trkpt>
      <trkpt lat="47.73314" lon="1.60119">
        <ele>80</ele>
        <time>2019-01-11T20:42:02Z</time>
      </trkpt>
      <trkpt lat="47.73305" lon="1.601">
        <ele>81</ele>
        <time>2019-01-11T20:42:03Z</time>
      </trkpt>
      <trkpt lat="47.73273" lon="1.6005">
        <ele>82</ele>
        <time>2019-01-11T20:42:04Z</time>
      </trkpt>
      <trkpt lat="47.73268" lon="1.60038">
        <ele>83</ele>
        <time>2019-01-11T20:42:05Z</time>
      </trkpt>
      <trkpt lat="47.7324" lon="1.59993">
        <ele>83</ele>
        <time>2019-01-11T20:42:06Z</time>
      </trkpt>
      <trkpt lat="47.73233" lon="1.59978">
        <ele>82</ele>
        <time>2019-01-11T20:42:07Z</time>
      </trkpt>
      <trkpt lat="47.7323" lon="1.59967">
        <ele>81</ele>
        <time>2019-01-11T20:42:08Z</time>
      </trkpt>
      <trkpt lat="47.73227" lon="1.5995">
        <ele>81</ele>
        <time>2019-01-11T20:42:09Z</time>
      </trkpt>
      <trkpt lat="47.73224" lon="1.59927">
        <ele>80</ele>
        <time>2019-01-11T20:42:10Z</time>
      </trkpt>
      <trkpt lat="47.73216" lon="1.59896">
        <ele>80</ele>
        <time>2019-01-11T20:42:11Z</time>
      </trkpt>
      <trkpt lat="47.73193" lon="1.59822">
        <ele>78</ele>
        <time>2019-01-11T20:42:12Z</time>
      </trkpt>
      <trkpt lat="47.73178" lon="1.59773">
        <ele>77</ele>
        <time>2019-01-11T20:42:13Z</time>
      </trkpt>
      <trkpt lat="47.73157" lon="1.59691">
        <ele>77</ele>
        <time>2019-01-11T20:42:14Z</time>
      </trkpt>
      <trkpt lat="47.73137" lon="1.59624">
        <ele>78</ele>
        <time>2019-01-11T20:42:15Z</time>
      </trkpt>
      <trkpt lat="47.72991" lon="1.59092">
        <ele>80</ele>
        <time>2019-01-11T20:42:16Z</time>
      </trkpt>
      <trkpt lat="47.72988" lon="1.5904">
        <ele>80</ele>
        <time>2019-01-11T20:42:17Z</time>
      </trkpt>
      <trkpt lat="47.72987" lon="1.58923">
        <ele>79</ele>
        <time>2019-01-11T20:42:18Z</time>
      </trkpt>
      <trkpt lat="47.72986" lon="1.58905">
        <ele>79</ele>
        <time>2019-01-11T20:42:19Z</time>
      </trkpt>
      <trkpt lat="47.72984" lon="1.5889">
        <ele>79</ele>
        <time>2019-01-11T20:42:20Z</time>
      </trkpt>
      <trkpt lat="47.72984" lon="1.58855">
        <ele>78</ele>
        <time>2019-01-11T20:42:21Z</time>
      </trkpt>
      <trkpt lat="47.73009" lon="1.58832">
        <ele>78</ele>
        <time>2019-01-11T20:42:22Z</time>
      </trkpt>
      <trkpt lat="47.73061" lon="1.58778">
        <ele>77</ele>
        <time>2019-01-11T20:42:23Z</time>
      </trkpt>
      <trkpt lat="47.73079" lon="1.58761">
        <ele>77</ele>
        <time>2019-01-11T20:42:24Z</time>
      </trkpt>
      <trkpt lat="47.73094" lon="1.58744">
        <ele>77</ele>
        <time>2019-01-11T20:42:25Z</time>
      </trkpt>
      <trkpt lat="47.73113" lon="1.58725">
        <ele>78</ele>
        <time>2019-01-11T20:42:26Z</time>
      </trkpt>
      <trkpt lat="47.7312" lon="1.58709">
        <ele>78</ele>
        <time>2019-01-11T20:42:27Z</time>
      </trkpt>
      <trkpt lat="47.73122" lon="1.587">
        <ele>78</ele>
        <time>2019-01-11T20:42:28Z</time>
      </trkpt>
      <trkpt lat="47.73121" lon="1.58665">
        <ele>79</ele>
        <time>2019-01-11T20:42:29Z</time>
      </trkpt>
      <trkpt lat="47.73124" lon="1.58654">
        <ele>79</ele>
        <time>2019-01-11T20:42:30Z</time>
      </trkpt>
      <trkpt lat="47.73129" lon="1.58643">
        <ele>80</ele>
        <time>2019-01-11T20:42:31Z</time>
      </trkpt>
      <trkpt lat="47.73137" lon="1.5863">
        <ele>81</ele>
        <time>2019-01-11T20:42:32Z</time>
      </trkpt>
      <trkpt lat="47.73144" lon="1.5862">
        <ele>81</ele>
        <time>2019-01-11T20:42:33Z</time>
      </trkpt>
      <trkpt lat="47.7315" lon="1.58613">
        <ele>82</ele>
        <time>2019-01-11T20:42:34Z</time>
      </trkpt>
      <trkpt lat="47.73157" lon="1.58602">
        <ele>82</ele>
        <time>2019-01-11T20:42:35Z</time>
      </trkpt>
      <trkpt lat="47.73161" lon="1.58594">
        <ele>83</ele>
        <time>2019-01-11T20:42:36Z</time>
      </trkpt>
      <trkpt lat="47.73164" lon="1.58586">
        <ele>83</ele>
        <time>2019-01-11T20:42:37Z</time>
      </trkpt>
      <trkpt lat="47.73166" lon="1.58579">
        <ele>83</ele>
        <time>2019-01-11T20:42:38Z</time>
      </trkpt>
      <trkpt lat="47.7316" lon="1.58571">
        <ele>83</ele>
        <time>2019-01-11T20:42:39Z</time>
      </trkpt>
      <trkpt lat="47.73142" lon="1.5855">
        <ele>83</ele>
        <time>2019-01-11T20:42:40Z</time>
      </trkpt>
      <trkpt lat="47.73126" lon="1.58516">
        <ele>84</ele>
        <time>2019-01-11T20:42:41Z</time>
      </trkpt>
      <trkpt lat="47.73101" lon="1.58472">
        <ele>84</ele>
        <time>2019-01-11T20:42:42Z</time>
      </trkpt>
      <trkpt lat="47.73085" lon="1.5844">
        <ele>84</ele>
        <time>2019-01-11T20:42:43Z</time>
      </trkpt>
      <trkpt lat="47.7307" lon="1.58401">
        <ele>83</ele>
        <time>2019-01-11T20:42:44Z</time>
      </trkpt>
      <trkpt lat="47.73029" lon="1.58308">
        <ele>82</ele>
        <time>2019-01-11T20:42:45Z</time>
      </trkpt>
      <trkpt lat="47.73025" lon="1.58299">
        <ele>82</ele>
        <time>2019-01-11T20:42:46Z</time>
      </trkpt>
      <trkpt lat="47.73024" lon="1.58286">
        <ele>83</ele>
        <time>2019-01-11T20:42:47Z</time>
      </trkpt>
      <trkpt lat="47.73019" lon="1.58282">
        <ele>83</ele>
        <time>2019-01-11T20:42:48Z</time>
      </trkpt>
      <trkpt lat="47.73002" lon="1.58265">
        <ele>82</ele>
        <time>2019-01-11T20:42:49Z</time>
      </trkpt>
      <trkpt lat="47.72992" lon="1.58254">
        <ele>82</ele>
        <time>2019-01-11T20:42:50Z</time>
      </trkpt>
      <trkpt lat="47.72979" lon="1.58232">
        <ele>82</ele>
        <time>2019-01-11T20:42:51Z</time>
      </trkpt>
      <trkpt lat="47.72897" lon="1.58055">
        <ele>84</ele>
        <time>2019-01-11T20:42:52Z</time>
      </trkpt>
      <trkpt lat="47.7286" lon="1.5798">
        <ele>83</ele>
        <time>2019-01-11T20:42:53Z</time>
      </trkpt>
      <trkpt lat="47.72804" lon="1.57872">
        <ele>80</ele>
        <time>2019-01-11T20:42:54Z</time>
      </trkpt>
      <trkpt lat="47.72796" lon="1.57853">
        <ele>80</ele>
        <time>2019-01-11T20:42:55Z</time>
      </trkpt>
      <trkpt lat="47.72789" lon="1.5785">
        <ele>79</ele>
        <time>2019-01-11T20:42:56Z</time>
      </trkpt>
      <trkpt lat="47.72776" lon="1.57833">
        <ele>79</ele>
        <time>2019-01-11T20:42:57Z</time>
      </trkpt>
      <trkpt lat="47.7277" lon="1.57828">
        <ele>78</ele>
        <time>2019-01-11T20:42:58Z</time>
      </trkpt>
      <trkpt lat="47.72732" lon="1.57765">
        <ele>79</ele>
        <time>2019-01-11T20:42:59Z</time>
      </trkpt>
      <trkpt lat="47.72679" lon="1.57662">
        <ele>76</ele>
        <time>2019-01-11T20:43:00Z</time>
      </trkpt>
      <trkpt lat="47.72654" lon="1.57616">
        <ele>78</ele>
        <time>2019-01-11T20:43:01Z</time>
      </trkpt>
      <trkpt lat="47.7265" lon="1.57609">
        <ele>79</ele>
        <time>2019-01-11T20:43:02Z</time>
      </trkpt>
      <trkpt lat="47.72639" lon="1.576">
        <ele>79</ele>
        <time>2019-01-11T20:43:03Z</time>
      </trkpt>
      <trkpt lat="47.72609" lon="1.57558">
        <ele>80</ele>
        <time>2019-01-11T20:43:04Z</time>
      </trkpt>
      <trkpt lat="47.72611" lon="1.57546">
        <ele>80</ele>
        <time>2019-01-11T20:43:05Z</time>
      </trkpt>
      <trkpt lat="47.72614" lon="1.57538">
        <ele>80</ele>
        <time>2019-01-11T20:43:06Z</time>
      </trkpt>
      <trkpt lat="47.72622" lon="1.57523">
        <ele>81</ele>
        <time>2019-01-11T20:43:07Z</time>
      </trkpt>
      <trkpt lat="47.72624" lon="1.57514">
        <ele>82</ele>
        <time>2019-01-11T20:43:08Z</time>
      </trkpt>
      <trkpt lat="47.72621" lon="1.57505">
        <ele>82</ele>
        <time>2019-01-11T20:43:09Z</time>
      </trkpt>
      <trkpt lat="47.72615" lon="1.57496">
        <ele>82</ele>
        <time>2019-01-11T20:43:10Z</time>
      </trkpt>
      <trkpt lat="47.72607" lon="1.57489">
        <ele>81</ele>
        <time>2019-01-11T20:43:11Z</time>
      </trkpt>
      <trkpt lat="47.72596" lon="1.57487">
        <ele>81</ele>
        <time>2019-01-11T20:43:12Z</time>
      </trkpt>
      <trkpt lat="47.7258" lon="1.57472">
        <ele>80</ele>
        <time>2019-01-11T20:43:13Z</time>
      </trkpt>
      <trkpt lat="47.72571" lon="1.57462">
        <ele>80</ele>
        <time>2019-01-11T20:43:14Z</time>
      </trkpt>
      <trkpt lat="47.72564" lon="1.57453">
        <ele>80</ele>
        <time>2019-01-11T20:43:15Z</time>
      </trkpt>
      <trkpt lat="47.72558" lon="1.57442">
        <ele>80</ele>
        <time>2019-01-11T20:43:16Z</time>
      </trkpt>
      <trkpt lat="47.72551" lon="1.57432">
        <ele>80</ele>
        <time>2019-01-11T20:43:17Z</time>
      </trkpt>
      <trkpt lat="47.72542" lon="1.57424">
        <ele>80</ele>
        <time>2019-01-11T20:43:18Z</time>
      </trkpt>
      <trkpt lat="47.72531" lon="1.57413">
        <ele>80</ele>
        <time>2019-01-11T20:43:19Z</time>
      </trkpt>
      <trkpt lat="47.7248" lon="1.57363">
        <ele>79</ele>
        <time>2019-01-11T20:43:20Z</time>
      </trkpt>
      <trkpt lat="47.72466" lon="1.57349">
        <ele>78</ele>
        <time>2019-01-11T20:43:21Z</time>
      </trkpt>
      <trkpt lat="47.72426" lon="1.57311">
        <ele>78</ele>
        <time>2019-01-11T20:43:22Z</time>
      </trkpt>
      <trkpt lat="47.72355" lon="1.57241">
        <ele>78</ele>
        <time>2019-01-11T20:43:23Z</time>
      </trkpt>
      <trkpt lat="47.72311" lon="1.57199">
        <ele>80</ele>
        <time>2019-01-11T20:43:24Z</time>
      </trkpt>
      <trkpt lat="47.72258" lon="1.57151">
        <ele>78</ele>
        <time>2019-01-11T20:43:25Z</time>
      </trkpt>
      <trkpt lat="47.72246" lon="1.57144">
        <ele>78</ele>
        <time>2019-01-11T20:43:26Z</time>
      </trkpt>
      <trkpt lat="47.72189" lon="1.57114">
        <ele>79</ele>
        <time>2019-01-11T20:43:27Z</time>
      </trkpt>
      <trkpt lat="47.72148" lon="1.57099">
        <ele>79</ele>
        <time>2019-01-11T20:43:28Z</time>
      </trkpt>
      <trkpt lat="47.72109" lon="1.57083">
        <ele>80</ele>
        <time>2019-01-11T20:43:29Z</time>
      </trkpt>
      <trkpt lat="47.72086" lon="1.57077">
        <ele>80</ele>
        <time>2019-01-11T20:43:30Z</time>
      </trkpt>
      <trkpt lat="47.72027" lon="1.5706">
        <ele>79</ele>
        <time>2019-01-11T20:43:31Z</time>
      </trkpt>
      <trkpt lat="47.72014" lon="1.57061">
        <ele>79</ele>
        <time>2019-01-11T20:43:32Z</time>
      </trkpt>
      <trkpt lat="47.72" lon="1.5706">
        <ele>78</ele>
        <time>2019-01-11T20:43:33Z</time>
      </trkpt>
      <trkpt lat="47.71985" lon="1.57057">
        <ele>78</ele>
        <time>2019-01-11T20:43:34Z</time>
      </trkpt>
      <trkpt lat="47.71971" lon="1.57053">
        <ele>78</ele>
        <time>2019-01-11T20:43:35Z</time>
      </trkpt>
      <trkpt lat="47.71961" lon="1.5705">
        <ele>78</ele>
        <time>2019-01-11T20:43:36Z</time>
      </trkpt>
      <trkpt lat="47.71948" lon="1.57049">
        <ele>78</ele>
        <time>2019-01-11T20:43:37Z</time>
      </trkpt>
      <trkpt lat="47.7192" lon="1.5705">
        <ele>78</ele>
        <time>2019-01-11T20:43:38Z</time>
      </trkpt>
      <trkpt lat="47.71891" lon="1.57053">
        <ele>78</ele>
        <time>2019-01-11T20:43:39Z</time>
      </trkpt>
      <trkpt lat="47.71873" lon="1.57057">
        <ele>79</ele>
        <time>2019-01-11T20:43:40Z</time>
      </trkpt>
      <trkpt lat="47.71856" lon="1.57061">
        <ele>79</ele>
        <time>2019-01-11T20:43:41Z</time>
      </trkpt>
      <trkpt lat="47.71842" lon="1.57066">
        <ele>79</ele>
        <time>2019-01-11T20:43:42Z</time>
      </trkpt>
      <trkpt lat="47.71815" lon="1.57076">
        <ele>80</ele>
        <time>2019-01-11T20:43:43Z</time>
      </trkpt>
      <trkpt lat="47.71788" lon="1.57091">
        <ele>80</ele>
        <time>2019-01-11T20:43:44Z</time>
      </trkpt>
      <trkpt lat="47.71678" lon="1.57155">
        <ele>81</ele>
        <time>2019-01-11T20:43:45Z</time>
      </trkpt>
      <trkpt lat="47.71609" lon="1.57199">
        <ele>79</ele>
        <time>2019-01-11T20:43:46Z</time>
      </trkpt>
      <trkpt lat="47.71605" lon="1.57186">
        <ele>80</ele>
        <time>2019-01-11T20:43:47Z</time>
      </trkpt>
      <trkpt lat="47.71602" lon="1.57165">
        <ele>82</ele>
        <time>2019-01-11T20:43:48Z</time>
      </trkpt>
      <trkpt lat="47.71597" lon="1.5716">
        <ele>82</ele>
        <time>2019-01-11T20:43:49Z</time>
      </trkpt>
      <trkpt lat="47.71593" lon="1.57168">
        <ele>82</ele>
        <time>2019-01-11T20:43:50Z</time>
      </trkpt>
      <trkpt lat="47.71582" lon="1.5718">
        <ele>81</ele>
        <time>2019-01-11T20:43:51Z</time>
      </trkpt>
      <trkpt lat="47.71572" lon="1.57187">
        <ele>80</ele>
        <time>2019-01-11T20:43:52Z</time>
      </trkpt>
      <trkpt lat="47.71381" lon="1.57308">
        <ele>81</ele>
        <time>2019-01-11T20:43:53Z</time>
      </trkpt>
      <trkpt lat="47.7135" lon="1.5733">
        <ele>81</ele>
        <time>2019-01-11T20:43:54Z</time>
      </trkpt>
      <trkpt lat="47.71315" lon="1.5736">
        <ele>79</ele>
        <time>2019-01-11T20:43:55Z</time>
      </trkpt>
      <trkpt lat="47.71307" lon="1.57364">
        <ele>79</ele>
        <time>2019-01-11T20:43:56Z</time>
      </trkpt>
      <trkpt lat="47.713" lon="1.57365">
        <ele>79</ele>
        <time>2019-01-11T20:43:57Z</time>
      </trkpt>
      <trkpt lat="47.71293" lon="1.57364">
        <ele>79</ele>
        <time>2019-01-11T20:43:58Z</time>
      </trkpt>
      <trkpt lat="47.71286" lon="1.57359">
        <ele>80</ele>
        <time>2019-01-11T20:43:59Z</time>
      </trkpt>
      <trkpt lat="47.71282" lon="1.57353">
        <ele>80</ele>
        <time>2019-01-11T20:44:00Z</time>
      </trkpt>
      <trkpt lat="47.71263" lon="1.57285">
        <ele>81</ele>
        <time>2019-01-11T20:44:01Z</time>
      </trkpt>
      <trkpt lat="47.71252" lon="1.57264">
        <ele>81</ele>
        <time>2019-01-11T20:44:02Z</time>
      </trkpt>
      <trkpt lat="47.71234" lon="1.57235">
        <ele>81</ele>
        <time>2019-01-11T20:44:03Z</time>
      </trkpt>
      <trkpt lat="47.71223" lon="1.57223">
        <ele>82</ele>
        <time>2019-01-11T20:44:04Z</time>
      </trkpt>
      <trkpt lat="47.71212" lon="1.57213">
        <ele>82</ele>
        <time>2019-01-11T20:44:05Z</time>
      </trkpt>
      <trkpt lat="47.71201" lon="1.57204">
        <ele>82</ele>
        <time>2019-01-11T20:44:06Z</time>
      </trkpt>
      <trkpt lat="47.71181" lon="1.57195">
        <ele>82</ele>
        <time>2019-01-11T20:44:07Z</time>
      </trkpt>
      <trkpt lat="47.71159" lon="1.57196">
        <ele>82</ele>
        <time>2019-01-11T20:44:08Z</time>
      </trkpt>
      <trkpt lat="47.71133" lon="1.57204">
        <ele>82</ele>
        <time>2019-01-11T20:44:09Z</time>
      </trkpt>
      <trkpt lat="47.71111" lon="1.57215">
        <ele>82</ele>
        <time>2019-01-11T20:44:10Z</time>
      </trkpt>
      <trkpt lat="47.7107" lon="1.57248">
        <ele>82</ele>
        <time>2019-01-11T20:44:11Z</time>
      </trkpt>
      <trkpt lat="47.71064" lon="1.57252">
        <ele>82</ele>
        <time>2019-01-11T20:44:12Z</time>
      </trkpt>
      <trkpt lat="47.71058" lon="1.57253">
        <ele>82</ele>
        <time>2019-01-11T20:44:13Z</time>
      </trkpt>
      <trkpt lat="47.70804" lon="1.5721">
        <ele>81</ele>
        <time>2019-01-11T20:44:14Z</time>
      </trkpt>
      <trkpt lat="47.70747" lon="1.57215">
        <ele>82</ele>
        <time>2019-01-11T20:44:15Z</time>
      </trkpt>
      <trkpt lat="47.70738" lon="1.57215">
        <ele>82</ele>
        <time>2019-01-11T20:44:16Z</time>
      </trkpt>
      <trkpt lat="47.70711" lon="1.57204">
        <ele>82</ele>
        <time>2019-01-11T20:44:17Z</time>
      </trkpt>
      <trkpt lat="47.70524" lon="1.57113">
        <ele>82</ele>
        <time>2019-01-11T20:44:18Z</time>
      </trkpt>
      <trkpt lat="47.70503" lon="1.57103">
        <ele>81</ele>
        <time>2019-01-11T20:44:19Z</time>
      </trkpt>
      <trkpt lat="47.7036" lon="1.57029">
        <ele>82</ele>
        <time>2019-01-11T20:44:20Z</time>
      </trkpt>
      <trkpt lat="47.70304" lon="1.56998">
        <ele>83</ele>
        <time>2019-01-11T20:44:21Z</time>
      </trkpt>
      <trkpt lat="47.70277" lon="1.56983">
        <ele>83</ele>
        <time>2019-01-11T20:44:22Z</time>
      </trkpt>
      <trkpt lat="47.70139" lon="1.56904">
        <ele>83</ele>
        <time>2019-01-11T20:44:23Z</time>
      </trkpt>
      <trkpt lat="47.70113" lon="1.56888">
        <ele>82</ele>
        <time>2019-01-11T20:44:24Z</time>
      </trkpt>
      <trkpt lat="47.70098" lon="1.56874">
        <ele>82</ele>
        <time>2019-01-11T20:44:25Z</time>
      </trkpt>
      <trkpt lat="47.70085" lon="1.56858">
        <ele>81</ele>
        <time>2019-01-11T20:44:26Z</time>
      </trkpt>
      <trkpt lat="47.69994" lon="1.56726">
        <ele>81</ele>
        <time>2019-01-11T20:44:27Z</time>
      </trkpt>
      <trkpt lat="47.69933" lon="1.56638">
        <ele>80</ele>
        <time>2019-01-11T20:44:28Z</time>
      </trkpt>
      <trkpt lat="47.69896" lon="1.56576">
        <ele>80</ele>
        <time>2019-01-11T20:44:29Z</time>
      </trkpt>
      <trkpt lat="47.69873" lon="1.56532">
        <ele>80</ele>
        <time>2019-01-11T20:44:30Z</time>
      </trkpt>
      <trkpt lat="47.69847" lon="1.56481">
        <ele>81</ele>
        <time>2019-01-11T20:44:31Z</time>
      </trkpt>
      <trkpt lat="47.69798" lon="1.56381">
        <ele>81</ele>
        <time>2019-01-11T20:44:32Z</time>
      </trkpt>
      <trkpt lat="47.69757" lon="1.56293">
        <ele>82</ele>
        <time>2019-01-11T20:44:33Z</time>
      </trkpt>
      <trkpt lat="47.69725" lon="1.56228">
        <ele>82</ele>
        <time>2019-01-11T20:44:34Z</time>
      </trkpt>
      <trkpt lat="47.69711" lon="1.5621">
        <ele>81</ele>
        <time>2019-01-11T20:44:35Z</time>
      </trkpt>
      <trkpt lat="47.69646" lon="1.56154">
        <ele>81</ele>
        <time>2019-01-11T20:44:36Z</time>
      </trkpt>
      <trkpt lat="47.69631" lon="1.56134">
        <ele>81</ele>
        <time>2019-01-11T20:44:37Z</time>
      </trkpt>
      <trkpt lat="47.696" lon="1.56088">
        <ele>82</ele>
        <time>2019-01-11T20:44:38Z</time>
      </trkpt>
      <trkpt lat="47.69578" lon="1.56051">
        <ele>81</ele>
        <time>2019-01-11T20:44:39Z</time>
      </trkpt>
      <trkpt lat="47.69542" lon="1.55976">
        <ele>79</ele>
        <time>2019-01-11T20:44:40Z</time>
      </trkpt>
      <trkpt lat="47.69513" lon="1.55907">
        <ele>77</ele>
        <time>2019-01-11T20:44:41Z</time>
      </trkpt>
      <trkpt lat="47.69481" lon="1.55826">
        <ele>76</ele>
        <time>2019-01-11T20:44:42Z</time>
      </trkpt>
      <trkpt lat="47.6939" lon="1.55623">
        <ele>76</ele>
        <time>2019-01-11T20:44:43Z</time>
      </trkpt>
      <trkpt lat="47.69348" lon="1.55527">
        <ele>76</ele>
        <time>2019-01-11T20:44:44Z</time>
      </trkpt>
      <trkpt lat="47.69299" lon="1.55425">
        <ele>77</ele>
        <time>2019-01-11T20:44:45Z</time>
      </trkpt>
      <trkpt lat="47.69279" lon="1.55396">
        <ele>76</ele>
        <time>2019-01-11T20:44:46Z</time>
      </trkpt>
      <trkpt lat="47.69264" lon="1.55359">
        <ele>77</ele>
        <time>2019-01-11T20:44:47Z</time>
      </trkpt>
      <trkpt lat="47.69253" lon="1.55329">
        <ele>77</ele>
        <time>2019-01-11T20:44:48Z</time>
      </trkpt>
      <trkpt lat="47.69249" lon="1.55302">
        <ele>77</ele>
        <time>2019-01-11T20:44:49Z</time>
      </trkpt>
      <trkpt lat="47.69249" lon="1.55271">
        <ele>78</ele>
        <time>2019-01-11T20:44:50Z</time>
      </trkpt>
      <trkpt lat="47.69252" lon="1.55234">
        <ele>78</ele>
        <time>2019-01-11T20:44:51Z</time>
      </trkpt>
      <trkpt lat="47.6926" lon="1.5515">
        <ele>77</ele>
        <time>2019-01-11T20:44:52Z</time>
      </trkpt>
      <trkpt lat="47.69273" lon="1.55043">
        <ele>76</ele>
        <time>2019-01-11T20:44:53Z</time>
      </trkpt>
      <trkpt lat="47.69282" lon="1.54973">
        <ele>77</ele>
        <time>2019-01-11T20:44:54Z</time>
      </trkpt>
      <trkpt lat="47.69287" lon="1.54931">
        <ele>77</ele>
        <time>2019-01-11T20:44:55Z</time>
      </trkpt>
      <trkpt lat="47.69291" lon="1.54888">
        <ele>78</ele>
        <time>2019-01-11T20:44:56Z</time>
      </trkpt>
      <trkpt lat="47.69289" lon="1.54849">
        <ele>78</ele>
        <time>2019-01-11T20:44:57Z</time>
      </trkpt>
      <trkpt lat="47.69284" lon="1.5481">
        <ele>77</ele>
        <time>2019-01-11T20:44:58Z</time>
      </trkpt>
      <trkpt lat="47.69276" lon="1.54775">
        <ele>77</ele>
        <time>2019-01-11T20:44:59Z</time>
      </trkpt>
      <trkpt lat="47.69265" lon="1.54731">
        <ele>76</ele>
        <time>2019-01-11T20:45:00Z</time>
      </trkpt>
      <trkpt lat="47.69237" lon="1.54653">
        <ele>78</ele>
        <time>2019-01-11T20:45:01Z</time>
      </trkpt>
      <trkpt lat="47.6921" lon="1.54601">
        <ele>77</ele>
        <time>2019-01-11T20:45:02Z</time>
      </trkpt>
      <trkpt lat="47.69179" lon="1.54535">
        <ele>78</ele>
        <time>2019-01-11T20:45:03Z</time>
      </trkpt>
      <trkpt lat="47.69165" lon="1.5451">
        <ele>78</ele>
        <time>2019-01-11T20:45:04Z</time>
      </trkpt>
      <trkpt lat="47.69139" lon="1.54455">
        <ele>76</ele>
        <time>2019-01-11T20:45:05Z</time>
      </trkpt>
      <trkpt lat="47.69103" lon="1.54384">
        <ele>76</ele>
        <time>2019-01-11T20:45:06Z</time>
      </trkpt>
      <trkpt lat="47.69079" lon="1.54336">
        <ele>77</ele>
        <time>2019-01-11T20:45:07Z</time>
      </trkpt>
      <trkpt lat="47.69052" lon="1.54283">
        <ele>75</ele>
        <time>2019-01-11T20:45:08Z</time>
      </trkpt>
      <trkpt lat="47.6902" lon="1.54228">
        <ele>75</ele>
        <time>2019-01-11T20:45:09Z</time>
      </trkpt>
      <trkpt lat="47.68986" lon="1.54176">
        <ele>75</ele>
        <time>2019-01-11T20:45:10Z</time>
      </trkpt>
      <trkpt lat="47.68942" lon="1.54113">
        <ele>74</ele>
        <time>2019-01-11T20:45:11Z</time>
      </trkpt>
      <trkpt lat="47.68909" lon="1.54068">
        <ele>75</ele>
        <time>2019-01-11T20:45:12Z</time>
      </trkpt>
      <trkpt lat="47.68878" lon="1.54033">
        <ele>76</ele>
        <time>2019-01-11T20:45:13Z</time>
      </trkpt>
      <trkpt lat="47.6885" lon="1.54008">
        <ele>76</ele>
        <time>2019-01-11T20:45:14Z</time>
      </trkpt>
      <trkpt lat="47.68815" lon="1.53977">
        <ele>76</ele>
        <time>2019-01-11T20:45:15Z</time>
      </trkpt>
      <trkpt lat="47.68666" lon="1.53865">
        <ele>76</ele>
        <time>2019-01-11T20:45:16Z</time>
      </trkpt>
      <trkpt lat="47.68618" lon="1.53828">
        <ele>75</ele>
        <time>2019-01-11T20:45:17Z</time>
      </trkpt>
      <trkpt lat="47.68553" lon="1.5378">
        <ele>75</ele>
        <time>2019-01-11T20:45:18Z</time>
      </trkpt>
      <trkpt lat="47.68453" lon="1.53703">
        <ele>75</ele>
        <time>2019-01-11T20:45:19Z</time>
      </trkpt>
      <trkpt lat="47.68403" lon="1.53664">
        <ele>75</ele>
        <time>2019-01-11T20:45:20Z</time>
      </trkpt>
      <trkpt lat="47.68388" lon="1.53647">
        <ele>75</ele>
        <time>2019-01-11T20:45:21Z</time>
      </trkpt>
      <trkpt lat="47.68374" lon="1.53626">
        <ele>76</ele>
        <time>2019-01-11T20:45:22Z</time>
      </trkpt>
      <trkpt lat="47.6835" lon="1.53578">
        <ele>77</ele>
        <time>2019-01-11T20:45:23Z</time>
      </trkpt>
      <trkpt lat="47.68295" lon="1.53473">
        <ele>77</ele>
        <time>2019-01-11T20:45:24Z</time>
      </trkpt>
      <trkpt lat="47.68273" lon="1.5343">
        <ele>76</ele>
        <time>2019-01-11T20:45:25Z</time>
      </trkpt>
      <trkpt lat="47.68249" lon="1.53383">
        <ele>75</ele>
        <time>2019-01-11T20:45:26Z</time>
      </trkpt>
      <trkpt lat="47.68236" lon="1.53357">
        <ele>75</ele>
        <time>2019-01-11T20:45:27Z</time>
      </trkpt>
      <trkpt lat="47.6819" lon="1.53237">
        <ele>76</ele>
        <time>2019-01-11T20:45:28Z</time>
      </trkpt>
      <trkpt lat="47.68155" lon="1.53154">
        <ele>75</ele>
        <time>2019-01-11T20:45:29Z</time>
      </trkpt>
      <trkpt lat="47.68114" lon="1.53051">
        <ele>77</ele>
        <time>2019-01-11T20:45:30Z</time>
      </trkpt>
      <trkpt lat="47.6806" lon="1.52918">
        <ele>77</ele>
        <time>2019-01-11T20:45:31Z</time>
      </trkpt>
      <trkpt lat="47.67972" lon="1.52702">
        <ele>77</ele>
        <time>2019-01-11T20:45:32Z</time>
      </trkpt>
      <trkpt lat="47.67935" lon="1.52605">
        <ele>77</ele>
        <time>2019-01-11T20:45:33Z</time>
      </trkpt>
      <trkpt lat="47.67899" lon="1.52521">
        <ele>76</ele>
        <time>2019-01-11T20:45:34Z</time>
      </trkpt>
      <trkpt lat="47.67891" lon="1.52501">
        <ele>76</ele>
        <time>2019-01-11T20:45:35Z</time>
      </trkpt>
      <trkpt lat="47.67881" lon="1.52481">
        <ele>76</ele>
        <time>2019-01-11T20:45:36Z</time>
      </trkpt>
      <trkpt lat="47.67852" lon="1.52406">
        <ele>79</ele>
        <time>2019-01-11T20:45:37Z</time>
      </trkpt>
      <trkpt lat="47.67843" lon="1.5238">
        <ele>78</ele>
        <time>2019-01-11T20:45:38Z</time>
      </trkpt>
      <trkpt lat="47.67843" lon="1.5238">
        <ele>78</ele>
        <time>2019-01-11T20:45:39Z</time>
      </trkpt>
      <trkpt lat="47.67766" lon="1.52445">
        <ele>79</ele>
        <time>2019-01-11T20:45:40Z</time>
      </trkpt>
      <trkpt lat="47.67662" lon="1.5253">
        <ele>80</ele>
        <time>2019-01-11T20:45:41Z</time>
      </trkpt>
      <trkpt lat="47.67567" lon="1.5261">
        <ele>76</ele>
        <time>2019-01-11T20:45:42Z</time>
      </trkpt>
      <trkpt lat="47.67524" lon="1.52645">
        <ele>74</ele>
        <time>2019-01-11T20:45:43Z</time>
      </trkpt>
      <trkpt lat="47.67364" lon="1.52779">
        <ele>77</ele>
        <time>2019-01-11T20:45:44Z</time>
      </trkpt>
      <trkpt lat="47.67285" lon="1.52844">
        <ele>81</ele>
        <time>2019-01-11T20:45:45Z</time>
      </trkpt>
      <trkpt lat="47.67271" lon="1.52856">
        <ele>81</ele>
        <time>2019-01-11T20:45:46Z</time>
      </trkpt>
      <trkpt lat="47.67263" lon="1.52838">
        <ele>81</ele>
        <time>2019-01-11T20:45:47Z</time>
      </trkpt>
      <trkpt lat="47.67248" lon="1.52809">
        <ele>80</ele>
        <time>2019-01-11T20:45:48Z</time>
      </trkpt>
      <trkpt lat="47.67232" lon="1.52783">
        <ele>80</ele>
        <time>2019-01-11T20:45:49Z</time>
      </trkpt>
      <trkpt lat="47.67199" lon="1.5273">
        <ele>80</ele>
        <time>2019-01-11T20:45:50Z</time>
      </trkpt>
      <trkpt lat="47.67179" lon="1.52703">
        <ele>80</ele>
        <time>2019-01-11T20:45:51Z</time>
      </trkpt>
      <trkpt lat="47.67159" lon="1.52677">
        <ele>79</ele>
        <time>2019-01-11T20:45:52Z</time>
      </trkpt>
      <trkpt lat="47.67131" lon="1.52646">
        <ele>79</ele>
        <time>2019-01-11T20:45:53Z</time>
      </trkpt>
      <trkpt lat="47.67093" lon="1.52601">
        <ele>78</ele>
        <time>2019-01-11T20:45:54Z</time>
      </trkpt>
      <trkpt lat="47.67053" lon="1.52556">
        <ele>77</ele>
        <time>2019-01-11T20:45:55Z</time>
      </trkpt>
      <trkpt lat="47.67024" lon="1.52521">
        <ele>77</ele>
        <time>2019-01-11T20:45:56Z</time>
      </trkpt>
      <trkpt lat="47.67012" lon="1.52503">
        <ele>77</ele>
        <time>2019-01-11T20:45:57Z</time>
      </trkpt>
      <trkpt lat="47.66997" lon="1.52478">
        <ele>77</ele>
        <time>2019-01-11T20:45:58Z</time>
      </trkpt>
      <trkpt lat="47.66986" lon="1.52452">
        <ele>78</ele>
        <time>2019-01-11T20:45:59Z</time>
      </trkpt>
      <trkpt lat="47.66968" lon="1.52404">
        <ele>79</ele>
        <time>2019-01-11T20:46:00Z</time>
      </trkpt>
      <trkpt lat="47.66957" lon="1.52372">
        <ele>80</ele>
        <time>2019-01-11T20:46:01Z</time>
      </trkpt>
      <trkpt lat="47.66952" lon="1.52357">
        <ele>80</ele>
        <time>2019-01-11T20:46:02Z</time>
      </trkpt>
      <trkpt lat="47.66948" lon="1.52348">
        <ele>80</ele>
        <time>2019-01-11T20:46:03Z</time>
      </trkpt>
      <trkpt lat="47.66944" lon="1.52341">
        <ele>80</ele>
        <time>2019-01-11T20:46:04Z</time>
      </trkpt>
      <trkpt lat="47.66937" lon="1.5233">
        <ele>80</ele>
        <time>2019-01-11T20:46:05Z</time>
      </trkpt>
      <trkpt lat="47.66925" lon="1.52314">
        <ele>81</ele>
        <time>2019-01-11T20:46:06Z</time>
      </trkpt>
      <trkpt lat="47.66918" lon="1.52305">
        <ele>82</ele>
        <time>2019-01-11T20:46:07Z</time>
      </trkpt>
      <trkpt lat="47.66897" lon="1.52273">
        <ele>83</ele>
        <time>2019-01-11T20:46:08Z</time>
      </trkpt>
      <trkpt lat="47.66889" lon="1.5226">
        <ele>84</ele>
        <time>2019-01-11T20:46:09Z</time>
      </trkpt>
      <trkpt lat="47.66884" lon="1.52251">
        <ele>84</ele>
        <time>2019-01-11T20:46:10Z</time>
      </trkpt>
      <trkpt lat="47.66881" lon="1.5224">
        <ele>84</ele>
        <time>2019-01-11T20:46:11Z</time>
      </trkpt>
      <trkpt lat="47.66872" lon="1.52214">
        <ele>85</ele>
        <time>2019-01-11T20:46:12Z</time>
      </trkpt>
      <trkpt lat="47.6686" lon="1.52182">
        <ele>85</ele>
        <time>2019-01-11T20:46:13Z</time>
      </trkpt>
      <trkpt lat="47.66853" lon="1.52168">
        <ele>86</ele>
        <time>2019-01-11T20:46:14Z</time>
      </trkpt>
      <trkpt lat="47.66847" lon="1.52169">
        <ele>86</ele>
        <time>2019-01-11T20:46:15Z</time>
      </trkpt>
      <trkpt lat="47.6682" lon="1.52183">
        <ele>87</ele>
        <time>2019-01-11T20:46:16Z</time>
      </trkpt>
      <trkpt lat="47.66787" lon="1.52203">
        <ele>86</ele>
        <time>2019-01-11T20:46:17Z</time>
      </trkpt>
      <trkpt lat="47.6674" lon="1.52241">
        <ele>85</ele>
        <time>2019-01-11T20:46:18Z</time>
      </trkpt>
      <trkpt lat="47.66704" lon="1.52275">
        <ele>84</ele>
        <time>2019-01-11T20:46:19Z</time>
      </trkpt>
      <trkpt lat="47.66684" lon="1.52292">
        <ele>84</ele>
        <time>2019-01-11T20:46:20Z</time>
      </trkpt>
      <trkpt lat="47.66673" lon="1.52281">
        <ele>84</ele>
        <time>2019-01-11T20:46:21Z</time>
      </trkpt>
      <trkpt lat="47.66663" lon="1.52273">
        <ele>84</ele>
        <time>2019-01-11T20:46:22Z</time>
      </trkpt>
      <trkpt lat="47.66647" lon="1.52262">
        <ele>84</ele>
        <time>2019-01-11T20:46:23Z</time>
      </trkpt>
      <trkpt lat="47.66619" lon="1.52251">
        <ele>85</ele>
        <time>2019-01-11T20:46:24Z</time>
      </trkpt>
      <trkpt lat="47.66599" lon="1.52242">
        <ele>85</ele>
        <time>2019-01-11T20:46:25Z</time>
      </trkpt>
      <trkpt lat="47.66577" lon="1.5223">
        <ele>85</ele>
        <time>2019-01-11T20:46:26Z</time>
      </trkpt>
      <trkpt lat="47.66572" lon="1.52228">
        <ele>85</ele>
        <time>2019-01-11T20:46:27Z</time>
      </trkpt>
      <trkpt lat="47.66553" lon="1.52178">
        <ele>85</ele>
        <time>2019-01-11T20:46:28Z</time>
      </trkpt>
      <trkpt lat="47.66527" lon="1.52124">
        <ele>85</ele>
        <time>2019-01-11T20:46:29Z</time>
      </trkpt>
      <trkpt lat="47.66496" lon="1.52046">
        <ele>85</ele>
        <time>2019-01-11T20:46:30Z</time>
      </trkpt>
      <trkpt lat="47.6644" lon="1.51899">
        <ele>86</ele>
        <time>2019-01-11T20:46:31Z</time>
      </trkpt>
      <trkpt lat="47.66401" lon="1.51797">
        <ele>85</ele>
        <time>2019-01-11T20:46:32Z</time>
      </trkpt>
      <trkpt lat="47.6636" lon="1.51687">
        <ele>89</ele>
        <time>2019-01-11T20:46:33Z</time>
      </trkpt>
      <trkpt lat="47.66324" lon="1.51577">
        <ele>86</ele>
        <time>2019-01-11T20:46:34Z</time>
      </trkpt>
      <trkpt lat="47.66286" lon="1.51464">
        <ele>85</ele>
        <time>2019-01-11T20:46:35Z</time>
      </trkpt>
      <trkpt lat="47.66241" lon="1.51328">
        <ele>86</ele>
        <time>2019-01-11T20:46:36Z</time>
      </trkpt>
      <trkpt lat="47.66295" lon="1.51275">
        <ele>86</ele>
        <time>2019-01-11T20:46:37Z</time>
      </trkpt>
      <trkpt lat="47.6638" lon="1.51201">
        <ele>82</ele>
        <time>2019-01-11T20:46:38Z</time>
      </trkpt>
      <trkpt lat="47.66374" lon="1.51183">
        <ele>82</ele>
        <time>2019-01-11T20:46:39Z</time>
      </trkpt>
      <trkpt lat="47.66366" lon="1.51162">
        <ele>82</ele>
        <time>2019-01-11T20:46:40Z</time>
      </trkpt>
      <trkpt lat="47.66339" lon="1.51094">
        <ele>83</ele>
        <time>2019-01-11T20:46:41Z</time>
      </trkpt>
      <trkpt lat="47.66324" lon="1.51063">
        <ele>83</ele>
        <time>2019-01-11T20:46:42Z</time>
      </trkpt>
      <trkpt lat="47.66295" lon="1.50987">
        <ele>83</ele>
        <time>2019-01-11T20:46:43Z</time>
      </trkpt>
      <trkpt lat="47.6627" lon="1.50923">
        <ele>84</ele>
        <time>2019-01-11T20:46:44Z</time>
      </trkpt>
      <trkpt lat="47.66252" lon="1.50866">
        <ele>86</ele>
        <time>2019-01-11T20:46:45Z</time>
      </trkpt>
      <trkpt lat="47.66226" lon="1.50788">
        <ele>88</ele>
        <time>2019-01-11T20:46:46Z</time>
      </trkpt>
      <trkpt lat="47.66182" lon="1.50672">
        <ele>88</ele>
        <time>2019-01-11T20:46:47Z</time>
      </trkpt>
      <trkpt lat="47.66085" lon="1.50422">
        <ele>87</ele>
        <time>2019-01-11T20:46:48Z</time>
      </trkpt>
      <trkpt lat="47.66059" lon="1.50365">
        <ele>87</ele>
        <time>2019-01-11T20:46:49Z</time>
      </trkpt>
      <trkpt lat="47.66081" lon="1.50346">
        <ele>87</ele>
        <time>2019-01-11T20:46:50Z</time>
      </trkpt>
      <trkpt lat="47.66091" lon="1.50332">
        <ele>86</ele>
        <time>2019-01-11T20:46:51Z</time>
      </trkpt>
      <trkpt lat="47.66094" lon="1.50319">
        <ele>85</ele>
        <time>2019-01-11T20:46:52Z</time>
      </trkpt>
      <trkpt lat="47.66091" lon="1.50301">
        <ele>85</ele>
        <time>2019-01-11T20:46:53Z</time>
      </trkpt>
      <trkpt lat="47.66067" lon="1.50255">
        <ele>85</ele>
        <time>2019-01-11T20:46:54Z</time>
      </trkpt>
      <trkpt lat="47.66019" lon="1.5017">
        <ele>85</ele>
        <time>2019-01-11T20:46:55Z</time>
      </trkpt>
      <trkpt lat="47.66" lon="1.5013">
        <ele>86</ele>
        <time>2019-01-11T20:46:56Z</time>
      </trkpt>
      <trkpt lat="47.65979" lon="1.50075">
        <ele>87</ele>
        <time>2019-01-11T20:46:57Z</time>
      </trkpt>
      <trkpt lat="47.65953" lon="1.49999">
        <ele>87</ele>
        <time>2019-01-11T20:46:58Z</time>
      </trkpt>
      <trkpt lat="47.65925" lon="1.49909">
        <ele>88</ele>
        <time>2019-01-11T20:46:59Z</time>
      </trkpt>
      <trkpt lat="47.65904" lon="1.49846">
        <ele>87</ele>
        <time>2019-01-11T20:47:00Z</time>
      </trkpt>
      <trkpt lat="47.65898" lon="1.49835">
        <ele>87</ele>
        <time>2019-01-11T20:47:01Z</time>
      </trkpt>
      <trkpt lat="47.65891" lon="1.49834">
        <ele>87</ele>
        <time>2019-01-11T20:47:02Z</time>
      </trkpt>
      <trkpt lat="47.65826" lon="1.49866">
        <ele>88</ele>
        <time>2019-01-11T20:47:03Z</time>
      </trkpt>
      <trkpt lat="47.65802" lon="1.4977">
        <ele>88</ele>
        <time>2019-01-11T20:47:04Z</time>
      </trkpt>
      <trkpt lat="47.65772" lon="1.49655">
        <ele>89</ele>
        <time>2019-01-11T20:47:05Z</time>
      </trkpt>
      <trkpt lat="47.65731" lon="1.49496">
        <ele>89</ele>
        <time>2019-01-11T20:47:06Z</time>
      </trkpt>
      <trkpt lat="47.65752" lon="1.49484">
        <ele>89</ele>
        <time>2019-01-11T20:47:07Z</time>
      </trkpt>
      <trkpt lat="47.65827" lon="1.49432">
        <ele>85</ele>
        <time>2019-01-11T20:47:08Z</time>
      </trkpt>
      <trkpt lat="47.65846" lon="1.49423">
        <ele>83</ele>
        <time>2019-01-11T20:47:09Z</time>
      </trkpt>
      <trkpt lat="47.65861" lon="1.49417">
        <ele>80</ele>
        <time>2019-01-11T20:47:10Z</time>
      </trkpt>
      <trkpt lat="47.65852" lon="1.49378">
        <ele>80</ele>
        <time>2019-01-11T20:47:11Z</time>
      </trkpt>
      <trkpt lat="47.65845" lon="1.49342">
        <ele>80</ele>
        <time>2019-01-11T20:47:12Z</time>
      </trkpt>
      <trkpt lat="47.65829" lon="1.49249">
        <ele>78</ele>
        <time>2019-01-11T20:47:13Z</time>
      </trkpt>
      <trkpt lat="47.65822" lon="1.49216">
        <ele>77</ele>
        <time>2019-01-11T20:47:14Z</time>
      </trkpt>
      <trkpt lat="47.65814" lon="1.49186">
        <ele>77</ele>
        <time>2019-01-11T20:47:15Z</time>
      </trkpt>
      <trkpt lat="47.65803" lon="1.4915">
        <ele>77</ele>
        <time>2019-01-11T20:47:16Z</time>
      </trkpt>
      <trkpt lat="47.65791" lon="1.49113">
        <ele>78</ele>
        <time>2019-01-11T20:47:17Z</time>
      </trkpt>
      <trkpt lat="47.65778" lon="1.49069">
        <ele>79</ele>
        <time>2019-01-11T20:47:18Z</time>
      </trkpt>
      <trkpt lat="47.65767" lon="1.49036">
        <ele>79</ele>
        <time>2019-01-11T20:47:19Z</time>
      </trkpt>
      <trkpt lat="47.65754" lon="1.48987">
        <ele>79</ele>
        <time>2019-01-11T20:47:20Z</time>
      </trkpt>
      <trkpt lat="47.65742" lon="1.48943">
        <ele>78</ele>
        <time>2019-01-11T20:47:21Z</time>
      </trkpt>
      <trkpt lat="47.65735" lon="1.48904">
        <ele>77</ele>
        <time>2019-01-11T20:47:22Z</time>
      </trkpt>
      <trkpt lat="47.65734" lon="1.4889">
        <ele>77</ele>
        <time>2019-01-11T20:47:23Z</time>
      </trkpt>
      <trkpt lat="47.65726" lon="1.48862">
        <ele>77</ele>
        <time>2019-01-11T20:47:24Z</time>
      </trkpt>
      <trkpt lat="47.65718" lon="1.48834">
        <ele>78</ele>
        <time>2019-01-11T20:47:25Z</time>
      </trkpt>
      <trkpt lat="47.65707" lon="1.48808">
        <ele>79</ele>
        <time>2019-01-11T20:47:26Z</time>
      </trkpt>
      <trkpt lat="47.65679" lon="1.48717">
        <ele>78</ele>
        <time>2019-01-11T20:47:27Z</time>
      </trkpt>
      <trkpt lat="47.65664" lon="1.48726">
        <ele>80</ele>
        <time>2019-01-11T20:47:28Z</time>
      </trkpt>
      <trkpt lat="47.65644" lon="1.48734">
        <ele>82</ele>
        <time>2019-01-11T20:47:29Z</time>
      </trkpt>
      <trkpt lat="47.65634" lon="1.48739">
        <ele>83</ele>
        <time>2019-01-11T20:47:30Z</time>
      </trkpt>
      <trkpt lat="47.65629" lon="1.48743">
        <ele>84</ele>
        <time>2019-01-11T20:47:31Z</time>
      </trkpt>
      <trkpt lat="47.65616" lon="1.48752">
        <ele>85</ele>
        <time>2019-01-11T20:47:32Z</time>
      </trkpt>
      <trkpt lat="47.65605" lon="1.48763">
        <ele>86</ele>
        <time>2019-01-11T20:47:33Z</time>
      </trkpt>
      <trkpt lat="47.65593" lon="1.48771">
        <ele>88</ele>
        <time>2019-01-11T20:47:34Z</time>
      </trkpt>
      <trkpt lat="47.65567" lon="1.48785">
        <ele>88</ele>
        <time>2019-01-11T20:47:35Z</time>
      </trkpt>
      <trkpt lat="47.65565" lon="1.48779">
        <ele>88</ele>
        <time>2019-01-11T20:47:36Z</time>
      </trkpt>
      <trkpt lat="47.65558" lon="1.48763">
        <ele>88</ele>
        <time>2019-01-11T20:47:37Z</time>
      </trkpt>
      <trkpt lat="47.65548" lon="1.48743">
        <ele>88</ele>
        <time>2019-01-11T20:47:38Z</time>
      </trkpt>
      <trkpt lat="47.65543" lon="1.48732">
        <ele>88</ele>
        <time>2019-01-11T20:47:39Z</time>
      </trkpt>
      <trkpt lat="47.65536" lon="1.48707">
        <ele>87</ele>
        <time>2019-01-11T20:47:40Z</time>
      </trkpt>
      <trkpt lat="47.65517" lon="1.48719">
        <ele>87</ele>
        <time>2019-01-11T20:47:41Z</time>
      </trkpt>
      <trkpt lat="47.65505" lon="1.48725">
        <ele>88</ele>
        <time>2019-01-11T20:47:42Z</time>
      </trkpt>
      <trkpt lat="47.65492" lon="1.48731">
        <ele>88</ele>
        <time>2019-01-11T20:47:43Z</time>
      </trkpt>
      <trkpt lat="47.65482" lon="1.48737">
        <ele>87</ele>
        <time>2019-01-11T20:47:44Z</time>
      </trkpt>
      <trkpt lat="47.65448" lon="1.48755">
        <ele>87</ele>
        <time>2019-01-11T20:47:45Z</time>
      </trkpt>
      <trkpt lat="47.6545" lon="1.48762">
        <ele>87</ele>
        <time>2019-01-11T20:47:46Z</time>
      </trkpt>
      <trkpt lat="47.65458" lon="1.48796">
        <ele>87</ele>
        <time>2019-01-11T20:47:47Z</time>
      </trkpt>
      <trkpt lat="47.65453" lon="1.48806">
        <ele>86</ele>
        <time>2019-01-11T20:47:48Z</time>
      </trkpt>
      <trkpt lat="47.65436" lon="1.48817">
        <ele>86</ele>
        <time>2019-01-11T20:47:49Z</time>
      </trkpt>
      <trkpt lat="47.65407" lon="1.48834">
        <ele>85</ele>
        <time>2019-01-11T20:47:50Z</time>
      </trkpt>
      <trkpt lat="47.65403" lon="1.48845">
        <ele>85</ele>
        <time>2019-01-11T20:47:51Z</time>
      </trkpt>
      <trkpt lat="47.65406" lon="1.48858">
        <ele>85</ele>
        <time>2019-01-11T20:47:52Z</time>
      </trkpt>
      <trkpt lat="47.65434" lon="1.48942">
        <ele>85</ele>
        <time>2019-01-11T20:47:53Z</time>
      </trkpt>
      <trkpt lat="47.65445" lon="1.48977">
        <ele>86</ele>
        <time>2019-01-11T20:47:54Z</time>
      </trkpt>
      <trkpt lat="47.65431" lon="1.48988">
        <ele>85</ele>
        <time>2019-01-11T20:47:55Z</time>
      </trkpt>
      <trkpt lat="47.65391" lon="1.49018">
        <ele>85</ele>
        <time>2019-01-11T20:47:56Z</time>
      </trkpt>
      <trkpt lat="47.65369" lon="1.4903">
        <ele>85</ele>
        <time>2019-01-11T20:47:57Z</time>
      </trkpt>
      <trkpt lat="47.65333" lon="1.49053">
        <ele>85</ele>
        <time>2019-01-11T20:47:58Z</time>
      </trkpt>
      <trkpt lat="47.65284" lon="1.49087">
        <ele>86</ele>
        <time>2019-01-11T20:47:59Z</time>
      </trkpt>
      <trkpt lat="47.65227" lon="1.49131">
        <ele>87</ele>
        <time>2019-01-11T20:48:00Z</time>
      </trkpt>
      <trkpt lat="47.65163" lon="1.49185">
        <ele>87</ele>
        <time>2019-01-11T20:48:01Z</time>
      </trkpt>
      <trkpt lat="47.65094" lon="1.49246">
        <ele>88</ele>
        <time>2019-01-11T20:48:02Z</time>
      </trkpt>
      <trkpt lat="47.65043" lon="1.49284">
        <ele>88</ele>
        <time>2019-01-11T20:48:03Z</time>
      </trkpt>
      <trkpt lat="47.65027" lon="1.49294">
        <ele>87</ele>
        <time>2019-01-11T20:48:04Z</time>
      </trkpt>
      <trkpt lat="47.65009" lon="1.49304">
        <ele>87</ele>
        <time>2019-01-11T20:48:05Z</time>
      </trkpt>
      <trkpt lat="47.64931" lon="1.4934">
        <ele>87</ele>
        <time>2019-01-11T20:48:06Z</time>
      </trkpt>
      <trkpt lat="47.64879" lon="1.49366">
        <ele>88</ele>
        <time>2019-01-11T20:48:07Z</time>
      </trkpt>
      <trkpt lat="47.64852" lon="1.49383">
        <ele>88</ele>
        <time>2019-01-11T20:48:08Z</time>
      </trkpt>
      <trkpt lat="47.64824" lon="1.494">
        <ele>89</ele>
        <time>2019-01-11T20:48:09Z</time>
      </trkpt>
      <trkpt lat="47.64757" lon="1.49446">
        <ele>89</ele>
        <time>2019-01-11T20:48:10Z</time>
      </trkpt>
      <trkpt lat="47.64637" lon="1.49533">
        <ele>89</ele>
        <time>2019-01-11T20:48:11Z</time>
      </trkpt>
      <trkpt lat="47.64555" lon="1.49588">
        <ele>88</ele>
        <time>2019-01-11T20:48:12Z</time>
      </trkpt>
      <trkpt lat="47.64528" lon="1.49606">
        <ele>88</ele>
        <time>2019-01-11T20:48:13Z</time>
      </trkpt>
      <trkpt lat="47.64513" lon="1.49612">
        <ele>88</ele>
        <time>2019-01-11T20:48:14Z</time>
      </trkpt>
      <trkpt lat="47.64422" lon="1.49644">
        <ele>90</ele>
        <time>2019-01-11T20:48:15Z</time>
      </trkpt>
      <trkpt lat="47.64382" lon="1.49657">
        <ele>89</ele>
        <time>2019-01-11T20:48:16Z</time>
      </trkpt>
      <trkpt lat="47.64358" lon="1.49665">
        <ele>89</ele>
        <time>2019-01-11T20:48:17Z</time>
      </trkpt>
      <trkpt lat="47.64345" lon="1.49667">
        <ele>88</ele>
        <time>2019-01-11T20:48:18Z</time>
      </trkpt>
      <trkpt lat="47.64331" lon="1.49668">
        <ele>88</ele>
        <time>2019-01-11T20:48:19Z</time>
      </trkpt>
      <trkpt lat="47.64186" lon="1.49672">
        <ele>89</ele>
        <time>2019-01-11T20:48:20Z</time>
      </trkpt>
      <trkpt lat="47.64094" lon="1.49674">
        <ele>88</ele>
        <time>2019-01-11T20:48:21Z</time>
      </trkpt>
      <trkpt lat="47.64065" lon="1.49674">
        <ele>88</ele>
        <time>2019-01-11T20:48:22Z</time>
      </trkpt>
      <trkpt lat="47.64031" lon="1.49671">
        <ele>89</ele>
        <time>2019-01-11T20:48:23Z</time>
      </trkpt>
      <trkpt lat="47.64008" lon="1.49667">
        <ele>89</ele>
        <time>2019-01-11T20:48:24Z</time>
      </trkpt>
      <trkpt lat="47.63964" lon="1.49654">
        <ele>89</ele>
        <time>2019-01-11T20:48:25Z</time>
      </trkpt>
      <trkpt lat="47.63864" lon="1.4944">
        <ele>89</ele>
        <time>2019-01-11T20:48:26Z</time>
      </trkpt>
      <trkpt lat="47.63823" lon="1.49364">
        <ele>90</ele>
        <time>2019-01-11T20:48:27Z</time>
      </trkpt>
      <trkpt lat="47.63812" lon="1.49337">
        <ele>90</ele>
        <time>2019-01-11T20:48:28Z</time>
      </trkpt>
      <trkpt lat="47.63801" lon="1.49312">
        <ele>90</ele>
        <time>2019-01-11T20:48:29Z</time>
      </trkpt>
      <trkpt lat="47.63763" lon="1.49231">
        <ele>91</ele>
        <time>2019-01-11T20:48:30Z</time>
      </trkpt>
      <trkpt lat="47.63727" lon="1.49156">
        <ele>89</ele>
        <time>2019-01-11T20:48:31Z</time>
      </trkpt>
      <trkpt lat="47.63721" lon="1.49153">
        <ele>90</ele>
        <time>2019-01-11T20:48:32Z</time>
      </trkpt>
      <trkpt lat="47.63715" lon="1.49155">
        <ele>90</ele>
        <time>2019-01-11T20:48:33Z</time>
      </trkpt>
      <trkpt lat="47.63682" lon="1.49191">
        <ele>94</ele>
        <time>2019-01-11T20:48:34Z</time>
      </trkpt>
      <trkpt lat="47.63496" lon="1.49386">
        <ele>95</ele>
        <time>2019-01-11T20:48:35Z</time>
      </trkpt>
      <trkpt lat="47.63465" lon="1.49417">
        <ele>92</ele>
        <time>2019-01-11T20:48:36Z</time>
      </trkpt>
      <trkpt lat="47.63449" lon="1.49439">
        <ele>91</ele>
        <time>2019-01-11T20:48:37Z</time>
      </trkpt>
      <trkpt lat="47.6345" lon="1.4945">
        <ele>91</ele>
        <time>2019-01-11T20:48:38Z</time>
      </trkpt>
      <trkpt lat="47.63455" lon="1.49469">
        <ele>91</ele>
        <time>2019-01-11T20:48:39Z</time>
      </trkpt>
      <trkpt lat="47.63455" lon="1.49478">
        <ele>91</ele>
        <time>2019-01-11T20:48:40Z</time>
      </trkpt>
      <trkpt lat="47.63454" lon="1.4949">
        <ele>91</ele>
        <time>2019-01-11T20:48:41Z</time>
      </trkpt>
      <trkpt lat="47.63452" lon="1.49498">
        <ele>91</ele>
        <time>2019-01-11T20:48:42Z</time>
      </trkpt>
      <trkpt lat="47.63445" lon="1.49514">
        <ele>91</ele>
        <time>2019-01-11T20:48:43Z</time>
      </trkpt>
      <trkpt lat="47.63435" lon="1.49528">
        <ele>91</ele>
        <time>2019-01-11T20:48:44Z</time>
      </trkpt>
      <trkpt lat="47.63378" lon="1.49571">
        <ele>92</ele>
        <time>2019-01-11T20:48:45Z</time>
      </trkpt>
      <trkpt lat="47.63373" lon="1.49573">
        <ele>92</ele>
        <time>2019-01-11T20:48:46Z</time>
      </trkpt>
      <trkpt lat="47.63367" lon="1.49574">
        <ele>92</ele>
        <time>2019-01-11T20:48:47Z</time>
      </trkpt>
      <trkpt lat="47.63345" lon="1.49575">
        <ele>92</ele>
        <time>2019-01-11T20:48:48Z</time>
      </trkpt>
      <trkpt lat="47.63338" lon="1.49578">
        <ele>92</ele>
        <time>2019-01-11T20:48:49Z</time>
      </trkpt>
      <trkpt lat="47.63206" lon="1.49683">
        <ele>96</ele>
        <time>2019-01-11T20:48:50Z</time>
      </trkpt>
      <trkpt lat="47.63136" lon="1.49743">
        <ele>97</ele>
        <time>2019-01-11T20:48:51Z</time>
      </trkpt>
      <trkpt lat="47.63094" lon="1.49775">
        <ele>98</ele>
        <time>2019-01-11T20:48:52Z</time>
      </trkpt>
      <trkpt lat="47.6308" lon="1.4979">
        <ele>98</ele>
        <time>2019-01-11T20:48:53Z</time>
      </trkpt>
      <trkpt lat="47.63039" lon="1.49827">
        <ele>98</ele>
        <time>2019-01-11T20:48:54Z</time>
      </trkpt>
      <trkpt lat="47.63033" lon="1.49836">
        <ele>98</ele>
        <time>2019-01-11T20:48:55Z</time>
      </trkpt>
      <trkpt lat="47.63031" lon="1.49848">
        <ele>98</ele>
        <time>2019-01-11T20:48:56Z</time>
      </trkpt>
      <trkpt lat="47.6303" lon="1.49875">
        <ele>99</ele>
        <time>2019-01-11T20:48:57Z</time>
      </trkpt>
      <trkpt lat="47.63027" lon="1.49893">
        <ele>99</ele>
        <time>2019-01-11T20:48:58Z</time>
      </trkpt>
      <trkpt lat="47.6302" lon="1.49892">
        <ele>99</ele>
        <time>2019-01-11T20:48:59Z</time>
      </trkpt>
      <trkpt lat="47.62984" lon="1.49885">
        <ele>99</ele>
        <time>2019-01-11T20:49:00Z</time>
      </trkpt>
      <trkpt lat="47.62982" lon="1.49892">
        <ele>99</ele>
        <time>2019-01-11T20:49:01Z</time>
      </trkpt>
      <trkpt lat="47.62975" lon="1.49894">
        <ele>99</ele>
        <time>2019-01-11T20:49:02Z</time>
      </trkpt>
      <trkpt lat="47.62969" lon="1.49905">
        <ele>99</ele>
        <time>2019-01-11T20:49:03Z</time>
      </trkpt>
      <trkpt lat="47.62954" lon="1.49925">
        <ele>100</ele>
        <time>2019-01-11T20:49:04Z</time>
      </trkpt>
      <trkpt lat="47.62948" lon="1.49931">
        <ele>101</ele>
        <time>2019-01-11T20:49:05Z</time>
      </trkpt>
      <trkpt lat="47.62894" lon="1.49936">
        <ele>103</ele>
        <time>2019-01-11T20:49:06Z</time>
      </trkpt>
      <trkpt lat="47.62811" lon="1.49947">
        <ele>108</ele>
        <time>2019-01-11T20:49:07Z</time>
      </trkpt>
      <trkpt lat="47.62678" lon="1.49966">
        <ele>108</ele>
        <time>2019-01-11T20:49:08Z</time>
      </trkpt>
      <trkpt lat="47.6244" lon="1.49996">
        <ele>106</ele>
        <time>2019-01-11T20:49:09Z</time>
      </trkpt>
      <trkpt lat="47.62199" lon="1.50025">
        <ele>100</ele>
        <time>2019-01-11T20:49:10Z</time>
      </trkpt>
      <trkpt lat="47.62071" lon="1.50036">
        <ele>93</ele>
        <time>2019-01-11T20:49:11Z</time>
      </trkpt>
      <trkpt lat="47.62063" lon="1.50044">
        <ele>93</ele>
        <time>2019-01-11T20:49:12Z</time>
      </trkpt>
      <trkpt lat="47.6199" lon="1.50136">
        <ele>90</ele>
        <time>2019-01-11T20:49:13Z</time>
      </trkpt>
      <trkpt lat="47.61974" lon="1.5016">
        <ele>89</ele>
        <time>2019-01-11T20:49:14Z</time>
      </trkpt>
      <trkpt lat="47.61967" lon="1.50161">
        <ele>88</ele>
        <time>2019-01-11T20:49:15Z</time>
      </trkpt>
      <trkpt lat="47.61952" lon="1.50175">
        <ele>87</ele>
        <time>2019-01-11T20:49:16Z</time>
      </trkpt>
      <trkpt lat="47.61927" lon="1.50202">
        <ele>86</ele>
        <time>2019-01-11T20:49:17Z</time>
      </trkpt>
      <trkpt lat="47.61903" lon="1.5024">
        <ele>87</ele>
        <time>2019-01-11T20:49:18Z</time>
      </trkpt>
      <trkpt lat="47.61858" lon="1.50298">
        <ele>85</ele>
        <time>2019-01-11T20:49:19Z</time>
      </trkpt>
      <trkpt lat="47.61832" lon="1.5033">
        <ele>84</ele>
        <time>2019-01-11T20:49:20Z</time>
      </trkpt>
      <trkpt lat="47.6182" lon="1.50322">
        <ele>83</ele>
        <time>2019-01-11T20:49:21Z</time>
      </trkpt>
      <trkpt lat="47.61814" lon="1.50321">
        <ele>83</ele>
        <time>2019-01-11T20:49:22Z</time>
      </trkpt>
      <trkpt lat="47.61807" lon="1.50323">
        <ele>82</ele>
        <time>2019-01-11T20:49:23Z</time>
      </trkpt>
      <trkpt lat="47.6175" lon="1.50351">
        <ele>79</ele>
        <time>2019-01-11T20:49:24Z</time>
      </trkpt>
      <trkpt lat="47.6164" lon="1.50245">
        <ele>75</ele>
        <time>2019-01-11T20:49:25Z</time>
      </trkpt>
      <trkpt lat="47.61634" lon="1.50243">
        <ele>75</ele>
        <time>2019-01-11T20:49:26Z</time>
      </trkpt>
      <trkpt lat="47.616" lon="1.50245">
        <ele>72</ele>
        <time>2019-01-11T20:49:27Z</time>
      </trkpt>
      <trkpt lat="47.61541" lon="1.50252">
        <ele>76</ele>
        <time>2019-01-11T20:49:28Z</time>
      </trkpt>
      <trkpt lat="47.61517" lon="1.50259">
        <ele>79</ele>
        <time>2019-01-11T20:49:29Z</time>
      </trkpt>
      <trkpt lat="47.61509" lon="1.50262">
        <ele>80</ele>
        <time>2019-01-11T20:49:30Z</time>
      </trkpt>
      <trkpt lat="47.61505" lon="1.5027">
        <ele>81</ele>
        <time>2019-01-11T20:49:31Z</time>
      </trkpt>
      <trkpt lat="47.61504" lon="1.5028">
        <ele>82</ele>
        <time>2019-01-11T20:49:32Z</time>
      </trkpt>
      <trkpt lat="47.61503" lon="1.50315">
        <ele>84</ele>
        <time>2019-01-11T20:49:33Z</time>
      </trkpt>
      <trkpt lat="47.61505" lon="1.50363">
        <ele>85</ele>
        <time>2019-01-11T20:49:34Z</time>
      </trkpt>
      <trkpt lat="47.61505" lon="1.50398">
        <ele>86</ele>
        <time>2019-01-11T20:49:35Z</time>
      </trkpt>
      <trkpt lat="47.6149" lon="1.50426">
        <ele>87</ele>
        <time>2019-01-11T20:49:36Z</time>
      </trkpt>
      <trkpt lat="47.6148" lon="1.50449">
        <ele>88</ele>
        <time>2019-01-11T20:49:37Z</time>
      </trkpt>
      <trkpt lat="47.61472" lon="1.50482">
        <ele>88</ele>
        <time>2019-01-11T20:49:38Z</time>
      </trkpt>
      <trkpt lat="47.61466" lon="1.50512">
        <ele>89</ele>
        <time>2019-01-11T20:49:39Z</time>
      </trkpt>
      <trkpt lat="47.61458" lon="1.50551">
        <ele>89</ele>
        <time>2019-01-11T20:49:40Z</time>
      </trkpt>
      <trkpt lat="47.61444" lon="1.50536">
        <ele>89</ele>
        <time>2019-01-11T20:49:41Z</time>
      </trkpt>
      <trkpt lat="47.61429" lon="1.50542">
        <ele>90</ele>
        <time>2019-01-11T20:49:42Z</time>
      </trkpt>
      <trkpt lat="47.61431" lon="1.50485">
        <ele>89</ele>
        <time>2019-01-11T20:49:43Z</time>
      </trkpt>
      <trkpt lat="47.61429" lon="1.50475">
        <ele>89</ele>
        <time>2019-01-11T20:49:44Z</time>
      </trkpt>
      <trkpt lat="47.61427" lon="1.50463">
        <ele>88</ele>
        <time>2019-01-11T20:49:45Z</time>
      </trkpt>
      <trkpt lat="47.61426" lon="1.5044">
        <ele>88</ele>
        <time>2019-01-11T20:49:46Z</time>
      </trkpt>
      <trkpt lat="47.61424" lon="1.50348">
        <ele>89</ele>
        <time>2019-01-11T20:49:47Z</time>
      </trkpt>
      <trkpt lat="47.61423" lon="1.50301">
        <ele>89</ele>
        <time>2019-01-11T20:49:48Z</time>
      </trkpt>
      <trkpt lat="47.61419" lon="1.50248">
        <ele>89</ele>
        <time>2019-01-11T20:49:49Z</time>
      </trkpt>
      <trkpt lat="47.6141" lon="1.50196">
        <ele>89</ele>
        <time>2019-01-11T20:49:50Z</time>
      </trkpt>
      <trkpt lat="47.61385" lon="1.50071">
        <ele>89</ele>
        <time>2019-01-11T20:49:51Z</time>
      </trkpt>
      <trkpt lat="47.61376" lon="1.50028">
        <ele>88</ele>
        <time>2019-01-11T20:49:52Z</time>
      </trkpt>
      <trkpt lat="47.61353" lon="1.49953">
        <ele>89</ele>
        <time>2019-01-11T20:49:53Z</time>
      </trkpt>
      <trkpt lat="47.61302" lon="1.49734">
        <ele>87</ele>
        <time>2019-01-11T20:49:54Z</time>
      </trkpt>
      <trkpt lat="47.61218" lon="1.49324">
        <ele>84</ele>
        <time>2019-01-11T20:49:55Z</time>
      </trkpt>
      <trkpt lat="47.61101" lon="1.48926">
        <ele>84</ele>
        <time>2019-01-11T20:49:56Z</time>
      </trkpt>
      <trkpt lat="47.61081" lon="1.48868">
        <ele>85</ele>
        <time>2019-01-11T20:49:57Z</time>
      </trkpt>
      <trkpt lat="47.61055" lon="1.48796">
        <ele>85</ele>
        <time>2019-01-11T20:49:58Z</time>
      </trkpt>
      <trkpt lat="47.61006" lon="1.48678">
        <ele>84</ele>
        <time>2019-01-11T20:49:59Z</time>
      </trkpt>
      <trkpt lat="47.6097" lon="1.4861">
        <ele>83</ele>
        <time>2019-01-11T20:50:00Z</time>
      </trkpt>
      <trkpt lat="47.60907" lon="1.48486">
        <ele>83</ele>
        <time>2019-01-11T20:50:01Z</time>
      </trkpt>
      <trkpt lat="47.60823" lon="1.48311">
        <ele>83</ele>
        <time>2019-01-11T20:50:02Z</time>
      </trkpt>
      <trkpt lat="47.6076" lon="1.482">
        <ele>81</ele>
        <time>2019-01-11T20:50:03Z</time>
      </trkpt>
      <trkpt lat="47.60672" lon="1.48067">
        <ele>83</ele>
        <time>2019-01-11T20:50:04Z</time>
      </trkpt>
      <trkpt lat="47.60571" lon="1.47927">
        <ele>83</ele>
        <time>2019-01-11T20:50:05Z</time>
      </trkpt>
      <trkpt lat="47.60464" lon="1.47776">
        <ele>82</ele>
        <time>2019-01-11T20:50:06Z</time>
      </trkpt>
      <trkpt lat="47.60448" lon="1.47758">
        <ele>82</ele>
        <time>2019-01-11T20:50:07Z</time>
      </trkpt>
      <trkpt lat="47.60434" lon="1.47748">
        <ele>81</ele>
        <time>2019-01-11T20:50:08Z</time>
      </trkpt>
      <trkpt lat="47.60418" lon="1.47742">
        <ele>81</ele>
        <time>2019-01-11T20:50:09Z</time>
      </trkpt>
      <trkpt lat="47.60404" lon="1.47717">
        <ele>81</ele>
        <time>2019-01-11T20:50:10Z</time>
      </trkpt>
      <trkpt lat="47.60344" lon="1.47621">
        <ele>78</ele>
        <time>2019-01-11T20:50:11Z</time>
      </trkpt>
      <trkpt lat="47.60294" lon="1.4754">
        <ele>79</ele>
        <time>2019-01-11T20:50:12Z</time>
      </trkpt>
      <trkpt lat="47.60274" lon="1.47507">
        <ele>80</ele>
        <time>2019-01-11T20:50:13Z</time>
      </trkpt>
      <trkpt lat="47.60267" lon="1.4749">
        <ele>80</ele>
        <time>2019-01-11T20:50:14Z</time>
      </trkpt>
      <trkpt lat="47.60264" lon="1.47505">
        <ele>80</ele>
        <time>2019-01-11T20:50:15Z</time>
      </trkpt>
      <trkpt lat="47.60252" lon="1.47528">
        <ele>81</ele>
        <time>2019-01-11T20:50:16Z</time>
      </trkpt>
      <trkpt lat="47.60244" lon="1.47542">
        <ele>81</ele>
        <time>2019-01-11T20:50:17Z</time>
      </trkpt>
      <trkpt lat="47.60227" lon="1.47567">
        <ele>82</ele>
        <time>2019-01-11T20:50:18Z</time>
      </trkpt>
      <trkpt lat="47.60212" lon="1.47591">
        <ele>82</ele>
        <time>2019-01-11T20:50:19Z</time>
      </trkpt>
      <trkpt lat="47.6019" lon="1.47619">
        <ele>83</ele>
        <time>2019-01-11T20:50:20Z</time>
      </trkpt>
      <trkpt lat="47.60147" lon="1.47672">
        <ele>84</ele>
        <time>2019-01-11T20:50:21Z</time>
      </trkpt>
      <trkpt lat="47.6005" lon="1.47783">
        <ele>84</ele>
        <time>2019-01-11T20:50:22Z</time>
      </trkpt>
      <trkpt lat="47.60015" lon="1.47818">
        <ele>85</ele>
        <time>2019-01-11T20:50:23Z</time>
      </trkpt>
      <trkpt lat="47.59992" lon="1.4784">
        <ele>85</ele>
        <time>2019-01-11T20:50:24Z</time>
      </trkpt>
      <trkpt lat="47.59946" lon="1.47884">
        <ele>86</ele>
        <time>2019-01-11T20:50:25Z</time>
      </trkpt>
      <trkpt lat="47.5994" lon="1.47884">
        <ele>86</ele>
        <time>2019-01-11T20:50:26Z</time>
      </trkpt>
      <trkpt lat="47.59936" lon="1.4788">
        <ele>86</ele>
        <time>2019-01-11T20:50:27Z</time>
      </trkpt>
      <trkpt lat="47.59927" lon="1.47866">
        <ele>85</ele>
        <time>2019-01-11T20:50:28Z</time>
      </trkpt>
      <trkpt lat="47.59886" lon="1.47806">
        <ele>86</ele>
        <time>2019-01-11T20:50:29Z</time>
      </trkpt>
      <trkpt lat="47.59869" lon="1.47779">
        <ele>86</ele>
        <time>2019-01-11T20:50:30Z</time>
      </trkpt>
      <trkpt lat="47.59857" lon="1.4776">
        <ele>86</ele>
        <time>2019-01-11T20:50:31Z</time>
      </trkpt>
      <trkpt lat="47.59846" lon="1.47742">
        <ele>87</ele>
        <time>2019-01-11T20:50:32Z</time>
      </trkpt>
      <trkpt lat="47.59834" lon="1.47713">
        <ele>87</ele>
        <time>2019-01-11T20:50:33Z</time>
      </trkpt>
      <trkpt lat="47.59822" lon="1.47681">
        <ele>86</ele>
        <time>2019-01-11T20:50:34Z</time>
      </trkpt>
      <trkpt lat="47.59801" lon="1.47633">
        <ele>86</ele>
        <time>2019-01-11T20:50:35Z</time>
      </trkpt>
      <trkpt lat="47.59792" lon="1.47606">
        <ele>85</ele>
        <time>2019-01-11T20:50:36Z</time>
      </trkpt>
      <trkpt lat="47.5978" lon="1.47611">
        <ele>85</ele>
        <time>2019-01-11T20:50:37Z</time>
      </trkpt>
      <trkpt lat="47.59771" lon="1.47616">
        <ele>85</ele>
        <time>2019-01-11T20:50:38Z</time>
      </trkpt>
      <trkpt lat="47.59758" lon="1.47621">
        <ele>85</ele>
        <time>2019-01-11T20:50:39Z</time>
      </trkpt>
      <trkpt lat="47.59744" lon="1.47624">
        <ele>86</ele>
        <time>2019-01-11T20:50:40Z</time>
      </trkpt>
      <trkpt lat="47.59716" lon="1.47628">
        <ele>86</ele>
        <time>2019-01-11T20:50:41Z</time>
      </trkpt>
      <trkpt lat="47.59672" lon="1.47642">
        <ele>86</ele>
        <time>2019-01-11T20:50:42Z</time>
      </trkpt>
      <trkpt lat="47.59634" lon="1.47657">
        <ele>86</ele>
        <time>2019-01-11T20:50:43Z</time>
      </trkpt>
      <trkpt lat="47.596" lon="1.47671">
        <ele>87</ele>
        <time>2019-01-11T20:50:44Z</time>
      </trkpt>
      <trkpt lat="47.59589" lon="1.47672">
        <ele>87</ele>
        <time>2019-01-11T20:50:45Z</time>
      </trkpt>
      <trkpt lat="47.59581" lon="1.47672">
        <ele>87</ele>
        <time>2019-01-11T20:50:46Z</time>
      </trkpt>
      <trkpt lat="47.59572" lon="1.4767">
        <ele>87</ele>
        <time>2019-01-11T20:50:47Z</time>
      </trkpt>
      <trkpt lat="47.59561" lon="1.47665">
        <ele>87</ele>
        <time>2019-01-11T20:50:48Z</time>
      </trkpt>
      <trkpt lat="47.59494" lon="1.47609">
        <ele>88</ele>
        <time>2019-01-11T20:50:49Z</time>
      </trkpt>
      <trkpt lat="47.59478" lon="1.47601">
        <ele>88</ele>
        <time>2019-01-11T20:50:50Z</time>
      </trkpt>
      <trkpt lat="47.5947" lon="1.476">
        <ele>88</ele>
        <time>2019-01-11T20:50:51Z</time>
      </trkpt>
      <trkpt lat="47.59463" lon="1.47601">
        <ele>87</ele>
        <time>2019-01-11T20:50:52Z</time>
      </trkpt>
      <trkpt lat="47.59312" lon="1.47674">
        <ele>88</ele>
        <time>2019-01-11T20:50:53Z</time>
      </trkpt>
      <trkpt lat="47.59296" lon="1.47681">
        <ele>87</ele>
        <time>2019-01-11T20:50:54Z</time>
      </trkpt>
      <trkpt lat="47.59211" lon="1.47726">
        <ele>88</ele>
        <time>2019-01-11T20:50:55Z</time>
      </trkpt>
      <trkpt lat="47.59203" lon="1.47729">
        <ele>88</ele>
        <time>2019-01-11T20:50:56Z</time>
      </trkpt>
      <trkpt lat="47.59196" lon="1.47728">
        <ele>88</ele>
        <time>2019-01-11T20:50:57Z</time>
      </trkpt>
      <trkpt lat="47.59192" lon="1.47714">
        <ele>88</ele>
        <time>2019-01-11T20:50:58Z</time>
      </trkpt>
      <trkpt lat="47.59177" lon="1.47629">
        <ele>89</ele>
        <time>2019-01-11T20:50:59Z</time>
      </trkpt>
      <trkpt lat="47.5917" lon="1.47595">
        <ele>89</ele>
        <time>2019-01-11T20:51:00Z</time>
      </trkpt>
      <trkpt lat="47.59158" lon="1.47535">
        <ele>91</ele>
        <time>2019-01-11T20:51:01Z</time>
      </trkpt>
      <trkpt lat="47.59149" lon="1.47502">
        <ele>92</ele>
        <time>2019-01-11T20:51:02Z</time>
      </trkpt>
      <trkpt lat="47.59142" lon="1.475">
        <ele>92</ele>
        <time>2019-01-11T20:51:03Z</time>
      </trkpt>
      <trkpt lat="47.59076" lon="1.4755">
        <ele>90</ele>
        <time>2019-01-11T20:51:04Z</time>
      </trkpt>
      <trkpt lat="47.59061" lon="1.47559">
        <ele>89</ele>
        <time>2019-01-11T20:51:05Z</time>
      </trkpt>
      <trkpt lat="47.59053" lon="1.47558">
        <ele>89</ele>
        <time>2019-01-11T20:51:06Z</time>
      </trkpt>
      <trkpt lat="47.59049" lon="1.47546">
        <ele>89</ele>
        <time>2019-01-11T20:51:07Z</time>
      </trkpt>
      <trkpt lat="47.59045" lon="1.47511">
        <ele>90</ele>
        <time>2019-01-11T20:51:08Z</time>
      </trkpt>
      <trkpt lat="47.59042" lon="1.4746">
        <ele>91</ele>
        <time>2019-01-11T20:51:09Z</time>
      </trkpt>
      <trkpt lat="47.5904" lon="1.4744">
        <ele>90</ele>
        <time>2019-01-11T20:51:10Z</time>
      </trkpt>
      <trkpt lat="47.59034" lon="1.47379">
        <ele>90</ele>
        <time>2019-01-11T20:51:11Z</time>
      </trkpt>
      <trkpt lat="47.59029" lon="1.47349">
        <ele>90</ele>
        <time>2019-01-11T20:51:12Z</time>
      </trkpt>
      <trkpt lat="47.5902" lon="1.47305">
        <ele>90</ele>
        <time>2019-01-11T20:51:13Z</time>
      </trkpt>
      <trkpt lat="47.59012" lon="1.47267">
        <ele>91</ele>
        <time>2019-01-11T20:51:14Z</time>
      </trkpt>
      <trkpt lat="47.59007" lon="1.47237">
        <ele>91</ele>
        <time>2019-01-11T20:51:15Z</time>
      </trkpt>
      <trkpt lat="47.59003" lon="1.47205">
        <ele>90</ele>
        <time>2019-01-11T20:51:16Z</time>
      </trkpt>
      <trkpt lat="47.58999" lon="1.47161">
        <ele>89</ele>
        <time>2019-01-11T20:51:17Z</time>
      </trkpt>
      <trkpt lat="47.58997" lon="1.47133">
        <ele>88</ele>
        <time>2019-01-11T20:51:18Z</time>
      </trkpt>
      <trkpt lat="47.58995" lon="1.47098">
        <ele>87</ele>
        <time>2019-01-11T20:51:19Z</time>
      </trkpt>
      <trkpt lat="47.58992" lon="1.4705">
        <ele>87</ele>
        <time>2019-01-11T20:51:20Z</time>
      </trkpt>
      <trkpt lat="47.5899" lon="1.46991">
        <ele>88</ele>
        <time>2019-01-11T20:51:21Z</time>
      </trkpt>
      <trkpt lat="47.58986" lon="1.46903">
        <ele>87</ele>
        <time>2019-01-11T20:51:22Z</time>
      </trkpt>
      <trkpt lat="47.58984" lon="1.46852">
        <ele>86</ele>
        <time>2019-01-11T20:51:23Z</time>
      </trkpt>
      <trkpt lat="47.5898" lon="1.46803">
        <ele>86</ele>
        <time>2019-01-11T20:51:24Z</time>
      </trkpt>
      <trkpt lat="47.58978" lon="1.46772">
        <ele>86</ele>
        <time>2019-01-11T20:51:25Z</time>
      </trkpt>
      <trkpt lat="47.58971" lon="1.46679">
        <ele>86</ele>
        <time>2019-01-11T20:51:26Z</time>
      </trkpt>
      <trkpt lat="47.58972" lon="1.46659">
        <ele>86</ele>
        <time>2019-01-11T20:51:27Z</time>
      </trkpt>
      <trkpt lat="47.58975" lon="1.46637">
        <ele>86</ele>
        <time>2019-01-11T20:51:28Z</time>
      </trkpt>
      <trkpt lat="47.58984" lon="1.46584">
        <ele>87</ele>
        <time>2019-01-11T20:51:29Z</time>
      </trkpt>
      <trkpt lat="47.59001" lon="1.46485">
        <ele>87</ele>
        <time>2019-01-11T20:51:30Z</time>
      </trkpt>
      <trkpt lat="47.59003" lon="1.46471">
        <ele>86</ele>
        <time>2019-01-11T20:51:31Z</time>
      </trkpt>
      <trkpt lat="47.59004" lon="1.46456">
        <ele>86</ele>
        <time>2019-01-11T20:51:32Z</time>
      </trkpt>
      <trkpt lat="47.59005" lon="1.4644">
        <ele>86</ele>
        <time>2019-01-11T20:51:33Z</time>
      </trkpt>
      <trkpt lat="47.59005" lon="1.46423">
        <ele>85</ele>
        <time>2019-01-11T20:51:34Z</time>
      </trkpt>
      <trkpt lat="47.59005" lon="1.46389">
        <ele>85</ele>
        <time>2019-01-11T20:51:35Z</time>
      </trkpt>
      <trkpt lat="47.59003" lon="1.46356">
        <ele>85</ele>
        <time>2019-01-11T20:51:36Z</time>
      </trkpt>
      <trkpt lat="47.59001" lon="1.46281">
        <ele>84</ele>
        <time>2019-01-11T20:51:37Z</time>
      </trkpt>
      <trkpt lat="47.59" lon="1.46235">
        <ele>84</ele>
        <time>2019-01-11T20:51:38Z</time>
      </trkpt>
      <trkpt lat="47.59" lon="1.462">
        <ele>83</ele>
        <time>2019-01-11T20:51:39Z</time>
      </trkpt>
      <trkpt lat="47.59001" lon="1.46173">
        <ele>82</ele>
        <time>2019-01-11T20:51:40Z</time>
      </trkpt>
      <trkpt lat="47.59003" lon="1.4615">
        <ele>82</ele>
        <time>2019-01-11T20:51:41Z</time>
      </trkpt>
      <trkpt lat="47.59003" lon="1.46142">
        <ele>81</ele>
        <time>2019-01-11T20:51:42Z</time>
      </trkpt>
      <trkpt lat="47.59018" lon="1.46078">
        <ele>81</ele>
        <time>2019-01-11T20:51:43Z</time>
      </trkpt>
      <trkpt lat="47.59025" lon="1.46055">
        <ele>81</ele>
        <time>2019-01-11T20:51:44Z</time>
      </trkpt>
      <trkpt lat="47.59031" lon="1.46037">
        <ele>81</ele>
        <time>2019-01-11T20:51:45Z</time>
      </trkpt>
      <trkpt lat="47.59036" lon="1.46024">
        <ele>81</ele>
        <time>2019-01-11T20:51:46Z</time>
      </trkpt>
      <trkpt lat="47.59043" lon="1.46011">
        <ele>82</ele>
        <time>2019-01-11T20:51:47Z</time>
      </trkpt>
      <trkpt lat="47.59057" lon="1.45992">
        <ele>82</ele>
        <time>2019-01-11T20:51:48Z</time>
      </trkpt>
      <trkpt lat="47.59075" lon="1.4597">
        <ele>82</ele>
        <time>2019-01-11T20:51:49Z</time>
      </trkpt>
      <trkpt lat="47.59096" lon="1.45943">
        <ele>82</ele>
        <time>2019-01-11T20:51:50Z</time>
      </trkpt>
      <trkpt lat="47.59112" lon="1.45926">
        <ele>81</ele>
        <time>2019-01-11T20:51:51Z</time>
      </trkpt>
      <trkpt lat="47.59133" lon="1.45904">
        <ele>81</ele>
        <time>2019-01-11T20:51:52Z</time>
      </trkpt>
      <trkpt lat="47.59179" lon="1.45864">
        <ele>79</ele>
        <time>2019-01-11T20:51:53Z</time>
      </trkpt>
      <trkpt lat="47.59201" lon="1.45849">
        <ele>78</ele>
        <time>2019-01-11T20:51:54Z</time>
      </trkpt>
      <trkpt lat="47.59209" lon="1.45843">
        <ele>77</ele>
        <time>2019-01-11T20:51:55Z</time>
      </trkpt>
      <trkpt lat="47.59216" lon="1.4584">
        <ele>77</ele>
        <time>2019-01-11T20:51:56Z</time>
      </trkpt>
      <trkpt lat="47.59224" lon="1.45838">
        <ele>77</ele>
        <time>2019-01-11T20:51:57Z</time>
      </trkpt>
      <trkpt lat="47.59264" lon="1.45831">
        <ele>76</ele>
        <time>2019-01-11T20:51:58Z</time>
      </trkpt>
      <trkpt lat="47.59271" lon="1.45831">
        <ele>76</ele>
        <time>2019-01-11T20:51:59Z</time>
      </trkpt>
      <trkpt lat="47.59276" lon="1.45824">
        <ele>76</ele>
        <time>2019-01-11T20:52:00Z</time>
      </trkpt>
      <trkpt lat="47.59282" lon="1.45814">
        <ele>76</ele>
        <time>2019-01-11T20:52:01Z</time>
      </trkpt>
      <trkpt lat="47.59284" lon="1.45806">
        <ele>76</ele>
        <time>2019-01-11T20:52:02Z</time>
      </trkpt>
      <trkpt lat="47.59287" lon="1.45795">
        <ele>76</ele>
        <time>2019-01-11T20:52:03Z</time>
      </trkpt>
      <trkpt lat="47.59293" lon="1.45777">
        <ele>76</ele>
        <time>2019-01-11T20:52:04Z</time>
      </trkpt>
      <trkpt lat="47.59298" lon="1.45761">
        <ele>76</ele>
        <time>2019-01-11T20:52:05Z</time>
      </trkpt>
      <trkpt lat="47.59305" lon="1.45746">
        <ele>76</ele>
        <time>2019-01-11T20:52:06Z</time>
      </trkpt>
      <trkpt lat="47.5931" lon="1.45734">
        <ele>77</ele>
        <time>2019-01-11T20:52:07Z</time>
      </trkpt>
      <trkpt lat="47.5933" lon="1.45704">
        <ele>77</ele>
        <time>2019-01-11T20:52:08Z</time>
      </trkpt>
      <trkpt lat="47.59352" lon="1.45671">
        <ele>77</ele>
        <time>2019-01-11T20:52:09Z</time>
      </trkpt>
      <trkpt lat="47.59348" lon="1.45637">
        <ele>77</ele>
        <time>2019-01-11T20:52:10Z</time>
      </trkpt>
      <trkpt lat="47.59342" lon="1.45594">
        <ele>78</ele>
        <time>2019-01-11T20:52:11Z</time>
      </trkpt>
      <trkpt lat="47.59338" lon="1.45573">
        <ele>78</ele>
        <time>2019-01-11T20:52:12Z</time>
      </trkpt>
      <trkpt lat="47.59333" lon="1.45557">
        <ele>78</ele>
        <time>2019-01-11T20:52:13Z</time>
      </trkpt>
      <trkpt lat="47.59325" lon="1.45535">
        <ele>78</ele>
        <time>2019-01-11T20:52:14Z</time>
      </trkpt>
      <trkpt lat="47.59315" lon="1.45503">
        <ele>79</ele>
        <time>2019-01-11T20:52:15Z</time>
      </trkpt>
      <trkpt lat="47.5931" lon="1.45491">
        <ele>79</ele>
        <time>2019-01-11T20:52:16Z</time>
      </trkpt>
      <trkpt lat="47.59303" lon="1.45481">
        <ele>79</ele>
        <time>2019-01-11T20:52:17Z</time>
      </trkpt>
      <trkpt lat="47.59287" lon="1.45464">
        <ele>80</ele>
        <time>2019-01-11T20:52:18Z</time>
      </trkpt>
      <trkpt lat="47.59278" lon="1.45453">
        <ele>80</ele>
        <time>2019-01-11T20:52:19Z</time>
      </trkpt>
      <trkpt lat="47.59271" lon="1.45443">
        <ele>80</ele>
        <time>2019-01-11T20:52:20Z</time>
      </trkpt>
      <trkpt lat="47.59267" lon="1.45436">
        <ele>80</ele>
        <time>2019-01-11T20:52:21Z</time>
      </trkpt>
      <trkpt lat="47.59251" lon="1.45384">
        <ele>81</ele>
        <time>2019-01-11T20:52:22Z</time>
      </trkpt>
      <trkpt lat="47.59237" lon="1.45336">
        <ele>80</ele>
        <time>2019-01-11T20:52:23Z</time>
      </trkpt>
      <trkpt lat="47.59234" lon="1.45317">
        <ele>80</ele>
        <time>2019-01-11T20:52:24Z</time>
      </trkpt>
      <trkpt lat="47.59231" lon="1.45297">
        <ele>80</ele>
        <time>2019-01-11T20:52:25Z</time>
      </trkpt>
      <trkpt lat="47.5923" lon="1.45272">
        <ele>79</ele>
        <time>2019-01-11T20:52:26Z</time>
      </trkpt>
      <trkpt lat="47.59229" lon="1.45257">
        <ele>79</ele>
        <time>2019-01-11T20:52:27Z</time>
      </trkpt>
      <trkpt lat="47.59227" lon="1.4524">
        <ele>78</ele>
        <time>2019-01-11T20:52:28Z</time>
      </trkpt>
      <trkpt lat="47.59257" lon="1.45226">
        <ele>78</ele>
        <time>2019-01-11T20:52:29Z</time>
      </trkpt>
      <trkpt lat="47.59293" lon="1.45208">
        <ele>77</ele>
        <time>2019-01-11T20:52:30Z</time>
      </trkpt>
      <trkpt lat="47.59346" lon="1.45178">
        <ele>75</ele>
        <time>2019-01-11T20:52:31Z</time>
      </trkpt>
      <trkpt lat="47.5937" lon="1.45153">
        <ele>75</ele>
        <time>2019-01-11T20:52:32Z</time>
      </trkpt>
      <trkpt lat="47.59384" lon="1.45136">
        <ele>75</ele>
        <time>2019-01-11T20:52:33Z</time>
      </trkpt>
      <trkpt lat="47.59392" lon="1.45125">
        <ele>76</ele>
        <time>2019-01-11T20:52:34Z</time>
      </trkpt>
      <trkpt lat="47.59398" lon="1.45117">
        <ele>76</ele>
        <time>2019-01-11T20:52:35Z</time>
      </trkpt>
      <trkpt lat="47.59403" lon="1.45108">
        <ele>76</ele>
        <time>2019-01-11T20:52:36Z</time>
      </trkpt>
      <trkpt lat="47.59406" lon="1.451">
        <ele>76</ele>
        <time>2019-01-11T20:52:37Z</time>
      </trkpt>
      <trkpt lat="47.59409" lon="1.45087">
        <ele>77</ele>
        <time>2019-01-11T20:52:38Z</time>
      </trkpt>
      <trkpt lat="47.59412" lon="1.45073">
        <ele>77</ele>
        <time>2019-01-11T20:52:39Z</time>
      </trkpt>
      <trkpt lat="47.59418" lon="1.4503">
        <ele>80</ele>
        <time>2019-01-11T20:52:40Z</time>
      </trkpt>
      <trkpt lat="47.59426" lon="1.44973">
        <ele>83</ele>
        <time>2019-01-11T20:52:41Z</time>
      </trkpt>
      <trkpt lat="47.59432" lon="1.44897">
        <ele>85</ele>
        <time>2019-01-11T20:52:42Z</time>
      </trkpt>
      <trkpt lat="47.59438" lon="1.44806">
        <ele>85</ele>
        <time>2019-01-11T20:52:43Z</time>
      </trkpt>
      <trkpt lat="47.59441" lon="1.44756">
        <ele>84</ele>
        <time>2019-01-11T20:52:44Z</time>
      </trkpt>
      <trkpt lat="47.59444" lon="1.44712">
        <ele>84</ele>
        <time>2019-01-11T20:52:45Z</time>
      </trkpt>
      <trkpt lat="47.59446" lon="1.44694">
        <ele>83</ele>
        <time>2019-01-11T20:52:46Z</time>
      </trkpt>
      <trkpt lat="47.59452" lon="1.44648">
        <ele>83</ele>
        <time>2019-01-11T20:52:47Z</time>
      </trkpt>
      <trkpt lat="47.59458" lon="1.44607">
        <ele>84</ele>
        <time>2019-01-11T20:52:48Z</time>
      </trkpt>
      <trkpt lat="47.59463" lon="1.44572">
        <ele>84</ele>
        <time>2019-01-11T20:52:49Z</time>
      </trkpt>
      <trkpt lat="47.59465" lon="1.44539">
        <ele>84</ele>
        <time>2019-01-11T20:52:50Z</time>
      </trkpt>
      <trkpt lat="47.59466" lon="1.44495">
        <ele>84</ele>
        <time>2019-01-11T20:52:51Z</time>
      </trkpt>
      <trkpt lat="47.59466" lon="1.44471">
        <ele>84</ele>
        <time>2019-01-11T20:52:52Z</time>
      </trkpt>
      <trkpt lat="47.59465" lon="1.44447">
        <ele>84</ele>
        <time>2019-01-11T20:52:53Z</time>
      </trkpt>
      <trkpt lat="47.59463" lon="1.44426">
        <ele>85</ele>
        <time>2019-01-11T20:52:54Z</time>
      </trkpt>
      <trkpt lat="47.59456" lon="1.44358">
        <ele>86</ele>
        <time>2019-01-11T20:52:55Z</time>
      </trkpt>
      <trkpt lat="47.59455" lon="1.44334">
        <ele>86</ele>
        <time>2019-01-11T20:52:56Z</time>
      </trkpt>
      <trkpt lat="47.59454" lon="1.44324">
        <ele>86</ele>
        <time>2019-01-11T20:52:57Z</time>
      </trkpt>
      <trkpt lat="47.59444" lon="1.44285">
        <ele>86</ele>
        <time>2019-01-11T20:52:58Z</time>
      </trkpt>
      <trkpt lat="47.59438" lon="1.44258">
        <ele>86</ele>
        <time>2019-01-11T20:52:59Z</time>
      </trkpt>
      <trkpt lat="47.59433" lon="1.44228">
        <ele>87</ele>
        <time>2019-01-11T20:53:00Z</time>
      </trkpt>
      <trkpt lat="47.5943" lon="1.44194">
        <ele>87</ele>
        <time>2019-01-11T20:53:01Z</time>
      </trkpt>
      <trkpt lat="47.59425" lon="1.44145">
        <ele>87</ele>
        <time>2019-01-11T20:53:02Z</time>
      </trkpt>
      <trkpt lat="47.59422" lon="1.44113">
        <ele>86</ele>
        <time>2019-01-11T20:53:03Z</time>
      </trkpt>
      <trkpt lat="47.59415" lon="1.44055">
        <ele>84</ele>
        <time>2019-01-11T20:53:04Z</time>
      </trkpt>
      <trkpt lat="47.59408" lon="1.44004">
        <ele>83</ele>
        <time>2019-01-11T20:53:05Z</time>
      </trkpt>
      <trkpt lat="47.59395" lon="1.43889">
        <ele>83</ele>
        <time>2019-01-11T20:53:06Z</time>
      </trkpt>
      <trkpt lat="47.59385" lon="1.43831">
        <ele>83</ele>
        <time>2019-01-11T20:53:07Z</time>
      </trkpt>
      <trkpt lat="47.59369" lon="1.43758">
        <ele>82</ele>
        <time>2019-01-11T20:53:08Z</time>
      </trkpt>
      <trkpt lat="47.59354" lon="1.437">
        <ele>83</ele>
        <time>2019-01-11T20:53:09Z</time>
      </trkpt>
      <trkpt lat="47.59337" lon="1.43649">
        <ele>84</ele>
        <time>2019-01-11T20:53:10Z</time>
      </trkpt>
      <trkpt lat="47.59334" lon="1.43638">
        <ele>84</ele>
        <time>2019-01-11T20:53:11Z</time>
      </trkpt>
      <trkpt lat="47.59325" lon="1.43614">
        <ele>84</ele>
        <time>2019-01-11T20:53:12Z</time>
      </trkpt>
      <trkpt lat="47.59308" lon="1.43573">
        <ele>84</ele>
        <time>2019-01-11T20:53:13Z</time>
      </trkpt>
      <trkpt lat="47.59301" lon="1.43553">
        <ele>84</ele>
        <time>2019-01-11T20:53:14Z</time>
      </trkpt>
      <trkpt lat="47.59293" lon="1.4353">
        <ele>84</ele>
        <time>2019-01-11T20:53:15Z</time>
      </trkpt>
      <trkpt lat="47.59282" lon="1.43504">
        <ele>84</ele>
        <time>2019-01-11T20:53:16Z</time>
      </trkpt>
      <trkpt lat="47.59266" lon="1.43469">
        <ele>84</ele>
        <time>2019-01-11T20:53:17Z</time>
      </trkpt>
      <trkpt lat="47.59242" lon="1.43413">
        <ele>84</ele>
        <time>2019-01-11T20:53:18Z</time>
      </trkpt>
      <trkpt lat="47.59167" lon="1.43231">
        <ele>83</ele>
        <time>2019-01-11T20:53:19Z</time>
      </trkpt>
      <trkpt lat="47.59149" lon="1.43187">
        <ele>86</ele>
        <time>2019-01-11T20:53:20Z</time>
      </trkpt>
      <trkpt lat="47.59146" lon="1.4318">
        <ele>87</ele>
        <time>2019-01-11T20:53:21Z</time>
      </trkpt>
      <trkpt lat="47.59144" lon="1.43172">
        <ele>87</ele>
        <time>2019-01-11T20:53:22Z</time>
      </trkpt>
      <trkpt lat="47.59142" lon="1.43162">
        <ele>88</ele>
        <time>2019-01-11T20:53:23Z</time>
      </trkpt>
      <trkpt lat="47.5914" lon="1.43149">
        <ele>88</ele>
        <time>2019-01-11T20:53:24Z</time>
      </trkpt>
      <trkpt lat="47.59138" lon="1.43131">
        <ele>89</ele>
        <time>2019-01-11T20:53:25Z</time>
      </trkpt>
      <trkpt lat="47.59136" lon="1.43107">
        <ele>90</ele>
        <time>2019-01-11T20:53:26Z</time>
      </trkpt>
      <trkpt lat="47.59134" lon="1.43092">
        <ele>90</ele>
        <time>2019-01-11T20:53:27Z</time>
      </trkpt>
      <trkpt lat="47.59131" lon="1.43075">
        <ele>90</ele>
        <time>2019-01-11T20:53:28Z</time>
      </trkpt>
      <trkpt lat="47.59128" lon="1.43059">
        <ele>90</ele>
        <time>2019-01-11T20:53:29Z</time>
      </trkpt>
      <trkpt lat="47.59123" lon="1.43043">
        <ele>90</ele>
        <time>2019-01-11T20:53:30Z</time>
      </trkpt>
      <trkpt lat="47.59119" lon="1.43033">
        <ele>91</ele>
        <time>2019-01-11T20:53:31Z</time>
      </trkpt>
      <trkpt lat="47.59112" lon="1.43019">
        <ele>91</ele>
        <time>2019-01-11T20:53:32Z</time>
      </trkpt>
      <trkpt lat="47.59094" lon="1.42986">
        <ele>90</ele>
        <time>2019-01-11T20:53:33Z</time>
      </trkpt>
      <trkpt lat="47.59084" lon="1.42965">
        <ele>89</ele>
        <time>2019-01-11T20:53:34Z</time>
      </trkpt>
      <trkpt lat="47.59066" lon="1.42925">
        <ele>87</ele>
        <time>2019-01-11T20:53:35Z</time>
      </trkpt>
      <trkpt lat="47.59058" lon="1.42904">
        <ele>87</ele>
        <time>2019-01-11T20:53:36Z</time>
      </trkpt>
      <trkpt lat="47.5905" lon="1.42883">
        <ele>88</ele>
        <time>2019-01-11T20:53:37Z</time>
      </trkpt>
      <trkpt lat="47.59046" lon="1.42865">
        <ele>88</ele>
        <time>2019-01-11T20:53:38Z</time>
      </trkpt>
      <trkpt lat="47.59041" lon="1.42846">
        <ele>89</ele>
        <time>2019-01-11T20:53:39Z</time>
      </trkpt>
      <trkpt lat="47.59039" lon="1.42827">
        <ele>89</ele>
        <time>2019-01-11T20:53:40Z</time>
      </trkpt>
      <trkpt lat="47.59038" lon="1.4281">
        <ele>89</ele>
        <time>2019-01-11T20:53:41Z</time>
      </trkpt>
      <trkpt lat="47.59039" lon="1.42796">
        <ele>89</ele>
        <time>2019-01-11T20:53:42Z</time>
      </trkpt>
      <trkpt lat="47.5904" lon="1.42785">
        <ele>89</ele>
        <time>2019-01-11T20:53:43Z</time>
      </trkpt>
      <trkpt lat="47.59044" lon="1.42767">
        <ele>89</ele>
        <time>2019-01-11T20:53:44Z</time>
      </trkpt>
      <trkpt lat="47.59057" lon="1.42723">
        <ele>88</ele>
        <time>2019-01-11T20:53:45Z</time>
      </trkpt>
      <trkpt lat="47.59072" lon="1.42665">
        <ele>88</ele>
        <time>2019-01-11T20:53:46Z</time>
      </trkpt>
      <trkpt lat="47.59076" lon="1.42648">
        <ele>87</ele>
        <time>2019-01-11T20:53:47Z</time>
      </trkpt>
      <trkpt lat="47.59077" lon="1.42635">
        <ele>87</ele>
        <time>2019-01-11T20:53:48Z</time>
      </trkpt>
      <trkpt lat="47.59077" lon="1.42624">
        <ele>86</ele>
        <time>2019-01-11T20:53:49Z</time>
      </trkpt>
      <trkpt lat="47.59073" lon="1.42615">
        <ele>86</ele>
        <time>2019-01-11T20:53:50Z</time>
      </trkpt>
      <trkpt lat="47.59069" lon="1.42611">
        <ele>87</ele>
        <time>2019-01-11T20:53:51Z</time>
      </trkpt>
      <trkpt lat="47.59059" lon="1.42604">
        <ele>87</ele>
        <time>2019-01-11T20:53:52Z</time>
      </trkpt>
      <trkpt lat="47.59037" lon="1.42592">
        <ele>89</ele>
        <time>2019-01-11T20:53:53Z</time>
      </trkpt>
      <trkpt lat="47.59025" lon="1.42584">
        <ele>90</ele>
        <time>2019-01-11T20:53:54Z</time>
      </trkpt>
      <trkpt lat="47.59014" lon="1.42574">
        <ele>91</ele>
        <time>2019-01-11T20:53:55Z</time>
      </trkpt>
      <trkpt lat="47.59004" lon="1.42562">
        <ele>91</ele>
        <time>2019-01-11T20:53:56Z</time>
      </trkpt>
      <trkpt lat="47.58992" lon="1.42545">
        <ele>89</ele>
        <time>2019-01-11T20:53:57Z</time>
      </trkpt>
      <trkpt lat="47.58984" lon="1.42532">
        <ele>88</ele>
        <time>2019-01-11T20:53:58Z</time>
      </trkpt>
      <trkpt lat="47.58978" lon="1.42524">
        <ele>88</ele>
        <time>2019-01-11T20:53:59Z</time>
      </trkpt>
      <trkpt lat="47.5897" lon="1.42515">
        <ele>87</ele>
        <time>2019-01-11T20:54:00Z</time>
      </trkpt>
      <trkpt lat="47.58963" lon="1.42511">
        <ele>87</ele>
        <time>2019-01-11T20:54:01Z</time>
      </trkpt>
      <trkpt lat="47.58955" lon="1.42507">
        <ele>86</ele>
        <time>2019-01-11T20:54:02Z</time>
      </trkpt>
      <trkpt lat="47.58943" lon="1.42504">
        <ele>86</ele>
        <time>2019-01-11T20:54:03Z</time>
      </trkpt>
      <trkpt lat="47.58918" lon="1.42502">
        <ele>86</ele>
        <time>2019-01-11T20:54:04Z</time>
      </trkpt>
      <trkpt lat="47.58911" lon="1.425">
        <ele>86</ele>
        <time>2019-01-11T20:54:05Z</time>
      </trkpt>
      <trkpt lat="47.58905" lon="1.42497">
        <ele>86</ele>
        <time>2019-01-11T20:54:06Z</time>
      </trkpt>
      <trkpt lat="47.58899" lon="1.42493">
        <ele>86</ele>
        <time>2019-01-11T20:54:07Z</time>
      </trkpt>
      <trkpt lat="47.58893" lon="1.4249">
        <ele>86</ele>
        <time>2019-01-11T20:54:08Z</time>
      </trkpt>
      <trkpt lat="47.58887" lon="1.42488">
        <ele>86</ele>
        <time>2019-01-11T20:54:09Z</time>
      </trkpt>
      <trkpt lat="47.58881" lon="1.42488">
        <ele>86</ele>
        <time>2019-01-11T20:54:10Z</time>
      </trkpt>
      <trkpt lat="47.58865" lon="1.42491">
        <ele>86</ele>
        <time>2019-01-11T20:54:11Z</time>
      </trkpt>
      <trkpt lat="47.58858" lon="1.42492">
        <ele>86</ele>
        <time>2019-01-11T20:54:12Z</time>
      </trkpt>
      <trkpt lat="47.58851" lon="1.42491">
        <ele>87</ele>
        <time>2019-01-11T20:54:13Z</time>
      </trkpt>
      <trkpt lat="47.58844" lon="1.42489">
        <ele>87</ele>
        <time>2019-01-11T20:54:14Z</time>
      </trkpt>
      <trkpt lat="47.58839" lon="1.42485">
        <ele>87</ele>
        <time>2019-01-11T20:54:15Z</time>
      </trkpt>
      <trkpt lat="47.58834" lon="1.4248">
        <ele>87</ele>
        <time>2019-01-11T20:54:16Z</time>
      </trkpt>
      <trkpt lat="47.58829" lon="1.42472">
        <ele>86</ele>
        <time>2019-01-11T20:54:17Z</time>
      </trkpt>
      <trkpt lat="47.58823" lon="1.4246">
        <ele>85</ele>
        <time>2019-01-11T20:54:18Z</time>
      </trkpt>
      <trkpt lat="47.58819" lon="1.42449">
        <ele>85</ele>
        <time>2019-01-11T20:54:19Z</time>
      </trkpt>
      <trkpt lat="47.58805" lon="1.42408">
        <ele>83</ele>
        <time>2019-01-11T20:54:20Z</time>
      </trkpt>
      <trkpt lat="47.58794" lon="1.42378">
        <ele>82</ele>
        <time>2019-01-11T20:54:21Z</time>
      </trkpt>
      <trkpt lat="47.58779" lon="1.42338">
        <ele>82</ele>
        <time>2019-01-11T20:54:22Z</time>
      </trkpt>
      <trkpt lat="47.58756" lon="1.42281">
        <ele>81</ele>
        <time>2019-01-11T20:54:23Z</time>
      </trkpt>
      <trkpt lat="47.58732" lon="1.42226">
        <ele>80</ele>
        <time>2019-01-11T20:54:24Z</time>
      </trkpt>
      <trkpt lat="47.5872" lon="1.42201">
        <ele>79</ele>
        <time>2019-01-11T20:54:25Z</time>
      </trkpt>
      <trkpt lat="47.58714" lon="1.42187">
        <ele>79</ele>
        <time>2019-01-11T20:54:26Z</time>
      </trkpt>
      <trkpt lat="47.5871" lon="1.4218">
        <ele>79</ele>
        <time>2019-01-11T20:54:27Z</time>
      </trkpt>
      <trkpt lat="47.58703" lon="1.4217">
        <ele>78</ele>
        <time>2019-01-11T20:54:28Z</time>
      </trkpt>
      <trkpt lat="47.58691" lon="1.42157">
        <ele>78</ele>
        <time>2019-01-11T20:54:29Z</time>
      </trkpt>
      <trkpt lat="47.58675" lon="1.42141">
        <ele>78</ele>
        <time>2019-01-11T20:54:30Z</time>
      </trkpt>
      <trkpt lat="47.58665" lon="1.42134">
        <ele>77</ele>
        <time>2019-01-11T20:54:31Z</time>
      </trkpt>
      <trkpt lat="47.58659" lon="1.42129">
        <ele>77</ele>
        <time>2019-01-11T20:54:32Z</time>
      </trkpt>
      <trkpt lat="47.58648" lon="1.42124">
        <ele>77</ele>
        <time>2019-01-11T20:54:33Z</time>
      </trkpt>
      <trkpt lat="47.5864" lon="1.42121">
        <ele>77</ele>
        <time>2019-01-11T20:54:34Z</time>
      </trkpt>
      <trkpt lat="47.5864" lon="1.42112">
        <ele>77</ele>
        <time>2019-01-11T20:54:35Z</time>
      </trkpt>
      <trkpt lat="47.58639" lon="1.42104">
        <ele>77</ele>
        <time>2019-01-11T20:54:36Z</time>
      </trkpt>
      <trkpt lat="47.58637" lon="1.42095">
        <ele>77</ele>
        <time>2019-01-11T20:54:37Z</time>
      </trkpt>
      <trkpt lat="47.58634" lon="1.42086">
        <ele>77</ele>
        <time>2019-01-11T20:54:38Z</time>
      </trkpt>
      <trkpt lat="47.5863" lon="1.42079">
        <ele>77</ele>
        <time>2019-01-11T20:54:39Z</time>
      </trkpt>
      <trkpt lat="47.58622" lon="1.42069">
        <ele>76</ele>
        <time>2019-01-11T20:54:40Z</time>
      </trkpt>
      <trkpt lat="47.58597" lon="1.42038">
        <ele>75</ele>
        <time>2019-01-11T20:54:41Z</time>
      </trkpt>
      <trkpt lat="47.58589" lon="1.42024">
        <ele>74</ele>
        <time>2019-01-11T20:54:42Z</time>
      </trkpt>
      <trkpt lat="47.58581" lon="1.42009">
        <ele>74</ele>
        <time>2019-01-11T20:54:43Z</time>
      </trkpt>
      <trkpt lat="47.58574" lon="1.41994">
        <ele>74</ele>
        <time>2019-01-11T20:54:44Z</time>
      </trkpt>
      <trkpt lat="47.58565" lon="1.41972">
        <ele>75</ele>
        <time>2019-01-11T20:54:45Z</time>
      </trkpt>
      <trkpt lat="47.58559" lon="1.41954">
        <ele>75</ele>
        <time>2019-01-11T20:54:46Z</time>
      </trkpt>
      <trkpt lat="47.58553" lon="1.41932">
        <ele>75</ele>
        <time>2019-01-11T20:54:47Z</time>
      </trkpt>
      <trkpt lat="47.58549" lon="1.41913">
        <ele>75</ele>
        <time>2019-01-11T20:54:48Z</time>
      </trkpt>
      <trkpt lat="47.58546" lon="1.41891">
        <ele>75</ele>
        <time>2019-01-11T20:54:49Z</time>
      </trkpt>
      <trkpt lat="47.58542" lon="1.4186">
        <ele>74</ele>
        <time>2019-01-11T20:54:50Z</time>
      </trkpt>
      <trkpt lat="47.58536" lon="1.4182">
        <ele>74</ele>
        <time>2019-01-11T20:54:51Z</time>
      </trkpt>
      <trkpt lat="47.58534" lon="1.41807">
        <ele>75</ele>
        <time>2019-01-11T20:54:52Z</time>
      </trkpt>
      <trkpt lat="47.5853" lon="1.41796">
        <ele>75</ele>
        <time>2019-01-11T20:54:53Z</time>
      </trkpt>
      <trkpt lat="47.58524" lon="1.41778">
        <ele>75</ele>
        <time>2019-01-11T20:54:54Z</time>
      </trkpt>
      <trkpt lat="47.5852" lon="1.41769">
        <ele>75</ele>
        <time>2019-01-11T20:54:55Z</time>
      </trkpt>
      <trkpt lat="47.58512" lon="1.41752">
        <ele>75</ele>
        <time>2019-01-11T20:54:56Z</time>
      </trkpt>
      <trkpt lat="47.58502" lon="1.41721">
        <ele>75</ele>
        <time>2019-01-11T20:54:57Z</time>
      </trkpt>
      <trkpt lat="47.585" lon="1.41712">
        <ele>75</ele>
        <time>2019-01-11T20:54:58Z</time>
      </trkpt>
      <trkpt lat="47.58496" lon="1.41699">
        <ele>75</ele>
        <time>2019-01-11T20:54:59Z</time>
      </trkpt>
      <trkpt lat="47.58492" lon="1.41688">
        <ele>75</ele>
        <time>2019-01-11T20:55:00Z</time>
      </trkpt>
      <trkpt lat="47.58479" lon="1.41657">
        <ele>75</ele>
        <time>2019-01-11T20:55:01Z</time>
      </trkpt>
      <trkpt lat="47.58468" lon="1.41634">
        <ele>75</ele>
        <time>2019-01-11T20:55:02Z</time>
      </trkpt>
      <trkpt lat="47.58461" lon="1.41618">
        <ele>75</ele>
        <time>2019-01-11T20:55:03Z</time>
      </trkpt>
      <trkpt lat="47.58456" lon="1.41604">
        <ele>74</ele>
        <time>2019-01-11T20:55:04Z</time>
      </trkpt>
      <trkpt lat="47.58452" lon="1.41594">
        <ele>74</ele>
        <time>2019-01-11T20:55:05Z</time>
      </trkpt>
      <trkpt lat="47.58449" lon="1.41581">
        <ele>74</ele>
        <time>2019-01-11T20:55:06Z</time>
      </trkpt>
      <trkpt lat="47.58446" lon="1.41564">
        <ele>75</ele>
        <time>2019-01-11T20:55:07Z</time>
      </trkpt>
      <trkpt lat="47.58444" lon="1.41548">
        <ele>75</ele>
        <time>2019-01-11T20:55:08Z</time>
      </trkpt>
      <trkpt lat="47.58442" lon="1.41526">
        <ele>75</ele>
        <time>2019-01-11T20:55:09Z</time>
      </trkpt>
      <trkpt lat="47.58441" lon="1.41508">
        <ele>76</ele>
        <time>2019-01-11T20:55:10Z</time>
      </trkpt>
      <trkpt lat="47.5844" lon="1.41496">
        <ele>76</ele>
        <time>2019-01-11T20:55:11Z</time>
      </trkpt>
      <trkpt lat="47.58439" lon="1.41483">
        <ele>77</ele>
        <time>2019-01-11T20:55:12Z</time>
      </trkpt>
      <trkpt lat="47.58437" lon="1.41472">
        <ele>77</ele>
        <time>2019-01-11T20:55:13Z</time>
      </trkpt>
      <trkpt lat="47.58434" lon="1.41459">
        <ele>77</ele>
        <time>2019-01-11T20:55:14Z</time>
      </trkpt>
      <trkpt lat="47.58427" lon="1.41436">
        <ele>78</ele>
        <time>2019-01-11T20:55:15Z</time>
      </trkpt>
      <trkpt lat="47.5842" lon="1.41414">
        <ele>78</ele>
        <time>2019-01-11T20:55:16Z</time>
      </trkpt>
      <trkpt lat="47.58415" lon="1.41398">
        <ele>79</ele>
        <time>2019-01-11T20:55:17Z</time>
      </trkpt>
      <trkpt lat="47.58405" lon="1.41362">
        <ele>80</ele>
        <time>2019-01-11T20:55:18Z</time>
      </trkpt>
      <trkpt lat="47.58385" lon="1.41302">
        <ele>81</ele>
        <time>2019-01-11T20:55:19Z</time>
      </trkpt>
      <trkpt lat="47.5837" lon="1.41258">
        <ele>83</ele>
        <time>2019-01-11T20:55:20Z</time>
      </trkpt>
      <trkpt lat="47.58365" lon="1.41247">
        <ele>83</ele>
        <time>2019-01-11T20:55:21Z</time>
      </trkpt>
      <trkpt lat="47.58342" lon="1.4119">
        <ele>83</ele>
        <time>2019-01-11T20:55:22Z</time>
      </trkpt>
      <trkpt lat="47.58335" lon="1.4117">
        <ele>83</ele>
        <time>2019-01-11T20:55:23Z</time>
      </trkpt>
      <trkpt lat="47.58331" lon="1.41159">
        <ele>83</ele>
        <time>2019-01-11T20:55:24Z</time>
      </trkpt>
      <trkpt lat="47.58328" lon="1.41145">
        <ele>83</ele>
        <time>2019-01-11T20:55:25Z</time>
      </trkpt>
      <trkpt lat="47.58319" lon="1.41114">
        <ele>84</ele>
        <time>2019-01-11T20:55:26Z</time>
      </trkpt>
      <trkpt lat="47.58308" lon="1.41067">
        <ele>84</ele>
        <time>2019-01-11T20:55:27Z</time>
      </trkpt>
      <trkpt lat="47.58298" lon="1.41026">
        <ele>84</ele>
        <time>2019-01-11T20:55:28Z</time>
      </trkpt>
      <trkpt lat="47.58291" lon="1.40998">
        <ele>83</ele>
        <time>2019-01-11T20:55:29Z</time>
      </trkpt>
      <trkpt lat="47.58288" lon="1.40988">
        <ele>83</ele>
        <time>2019-01-11T20:55:30Z</time>
      </trkpt>
      <trkpt lat="47.58282" lon="1.40986">
        <ele>83</ele>
        <time>2019-01-11T20:55:31Z</time>
      </trkpt>
      <trkpt lat="47.58261" lon="1.40989">
        <ele>82</ele>
        <time>2019-01-11T20:55:32Z</time>
      </trkpt>
      <trkpt lat="47.58171" lon="1.40996">
        <ele>85</ele>
        <time>2019-01-11T20:55:33Z</time>
      </trkpt>
      <trkpt lat="47.58143" lon="1.40999">
        <ele>84</ele>
        <time>2019-01-11T20:55:34Z</time>
      </trkpt>
      <trkpt lat="47.58086" lon="1.41003">
        <ele>83</ele>
        <time>2019-01-11T20:55:35Z</time>
      </trkpt>
      <trkpt lat="47.58079" lon="1.41002">
        <ele>83</ele>
        <time>2019-01-11T20:55:36Z</time>
      </trkpt>
      <trkpt lat="47.58072" lon="1.40997">
        <ele>83</ele>
        <time>2019-01-11T20:55:37Z</time>
      </trkpt>
      <trkpt lat="47.58068" lon="1.4099">
        <ele>82</ele>
        <time>2019-01-11T20:55:38Z</time>
      </trkpt>
      <trkpt lat="47.58048" lon="1.40916">
        <ele>79</ele>
        <time>2019-01-11T20:55:39Z</time>
      </trkpt>
      <trkpt lat="47.58033" lon="1.4086">
        <ele>78</ele>
        <time>2019-01-11T20:55:40Z</time>
      </trkpt>
      <trkpt lat="47.58028" lon="1.40843">
        <ele>77</ele>
        <time>2019-01-11T20:55:41Z</time>
      </trkpt>
      <trkpt lat="47.58025" lon="1.40836">
        <ele>77</ele>
        <time>2019-01-11T20:55:42Z</time>
      </trkpt>
      <trkpt lat="47.58021" lon="1.40831">
        <ele>76</ele>
        <time>2019-01-11T20:55:43Z</time>
      </trkpt>
      <trkpt lat="47.58032" lon="1.40817">
        <ele>77</ele>
        <time>2019-01-11T20:55:44Z</time>
      </trkpt>
      <trkpt lat="47.58038" lon="1.40808">
        <ele>77</ele>
        <time>2019-01-11T20:55:45Z</time>
      </trkpt>
      <trkpt lat="47.58046" lon="1.408">
        <ele>77</ele>
        <time>2019-01-11T20:55:46Z</time>
      </trkpt>
      <trkpt lat="47.58061" lon="1.40785">
        <ele>78</ele>
        <time>2019-01-11T20:55:47Z</time>
      </trkpt>
      <trkpt lat="47.58088" lon="1.40758">
        <ele>78</ele>
        <time>2019-01-11T20:55:48Z</time>
      </trkpt>
      <trkpt lat="47.58124" lon="1.40717">
        <ele>79</ele>
        <time>2019-01-11T20:55:49Z</time>
      </trkpt>
      <trkpt lat="47.58142" lon="1.40694">
        <ele>79</ele>
        <time>2019-01-11T20:55:50Z</time>
      </trkpt>
      <trkpt lat="47.58156" lon="1.40675">
        <ele>79</ele>
        <time>2019-01-11T20:55:51Z</time>
      </trkpt>
      <trkpt lat="47.58173" lon="1.40655">
        <ele>79</ele>
        <time>2019-01-11T20:55:52Z</time>
      </trkpt>
      <trkpt lat="47.58185" lon="1.40637">
        <ele>79</ele>
        <time>2019-01-11T20:55:53Z</time>
      </trkpt>
      <trkpt lat="47.58201" lon="1.40617">
        <ele>80</ele>
        <time>2019-01-11T20:55:54Z</time>
      </trkpt>
      <trkpt lat="47.5823" lon="1.4058">
        <ele>80</ele>
        <time>2019-01-11T20:55:55Z</time>
      </trkpt>
      <trkpt lat="47.58239" lon="1.4057">
        <ele>80</ele>
        <time>2019-01-11T20:55:56Z</time>
      </trkpt>
      <trkpt lat="47.58258" lon="1.40549">
        <ele>80</ele>
        <time>2019-01-11T20:55:57Z</time>
      </trkpt>
      <trkpt lat="47.58277" lon="1.4053">
        <ele>81</ele>
        <time>2019-01-11T20:55:58Z</time>
      </trkpt>
      <trkpt lat="47.58298" lon="1.40509">
        <ele>81</ele>
        <time>2019-01-11T20:55:59Z</time>
      </trkpt>
      <trkpt lat="47.58311" lon="1.40495">
        <ele>82</ele>
        <time>2019-01-11T20:56:00Z</time>
      </trkpt>
      <trkpt lat="47.58328" lon="1.40475">
        <ele>82</ele>
        <time>2019-01-11T20:56:01Z</time>
      </trkpt>
      <trkpt lat="47.58339" lon="1.40462">
        <ele>83</ele>
        <time>2019-01-11T20:56:02Z</time>
      </trkpt>
      <trkpt lat="47.58355" lon="1.40448">
        <ele>83</ele>
        <time>2019-01-11T20:56:03Z</time>
      </trkpt>
      <trkpt lat="47.58371" lon="1.40434">
        <ele>84</ele>
        <time>2019-01-11T20:56:04Z</time>
      </trkpt>
      <trkpt lat="47.58387" lon="1.4042">
        <ele>85</ele>
        <time>2019-01-11T20:56:05Z</time>
      </trkpt>
      <trkpt lat="47.58401" lon="1.40409">
        <ele>86</ele>
        <time>2019-01-11T20:56:06Z</time>
      </trkpt>
      <trkpt lat="47.58412" lon="1.40398">
        <ele>87</ele>
        <time>2019-01-11T20:56:07Z</time>
      </trkpt>
      <trkpt lat="47.5842" lon="1.40387">
        <ele>87</ele>
        <time>2019-01-11T20:56:08Z</time>
      </trkpt>
      <trkpt lat="47.58451" lon="1.40345">
        <ele>86</ele>
        <time>2019-01-11T20:56:09Z</time>
      </trkpt>
      <trkpt lat="47.58458" lon="1.40334">
        <ele>87</ele>
        <time>2019-01-11T20:56:10Z</time>
      </trkpt>
      <trkpt lat="47.58479" lon="1.40306">
        <ele>87</ele>
        <time>2019-01-11T20:56:11Z</time>
      </trkpt>
      <trkpt lat="47.58483" lon="1.40273">
        <ele>87</ele>
        <time>2019-01-11T20:56:12Z</time>
      </trkpt>
      <trkpt lat="47.58486" lon="1.40247">
        <ele>87</ele>
        <time>2019-01-11T20:56:13Z</time>
      </trkpt>
      <trkpt lat="47.58489" lon="1.40237">
        <ele>87</ele>
        <time>2019-01-11T20:56:14Z</time>
      </trkpt>
      <trkpt lat="47.58496" lon="1.40224">
        <ele>87</ele>
        <time>2019-01-11T20:56:15Z</time>
      </trkpt>
      <trkpt lat="47.585" lon="1.40213">
        <ele>87</ele>
        <time>2019-01-11T20:56:16Z</time>
      </trkpt>
      <trkpt lat="47.58504" lon="1.40198">
        <ele>88</ele>
        <time>2019-01-11T20:56:17Z</time>
      </trkpt>
      <trkpt lat="47.58507" lon="1.40186">
        <ele>88</ele>
        <time>2019-01-11T20:56:18Z</time>
      </trkpt>
      <trkpt lat="47.58517" lon="1.40122">
        <ele>87</ele>
        <time>2019-01-11T20:56:19Z</time>
      </trkpt>
      <trkpt lat="47.58519" lon="1.40096">
        <ele>87</ele>
        <time>2019-01-11T20:56:20Z</time>
      </trkpt>
      <trkpt lat="47.58522" lon="1.4007">
        <ele>87</ele>
        <time>2019-01-11T20:56:21Z</time>
      </trkpt>
      <trkpt lat="47.58526" lon="1.40049">
        <ele>87</ele>
        <time>2019-01-11T20:56:22Z</time>
      </trkpt>
      <trkpt lat="47.58529" lon="1.40035">
        <ele>87</ele>
        <time>2019-01-11T20:56:23Z</time>
      </trkpt>
      <trkpt lat="47.58537" lon="1.39991">
        <ele>87</ele>
        <time>2019-01-11T20:56:24Z</time>
      </trkpt>
      <trkpt lat="47.58541" lon="1.39974">
        <ele>87</ele>
        <time>2019-01-11T20:56:25Z</time>
      </trkpt>
      <trkpt lat="47.58556" lon="1.39918">
        <ele>88</ele>
        <time>2019-01-11T20:56:26Z</time>
      </trkpt>
      <trkpt lat="47.58565" lon="1.39881">
        <ele>87</ele>
        <time>2019-01-11T20:56:27Z</time>
      </trkpt>
      <trkpt lat="47.58575" lon="1.39844">
        <ele>87</ele>
        <time>2019-01-11T20:56:28Z</time>
      </trkpt>
      <trkpt lat="47.58588" lon="1.39799">
        <ele>87</ele>
        <time>2019-01-11T20:56:29Z</time>
      </trkpt>
      <trkpt lat="47.58591" lon="1.39787">
        <ele>86</ele>
        <time>2019-01-11T20:56:30Z</time>
      </trkpt>
      <trkpt lat="47.58554" lon="1.39716">
        <ele>86</ele>
        <time>2019-01-11T20:56:31Z</time>
      </trkpt>
      <trkpt lat="47.5854" lon="1.39688">
        <ele>87</ele>
        <time>2019-01-11T20:56:32Z</time>
      </trkpt>
      <trkpt lat="47.58532" lon="1.39674">
        <ele>87</ele>
        <time>2019-01-11T20:56:33Z</time>
      </trkpt>
      <trkpt lat="47.58518" lon="1.3965">
        <ele>87</ele>
        <time>2019-01-11T20:56:34Z</time>
      </trkpt>
      <trkpt lat="47.58502" lon="1.39625">
        <ele>88</ele>
        <time>2019-01-11T20:56:35Z</time>
      </trkpt>
      <trkpt lat="47.58496" lon="1.39616">
        <ele>88</ele>
        <time>2019-01-11T20:56:36Z</time>
      </trkpt>
      <trkpt lat="47.58491" lon="1.39608">
        <ele>89</ele>
        <time>2019-01-11T20:56:37Z</time>
      </trkpt>
      <trkpt lat="47.58486" lon="1.39595">
        <ele>89</ele>
        <time>2019-01-11T20:56:38Z</time>
      </trkpt>
      <trkpt lat="47.5848" lon="1.39582">
        <ele>89</ele>
        <time>2019-01-11T20:56:39Z</time>
      </trkpt>
      <trkpt lat="47.58467" lon="1.3955">
        <ele>89</ele>
        <time>2019-01-11T20:56:40Z</time>
      </trkpt>
      <trkpt lat="47.58457" lon="1.39524">
        <ele>89</ele>
        <time>2019-01-11T20:56:41Z</time>
      </trkpt>
      <trkpt lat="47.58443" lon="1.39475">
        <ele>89</ele>
        <time>2019-01-11T20:56:42Z</time>
      </trkpt>
      <trkpt lat="47.5843" lon="1.39433">
        <ele>90</ele>
        <time>2019-01-11T20:56:43Z</time>
      </trkpt>
      <trkpt lat="47.58422" lon="1.39412">
        <ele>90</ele>
        <time>2019-01-11T20:56:44Z</time>
      </trkpt>
      <trkpt lat="47.58412" lon="1.39391">
        <ele>89</ele>
        <time>2019-01-11T20:56:45Z</time>
      </trkpt>
      <trkpt lat="47.58406" lon="1.39384">
        <ele>89</ele>
        <time>2019-01-11T20:56:46Z</time>
      </trkpt>
      <trkpt lat="47.584" lon="1.39382">
        <ele>88</ele>
        <time>2019-01-11T20:56:47Z</time>
      </trkpt>
      <trkpt lat="47.58384" lon="1.39382">
        <ele>88</ele>
        <time>2019-01-11T20:56:48Z</time>
      </trkpt>
      <trkpt lat="47.58379" lon="1.3938">
        <ele>88</ele>
        <time>2019-01-11T20:56:49Z</time>
      </trkpt>
      <trkpt lat="47.58372" lon="1.39374">
        <ele>88</ele>
        <time>2019-01-11T20:56:50Z</time>
      </trkpt>
      <trkpt lat="47.58361" lon="1.3936">
        <ele>87</ele>
        <time>2019-01-11T20:56:51Z</time>
      </trkpt>
      <trkpt lat="47.58358" lon="1.39352">
        <ele>87</ele>
        <time>2019-01-11T20:56:52Z</time>
      </trkpt>
      <trkpt lat="47.58356" lon="1.39344">
        <ele>87</ele>
        <time>2019-01-11T20:56:53Z</time>
      </trkpt>
      <trkpt lat="47.58353" lon="1.39334">
        <ele>86</ele>
        <time>2019-01-11T20:56:54Z</time>
      </trkpt>
      <trkpt lat="47.58351" lon="1.39319">
        <ele>86</ele>
        <time>2019-01-11T20:56:55Z</time>
      </trkpt>
      <trkpt lat="47.58349" lon="1.39298">
        <ele>85</ele>
        <time>2019-01-11T20:56:56Z</time>
      </trkpt>
      <trkpt lat="47.58347" lon="1.39272">
        <ele>85</ele>
        <time>2019-01-11T20:56:57Z</time>
      </trkpt>
      <trkpt lat="47.58344" lon="1.39254">
        <ele>84</ele>
        <time>2019-01-11T20:56:58Z</time>
      </trkpt>
      <trkpt lat="47.58338" lon="1.3923">
        <ele>84</ele>
        <time>2019-01-11T20:56:59Z</time>
      </trkpt>
      <trkpt lat="47.58336" lon="1.39223">
        <ele>84</ele>
        <time>2019-01-11T20:57:00Z</time>
      </trkpt>
      <trkpt lat="47.58327" lon="1.39188">
        <ele>85</ele>
        <time>2019-01-11T20:57:01Z</time>
      </trkpt>
      <trkpt lat="47.5832" lon="1.39156">
        <ele>85</ele>
        <time>2019-01-11T20:57:02Z</time>
      </trkpt>
      <trkpt lat="47.58311" lon="1.39122">
        <ele>86</ele>
        <time>2019-01-11T20:57:03Z</time>
      </trkpt>
      <trkpt lat="47.58292" lon="1.39053">
        <ele>88</ele>
        <time>2019-01-11T20:57:04Z</time>
      </trkpt>
      <trkpt lat="47.58282" lon="1.39015">
        <ele>89</ele>
        <time>2019-01-11T20:57:05Z</time>
      </trkpt>
      <trkpt lat="47.58271" lon="1.38973">
        <ele>89</ele>
        <time>2019-01-11T20:57:06Z</time>
      </trkpt>
      <trkpt lat="47.5826" lon="1.38928">
        <ele>88</ele>
        <time>2019-01-11T20:57:07Z</time>
      </trkpt>
      <trkpt lat="47.58252" lon="1.38893">
        <ele>88</ele>
        <time>2019-01-11T20:57:08Z</time>
      </trkpt>
      <trkpt lat="47.58242" lon="1.38849">
        <ele>90</ele>
        <time>2019-01-11T20:57:09Z</time>
      </trkpt>
      <trkpt lat="47.5824" lon="1.38833">
        <ele>90</ele>
        <time>2019-01-11T20:57:10Z</time>
      </trkpt>
      <trkpt lat="47.58236" lon="1.38805">
        <ele>90</ele>
        <time>2019-01-11T20:57:11Z</time>
      </trkpt>
      <trkpt lat="47.58232" lon="1.38777">
        <ele>90</ele>
        <time>2019-01-11T20:57:12Z</time>
      </trkpt>
      <trkpt lat="47.58228" lon="1.38751">
        <ele>90</ele>
        <time>2019-01-11T20:57:13Z</time>
      </trkpt>
      <trkpt lat="47.58222" lon="1.38716">
        <ele>90</ele>
        <time>2019-01-11T20:57:14Z</time>
      </trkpt>
      <trkpt lat="47.58219" lon="1.38699">
        <ele>90</ele>
        <time>2019-01-11T20:57:15Z</time>
      </trkpt>
      <trkpt lat="47.58215" lon="1.38684">
        <ele>89</ele>
        <time>2019-01-11T20:57:16Z</time>
      </trkpt>
      <trkpt lat="47.5821" lon="1.38656">
        <ele>89</ele>
        <time>2019-01-11T20:57:17Z</time>
      </trkpt>
      <trkpt lat="47.58205" lon="1.38617">
        <ele>87</ele>
        <time>2019-01-11T20:57:18Z</time>
      </trkpt>
      <trkpt lat="47.582" lon="1.38577">
        <ele>86</ele>
        <time>2019-01-11T20:57:19Z</time>
      </trkpt>
      <trkpt lat="47.58193" lon="1.38525">
        <ele>85</ele>
        <time>2019-01-11T20:57:20Z</time>
      </trkpt>
      <trkpt lat="47.58183" lon="1.3845">
        <ele>85</ele>
        <time>2019-01-11T20:57:21Z</time>
      </trkpt>
      <trkpt lat="47.5818" lon="1.38426">
        <ele>85</ele>
        <time>2019-01-11T20:57:22Z</time>
      </trkpt>
      <trkpt lat="47.5818" lon="1.38417">
        <ele>85</ele>
        <time>2019-01-11T20:57:23Z</time>
      </trkpt>
      <trkpt lat="47.5818" lon="1.38402">
        <ele>85</ele>
        <time>2019-01-11T20:57:24Z</time>
      </trkpt>
      <trkpt lat="47.5818" lon="1.38392">
        <ele>84</ele>
        <time>2019-01-11T20:57:25Z</time>
      </trkpt>
      <trkpt lat="47.58181" lon="1.38384">
        <ele>84</ele>
        <time>2019-01-11T20:57:26Z</time>
      </trkpt>
      <trkpt lat="47.582" lon="1.38389">
        <ele>84</ele>
        <time>2019-01-11T20:57:27Z</time>
      </trkpt>
      <trkpt lat="47.58217" lon="1.38391">
        <ele>85</ele>
        <time>2019-01-11T20:57:28Z</time>
      </trkpt>
      <trkpt lat="47.58231" lon="1.38393">
        <ele>85</ele>
        <time>2019-01-11T20:57:29Z</time>
      </trkpt>
      <trkpt lat="47.58242" lon="1.38393">
        <ele>85</ele>
        <time>2019-01-11T20:57:30Z</time>
      </trkpt>
      <trkpt lat="47.58299" lon="1.38388">
        <ele>86</ele>
        <time>2019-01-11T20:57:31Z</time>
      </trkpt>
      <trkpt lat="47.58324" lon="1.38382">
        <ele>87</ele>
        <time>2019-01-11T20:57:32Z</time>
      </trkpt>
      <trkpt lat="47.58357" lon="1.38373">
        <ele>87</ele>
        <time>2019-01-11T20:57:33Z</time>
      </trkpt>
      <trkpt lat="47.58386" lon="1.38362">
        <ele>87</ele>
        <time>2019-01-11T20:57:34Z</time>
      </trkpt>
      <trkpt lat="47.58431" lon="1.38341">
        <ele>87</ele>
        <time>2019-01-11T20:57:35Z</time>
      </trkpt>
      <trkpt lat="47.58439" lon="1.38336">
        <ele>87</ele>
        <time>2019-01-11T20:57:36Z</time>
      </trkpt>
      <trkpt lat="47.58466" lon="1.3832">
        <ele>86</ele>
        <time>2019-01-11T20:57:37Z</time>
      </trkpt>
      <trkpt lat="47.58508" lon="1.38288">
        <ele>85</ele>
        <time>2019-01-11T20:57:38Z</time>
      </trkpt>
      <trkpt lat="47.58617" lon="1.38216">
        <ele>85</ele>
        <time>2019-01-11T20:57:39Z</time>
      </trkpt>
      <trkpt lat="47.58661" lon="1.38186">
        <ele>84</ele>
        <time>2019-01-11T20:57:40Z</time>
      </trkpt>
      <trkpt lat="47.58686" lon="1.38169">
        <ele>83</ele>
        <time>2019-01-11T20:57:41Z</time>
      </trkpt>
      <trkpt lat="47.58691" lon="1.38165">
        <ele>83</ele>
        <time>2019-01-11T20:57:42Z</time>
      </trkpt>
      <trkpt lat="47.58703" lon="1.38155">
        <ele>84</ele>
        <time>2019-01-11T20:57:43Z</time>
      </trkpt>
      <trkpt lat="47.58716" lon="1.38172">
        <ele>84</ele>
        <time>2019-01-11T20:57:44Z</time>
      </trkpt>
      <trkpt lat="47.58722" lon="1.38166">
        <ele>84</ele>
        <time>2019-01-11T20:57:45Z</time>
      </trkpt>
      <trkpt lat="47.58702" lon="1.38141">
        <ele>84</ele>
        <time>2019-01-11T20:57:46Z</time>
      </trkpt>
      <trkpt lat="47.58687" lon="1.38121">
        <ele>84</ele>
        <time>2019-01-11T20:57:47Z</time>
      </trkpt>
      <trkpt lat="47.58667" lon="1.38099">
        <ele>85</ele>
        <time>2019-01-11T20:57:48Z</time>
      </trkpt>
      <trkpt lat="47.58652" lon="1.38081">
        <ele>85</ele>
        <time>2019-01-11T20:57:49Z</time>
      </trkpt>
      <trkpt lat="47.58642" lon="1.38067">
        <ele>85</ele>
        <time>2019-01-11T20:57:50Z</time>
      </trkpt>
      <trkpt lat="47.58626" lon="1.38041">
        <ele>85</ele>
        <time>2019-01-11T20:57:51Z</time>
      </trkpt>
      <trkpt lat="47.58617" lon="1.38025">
        <ele>85</ele>
        <time>2019-01-11T20:57:52Z</time>
      </trkpt>
      <trkpt lat="47.58609" lon="1.3801">
        <ele>84</ele>
        <time>2019-01-11T20:57:53Z</time>
      </trkpt>
      <trkpt lat="47.58594" lon="1.37977">
        <ele>84</ele>
        <time>2019-01-11T20:57:54Z</time>
      </trkpt>
      <trkpt lat="47.58588" lon="1.37961">
        <ele>84</ele>
        <time>2019-01-11T20:57:55Z</time>
      </trkpt>
      <trkpt lat="47.58574" lon="1.37926">
        <ele>84</ele>
        <time>2019-01-11T20:57:56Z</time>
      </trkpt>
      <trkpt lat="47.58557" lon="1.37877">
        <ele>84</ele>
        <time>2019-01-11T20:57:57Z</time>
      </trkpt>
      <trkpt lat="47.5854" lon="1.37838">
        <ele>84</ele>
        <time>2019-01-11T20:57:58Z</time>
      </trkpt>
      <trkpt lat="47.58538" lon="1.37826">
        <ele>84</ele>
        <time>2019-01-11T20:57:59Z</time>
      </trkpt>
      <trkpt lat="47.58536" lon="1.37813">
        <ele>84</ele>
        <time>2019-01-11T20:58:00Z</time>
      </trkpt>
      <trkpt lat="47.58533" lon="1.37806">
        <ele>84</ele>
        <time>2019-01-11T20:58:01Z</time>
      </trkpt>
      <trkpt lat="47.58481" lon="1.37684">
        <ele>83</ele>
        <time>2019-01-11T20:58:02Z</time>
      </trkpt>
      <trkpt lat="47.58474" lon="1.3766">
        <ele>83</ele>
        <time>2019-01-11T20:58:03Z</time>
      </trkpt>
      <trkpt lat="47.5847" lon="1.37647">
        <ele>83</ele>
        <time>2019-01-11T20:58:04Z</time>
      </trkpt>
      <trkpt lat="47.58471" lon="1.37639">
        <ele>83</ele>
        <time>2019-01-11T20:58:05Z</time>
      </trkpt>
      <trkpt lat="47.5847" lon="1.37631">
        <ele>83</ele>
        <time>2019-01-11T20:58:06Z</time>
      </trkpt>
      <trkpt lat="47.58467" lon="1.37619">
        <ele>83</ele>
        <time>2019-01-11T20:58:07Z</time>
      </trkpt>
      <trkpt lat="47.58464" lon="1.37604">
        <ele>83</ele>
        <time>2019-01-11T20:58:08Z</time>
      </trkpt>
      <trkpt lat="47.5846" lon="1.37595">
        <ele>83</ele>
        <time>2019-01-11T20:58:09Z</time>
      </trkpt>
      <trkpt lat="47.58456" lon="1.37587">
        <ele>83</ele>
        <time>2019-01-11T20:58:10Z</time>
      </trkpt>
      <trkpt lat="47.58453" lon="1.37576">
        <ele>83</ele>
        <time>2019-01-11T20:58:11Z</time>
      </trkpt>
      <trkpt lat="47.58448" lon="1.37548">
        <ele>83</ele>
        <time>2019-01-11T20:58:12Z</time>
      </trkpt>
      <trkpt lat="47.58443" lon="1.37518">
        <ele>83</ele>
        <time>2019-01-11T20:58:13Z</time>
      </trkpt>
      <trkpt lat="47.5844" lon="1.37503">
        <ele>83</ele>
        <time>2019-01-11T20:58:14Z</time>
      </trkpt>
      <trkpt lat="47.5843" lon="1.37444">
        <ele>81</ele>
        <time>2019-01-11T20:58:15Z</time>
      </trkpt>
      <trkpt lat="47.58435" lon="1.37436">
        <ele>81</ele>
        <time>2019-01-11T20:58:16Z</time>
      </trkpt>
      <trkpt lat="47.58457" lon="1.37428">
        <ele>80</ele>
        <time>2019-01-11T20:58:17Z</time>
      </trkpt>
      <trkpt lat="47.58463" lon="1.37424">
        <ele>80</ele>
        <time>2019-01-11T20:58:18Z</time>
      </trkpt>
      <trkpt lat="47.58468" lon="1.37409">
        <ele>80</ele>
        <time>2019-01-11T20:58:19Z</time>
      </trkpt>
      <trkpt lat="47.58471" lon="1.374">
        <ele>80</ele>
        <time>2019-01-11T20:58:20Z</time>
      </trkpt>
      <trkpt lat="47.58465" lon="1.37373">
        <ele>79</ele>
        <time>2019-01-11T20:58:21Z</time>
      </trkpt>
      <trkpt lat="47.58461" lon="1.37365">
        <ele>78</ele>
        <time>2019-01-11T20:58:22Z</time>
      </trkpt>
      <trkpt lat="47.58454" lon="1.37354">
        <ele>78</ele>
        <time>2019-01-11T20:58:23Z</time>
      </trkpt>
      <trkpt lat="47.5844" lon="1.37345">
        <ele>78</ele>
        <time>2019-01-11T20:58:24Z</time>
      </trkpt>
      <trkpt lat="47.58419" lon="1.37338">
        <ele>77</ele>
        <time>2019-01-11T20:58:25Z</time>
      </trkpt>
      <trkpt lat="47.58411" lon="1.37331">
        <ele>77</ele>
        <time>2019-01-11T20:58:26Z</time>
      </trkpt>
      <trkpt lat="47.58399" lon="1.37316">
        <ele>78</ele>
        <time>2019-01-11T20:58:27Z</time>
      </trkpt>
      <trkpt lat="47.5839" lon="1.37307">
        <ele>78</ele>
        <time>2019-01-11T20:58:28Z</time>
      </trkpt>
      <trkpt lat="47.58377" lon="1.37299">
        <ele>78</ele>
        <time>2019-01-11T20:58:29Z</time>
      </trkpt>
      <trkpt lat="47.58369" lon="1.37295">
        <ele>78</ele>
        <time>2019-01-11T20:58:30Z</time>
      </trkpt>
      <trkpt lat="47.58364" lon="1.37293">
        <ele>78</ele>
        <time>2019-01-11T20:58:31Z</time>
      </trkpt>
      <trkpt lat="47.58358" lon="1.37286">
        <ele>78</ele>
        <time>2019-01-11T20:58:32Z</time>
      </trkpt>
      <trkpt lat="47.58355" lon="1.37275">
        <ele>78</ele>
        <time>2019-01-11T20:58:33Z</time>
      </trkpt>
      <trkpt lat="47.58353" lon="1.37267">
        <ele>78</ele>
        <time>2019-01-11T20:58:34Z</time>
      </trkpt>
      <trkpt lat="47.58352" lon="1.37256">
        <ele>78</ele>
        <time>2019-01-11T20:58:35Z</time>
      </trkpt>
      <trkpt lat="47.5833" lon="1.36952">
        <ele>75</ele>
        <time>2019-01-11T20:58:36Z</time>
      </trkpt>
      <trkpt lat="47.58328" lon="1.36938">
        <ele>75</ele>
        <time>2019-01-11T20:58:37Z</time>
      </trkpt>
      <trkpt lat="47.5833" lon="1.36928">
        <ele>75</ele>
        <time>2019-01-11T20:58:38Z</time>
      </trkpt>
      <trkpt lat="47.58342" lon="1.36901">
        <ele>75</ele>
        <time>2019-01-11T20:58:39Z</time>
      </trkpt>
      <trkpt lat="47.58343" lon="1.36891">
        <ele>75</ele>
        <time>2019-01-11T20:58:40Z</time>
      </trkpt>
      <trkpt lat="47.58337" lon="1.36886">
        <ele>75</ele>
        <time>2019-01-11T20:58:41Z</time>
      </trkpt>
      <trkpt lat="47.58331" lon="1.36886">
        <ele>75</ele>
        <time>2019-01-11T20:58:42Z</time>
      </trkpt>
      <trkpt lat="47.58325" lon="1.36886">
        <ele>75</ele>
        <time>2019-01-11T20:58:43Z</time>
      </trkpt>
      <trkpt lat="47.5832" lon="1.36878">
        <ele>75</ele>
        <time>2019-01-11T20:58:44Z</time>
      </trkpt>
      <trkpt lat="47.58318" lon="1.36865">
        <ele>75</ele>
        <time>2019-01-11T20:58:45Z</time>
      </trkpt>
      <trkpt lat="47.58312" lon="1.36833">
        <ele>76</ele>
        <time>2019-01-11T20:58:46Z</time>
      </trkpt>
      <trkpt lat="47.58311" lon="1.36807">
        <ele>75</ele>
        <time>2019-01-11T20:58:47Z</time>
      </trkpt>
      <trkpt lat="47.58315" lon="1.36781">
        <ele>75</ele>
        <time>2019-01-11T20:58:48Z</time>
      </trkpt>
      <trkpt lat="47.5832" lon="1.36762">
        <ele>75</ele>
        <time>2019-01-11T20:58:49Z</time>
      </trkpt>
      <trkpt lat="47.58317" lon="1.36752">
        <ele>74</ele>
        <time>2019-01-11T20:58:50Z</time>
      </trkpt>
      <trkpt lat="47.58316" lon="1.36744">
        <ele>74</ele>
        <time>2019-01-11T20:58:51Z</time>
      </trkpt>
      <trkpt lat="47.58333" lon="1.36737">
        <ele>74</ele>
        <time>2019-01-11T20:58:52Z</time>
      </trkpt>
      <trkpt lat="47.58373" lon="1.36724">
        <ele>73</ele>
        <time>2019-01-11T20:58:53Z</time>
      </trkpt>
      <trkpt lat="47.58392" lon="1.36719">
        <ele>72</ele>
        <time>2019-01-11T20:58:54Z</time>
      </trkpt>
      <trkpt lat="47.58423" lon="1.36669">
        <ele>69</ele>
        <time>2019-01-11T20:58:55Z</time>
      </trkpt>
      <trkpt lat="47.58462" lon="1.36604">
        <ele>68</ele>
        <time>2019-01-11T20:58:56Z</time>
      </trkpt>
      <trkpt lat="47.58479" lon="1.36569">
        <ele>68</ele>
        <time>2019-01-11T20:58:57Z</time>
      </trkpt>
      <trkpt lat="47.58489" lon="1.36549">
        <ele>68</ele>
        <time>2019-01-11T20:58:58Z</time>
      </trkpt>
      <trkpt lat="47.58496" lon="1.36537">
        <ele>69</ele>
        <time>2019-01-11T20:58:59Z</time>
      </trkpt>
      <trkpt lat="47.58503" lon="1.36524">
        <ele>69</ele>
        <time>2019-01-11T20:59:00Z</time>
      </trkpt>
      <trkpt lat="47.5851" lon="1.36511">
        <ele>70</ele>
        <time>2019-01-11T20:59:01Z</time>
      </trkpt>
      <trkpt lat="47.58516" lon="1.36501">
        <ele>70</ele>
        <time>2019-01-11T20:59:02Z</time>
      </trkpt>
      <trkpt lat="47.58522" lon="1.36494">
        <ele>70</ele>
        <time>2019-01-11T20:59:03Z</time>
      </trkpt>
      <trkpt lat="47.58553" lon="1.36465">
        <ele>69</ele>
        <time>2019-01-11T20:59:04Z</time>
      </trkpt>
      <trkpt lat="47.58572" lon="1.36448">
        <ele>68</ele>
        <time>2019-01-11T20:59:05Z</time>
      </trkpt>
      <trkpt lat="47.58587" lon="1.36434">
        <ele>68</ele>
        <time>2019-01-11T20:59:06Z</time>
      </trkpt>
      <trkpt lat="47.58617" lon="1.36403">
        <ele>68</ele>
        <time>2019-01-11T20:59:07Z</time>
      </trkpt>
      <trkpt lat="47.58654" lon="1.36367">
        <ele>68</ele>
        <time>2019-01-11T20:59:08Z</time>
      </trkpt>
      <trkpt lat="47.58719" lon="1.363">
        <ele>66</ele>
        <time>2019-01-11T20:59:09Z</time>
      </trkpt>
      <trkpt lat="47.5875" lon="1.36264">
        <ele>66</ele>
        <time>2019-01-11T20:59:10Z</time>
      </trkpt>
      <trkpt lat="47.58774" lon="1.36237">
        <ele>67</ele>
        <time>2019-01-11T20:59:11Z</time>
      </trkpt>
      <trkpt lat="47.58829" lon="1.36168">
        <ele>70</ele>
        <time>2019-01-11T20:59:12Z</time>
      </trkpt>
      <trkpt lat="47.58852" lon="1.3614">
        <ele>69</ele>
        <time>2019-01-11T20:59:13Z</time>
      </trkpt>
      <trkpt lat="47.58867" lon="1.36121">
        <ele>69</ele>
        <time>2019-01-11T20:59:14Z</time>
      </trkpt>
      <trkpt lat="47.58884" lon="1.36098">
        <ele>68</ele>
        <time>2019-01-11T20:59:15Z</time>
      </trkpt>
      <trkpt lat="47.58908" lon="1.36065">
        <ele>69</ele>
        <time>2019-01-11T20:59:16Z</time>
      </trkpt>
      <trkpt lat="47.58941" lon="1.36025">
        <ele>71</ele>
        <time>2019-01-11T20:59:17Z</time>
      </trkpt>
      <trkpt lat="47.5897" lon="1.35988">
        <ele>71</ele>
        <time>2019-01-11T20:59:18Z</time>
      </trkpt>
      <trkpt lat="47.58984" lon="1.35974">
        <ele>70</ele>
        <time>2019-01-11T20:59:19Z</time>
      </trkpt>
      <trkpt lat="47.58997" lon="1.35955">
        <ele>70</ele>
        <time>2019-01-11T20:59:20Z</time>
      </trkpt>
      <trkpt lat="47.59012" lon="1.35946">
        <ele>70</ele>
        <time>2019-01-11T20:59:21Z</time>
      </trkpt>
      <trkpt lat="47.59028" lon="1.35945">
        <ele>71</ele>
        <time>2019-01-11T20:59:22Z</time>
      </trkpt>
      <trkpt lat="47.5904" lon="1.35949">
        <ele>71</ele>
        <time>2019-01-11T20:59:23Z</time>
      </trkpt>
      <trkpt lat="47.59054" lon="1.35959">
        <ele>71</ele>
        <time>2019-01-11T20:59:24Z</time>
      </trkpt>
      <trkpt lat="47.59074" lon="1.35976">
        <ele>71</ele>
        <time>2019-01-11T20:59:25Z</time>
      </trkpt>
      <trkpt lat="47.59092" lon="1.35997">
        <ele>71</ele>
        <time>2019-01-11T20:59:26Z</time>
      </trkpt>
      <trkpt lat="47.59102" lon="1.36002">
        <ele>72</ele>
        <time>2019-01-11T20:59:27Z</time>
      </trkpt>
      <trkpt lat="47.5911" lon="1.35999">
        <ele>72</ele>
        <time>2019-01-11T20:59:28Z</time>
      </trkpt>
      <trkpt lat="47.5913" lon="1.35984">
        <ele>73</ele>
        <time>2019-01-11T20:59:29Z</time>
      </trkpt>
      <trkpt lat="47.59139" lon="1.35973">
        <ele>73</ele>
        <time>2019-01-11T20:59:30Z</time>
      </trkpt>
      <trkpt lat="47.59144" lon="1.35959">
        <ele>73</ele>
        <time>2019-01-11T20:59:31Z</time>
      </trkpt>
      <trkpt lat="47.59151" lon="1.35937">
        <ele>73</ele>
        <time>2019-01-11T20:59:32Z</time>
      </trkpt>
      <trkpt lat="47.59159" lon="1.35919">
        <ele>73</ele>
        <time>2019-01-11T20:59:33Z</time>
      </trkpt>
      <trkpt lat="47.59165" lon="1.35914">
        <ele>73</ele>
        <time>2019-01-11T20:59:34Z</time>
      </trkpt>
      <trkpt lat="47.59171" lon="1.35913">
        <ele>73</ele>
        <time>2019-01-11T20:59:35Z</time>
      </trkpt>
      <trkpt lat="47.59178" lon="1.35909">
        <ele>73</ele>
        <time>2019-01-11T20:59:36Z</time>
      </trkpt>
      <trkpt lat="47.59185" lon="1.35901">
        <ele>73</ele>
        <time>2019-01-11T20:59:37Z</time>
      </trkpt>
      <trkpt lat="47.59193" lon="1.35891">
        <ele>73</ele>
        <time>2019-01-11T20:59:38Z</time>
      </trkpt>
      <trkpt lat="47.59201" lon="1.35888">
        <ele>73</ele>
        <time>2019-01-11T20:59:39Z</time>
      </trkpt>
      <trkpt lat="47.592" lon="1.3587">
        <ele>73</ele>
        <time>2019-01-11T20:59:40Z</time>
      </trkpt>
      <trkpt lat="47.59202" lon="1.35851">
        <ele>73</ele>
        <time>2019-01-11T20:59:41Z</time>
      </trkpt>
      <trkpt lat="47.59195" lon="1.35847">
        <ele>73</ele>
        <time>2019-01-11T20:59:42Z</time>
      </trkpt>
      <trkpt lat="47.5919" lon="1.35841">
        <ele>73</ele>
        <time>2019-01-11T20:59:43Z</time>
      </trkpt>
      <trkpt lat="47.59186" lon="1.35835">
        <ele>72</ele>
        <time>2019-01-11T20:59:44Z</time>
      </trkpt>
      <trkpt lat="47.59178" lon="1.35827">
        <ele>73</ele>
        <time>2019-01-11T20:59:45Z</time>
      </trkpt>
      <trkpt lat="47.59171" lon="1.35826">
        <ele>73</ele>
        <time>2019-01-11T20:59:46Z</time>
      </trkpt>
      <trkpt lat="47.59165" lon="1.35827">
        <ele>72</ele>
        <time>2019-01-11T20:59:47Z</time>
      </trkpt>
      <trkpt lat="47.59154" lon="1.35817">
        <ele>73</ele>
        <time>2019-01-11T20:59:48Z</time>
      </trkpt>
      <trkpt lat="47.5912" lon="1.35777">
        <ele>75</ele>
        <time>2019-01-11T20:59:49Z</time>
      </trkpt>
      <trkpt lat="47.59099" lon="1.35739">
        <ele>75</ele>
        <time>2019-01-11T20:59:50Z</time>
      </trkpt>
      <trkpt lat="47.59078" lon="1.35685">
        <ele>74</ele>
        <time>2019-01-11T20:59:51Z</time>
      </trkpt>
      <trkpt lat="47.59078" lon="1.35671">
        <ele>74</ele>
        <time>2019-01-11T20:59:52Z</time>
      </trkpt>
      <trkpt lat="47.59076" lon="1.35658">
        <ele>74</ele>
        <time>2019-01-11T20:59:53Z</time>
      </trkpt>
      <trkpt lat="47.59053" lon="1.35584">
        <ele>72</ele>
        <time>2019-01-11T20:59:54Z</time>
      </trkpt>
      <trkpt lat="47.59047" lon="1.35549">
        <ele>72</ele>
        <time>2019-01-11T20:59:55Z</time>
      </trkpt>
      <trkpt lat="47.59053" lon="1.35532">
        <ele>72</ele>
        <time>2019-01-11T20:59:56Z</time>
      </trkpt>
      <trkpt lat="47.59063" lon="1.35519">
        <ele>73</ele>
        <time>2019-01-11T20:59:57Z</time>
      </trkpt>
      <trkpt lat="47.59072" lon="1.355">
        <ele>73</ele>
        <time>2019-01-11T20:59:58Z</time>
      </trkpt>
      <trkpt lat="47.59058" lon="1.3548">
        <ele>72</ele>
        <time>2019-01-11T20:59:59Z</time>
      </trkpt>
      <trkpt lat="47.59045" lon="1.35463">
        <ele>71</ele>
        <time>2019-01-11T21:00:00Z</time>
      </trkpt>
      <trkpt lat="47.59037" lon="1.35448">
        <ele>70</ele>
        <time>2019-01-11T21:00:01Z</time>
      </trkpt>
      <trkpt lat="47.59031" lon="1.35436">
        <ele>70</ele>
        <time>2019-01-11T21:00:02Z</time>
      </trkpt>
      <trkpt lat="47.59026" lon="1.35424">
        <ele>70</ele>
        <time>2019-01-11T21:00:03Z</time>
      </trkpt>
      <trkpt lat="47.59023" lon="1.35412">
        <ele>70</ele>
        <time>2019-01-11T21:00:04Z</time>
      </trkpt>
      <trkpt lat="47.59019" lon="1.35397">
        <ele>70</ele>
        <time>2019-01-11T21:00:05Z</time>
      </trkpt>
      <trkpt lat="47.59001" lon="1.35318">
        <ele>71</ele>
        <time>2019-01-11T21:00:06Z</time>
      </trkpt>
      <trkpt lat="47.58992" lon="1.35277">
        <ele>73</ele>
        <time>2019-01-11T21:00:07Z</time>
      </trkpt>
      <trkpt lat="47.5898" lon="1.35221">
        <ele>71</ele>
        <time>2019-01-11T21:00:08Z</time>
      </trkpt>
      <trkpt lat="47.58967" lon="1.35169">
        <ele>69</ele>
        <time>2019-01-11T21:00:09Z</time>
      </trkpt>
      <trkpt lat="47.58955" lon="1.35113">
        <ele>69</ele>
        <time>2019-01-11T21:00:10Z</time>
      </trkpt>
      <trkpt lat="47.58951" lon="1.351">
        <ele>69</ele>
        <time>2019-01-11T21:00:11Z</time>
      </trkpt>
      <trkpt lat="47.58946" lon="1.35086">
        <ele>69</ele>
        <time>2019-01-11T21:00:12Z</time>
      </trkpt>
      <trkpt lat="47.58935" lon="1.35055">
        <ele>70</ele>
        <time>2019-01-11T21:00:13Z</time>
      </trkpt>
      <trkpt lat="47.5893" lon="1.35036">
        <ele>70</ele>
        <time>2019-01-11T21:00:14Z</time>
      </trkpt>
      <trkpt lat="47.58922" lon="1.35007">
        <ele>71</ele>
        <time>2019-01-11T21:00:15Z</time>
      </trkpt>
      <trkpt lat="47.58919" lon="1.35">
        <ele>71</ele>
        <time>2019-01-11T21:00:16Z</time>
      </trkpt>
      <trkpt lat="47.58913" lon="1.34987">
        <ele>70</ele>
        <time>2019-01-11T21:00:17Z</time>
      </trkpt>
      <trkpt lat="47.58905" lon="1.34969">
        <ele>70</ele>
        <time>2019-01-11T21:00:18Z</time>
      </trkpt>
      <trkpt lat="47.58897" lon="1.34952">
        <ele>70</ele>
        <time>2019-01-11T21:00:19Z</time>
      </trkpt>
      <trkpt lat="47.58888" lon="1.34934">
        <ele>70</ele>
        <time>2019-01-11T21:00:20Z</time>
      </trkpt>
      <trkpt lat="47.58864" lon="1.34893">
        <ele>72</ele>
        <time>2019-01-11T21:00:21Z</time>
      </trkpt>
      <trkpt lat="47.58842" lon="1.34856">
        <ele>75</ele>
        <time>2019-01-11T21:00:22Z</time>
      </trkpt>
      <trkpt lat="47.58837" lon="1.34848">
        <ele>76</ele>
        <time>2019-01-11T21:00:23Z</time>
      </trkpt>
      <trkpt lat="47.58829" lon="1.34832">
        <ele>77</ele>
        <time>2019-01-11T21:00:24Z</time>
      </trkpt>
      <trkpt lat="47.58824" lon="1.3482">
        <ele>75</ele>
        <time>2019-01-11T21:00:25Z</time>
      </trkpt>
      <trkpt lat="47.58817" lon="1.34805">
        <ele>74</ele>
        <time>2019-01-11T21:00:26Z</time>
      </trkpt>
      <trkpt lat="47.58813" lon="1.34792">
        <ele>73</ele>
        <time>2019-01-11T21:00:27Z</time>
      </trkpt>
      <trkpt lat="47.58805" lon="1.34775">
        <ele>72</ele>
        <time>2019-01-11T21:00:28Z</time>
      </trkpt>
      <trkpt lat="47.58792" lon="1.34746">
        <ele>71</ele>
        <time>2019-01-11T21:00:29Z</time>
      </trkpt>
      <trkpt lat="47.58778" lon="1.34743">
        <ele>72</ele>
        <time>2019-01-11T21:00:30Z</time>
      </trkpt>
      <trkpt lat="47.58736" lon="1.34655">
        <ele>68</ele>
        <time>2019-01-11T21:00:31Z</time>
      </trkpt>
      <trkpt lat="47.58729" lon="1.34634">
        <ele>68</ele>
        <time>2019-01-11T21:00:32Z</time>
      </trkpt>
      <trkpt lat="47.5872" lon="1.34606">
        <ele>69</ele>
        <time>2019-01-11T21:00:33Z</time>
      </trkpt>
      <trkpt lat="47.5871" lon="1.3458">
        <ele>70</ele>
        <time>2019-01-11T21:00:34Z</time>
      </trkpt>
      <trkpt lat="47.58702" lon="1.34562">
        <ele>71</ele>
        <time>2019-01-11T21:00:35Z</time>
      </trkpt>
      <trkpt lat="47.58691" lon="1.34543">
        <ele>72</ele>
        <time>2019-01-11T21:00:36Z</time>
      </trkpt>
      <trkpt lat="47.58652" lon="1.34477">
        <ele>72</ele>
        <time>2019-01-11T21:00:37Z</time>
      </trkpt>
      <trkpt lat="47.58636" lon="1.34447">
        <ele>70</ele>
        <time>2019-01-11T21:00:38Z</time>
      </trkpt>
      <trkpt lat="47.58617" lon="1.34408">
        <ele>69</ele>
        <time>2019-01-11T21:00:39Z</time>
      </trkpt>
      <trkpt lat="47.58605" lon="1.34382">
        <ele>70</ele>
        <time>2019-01-11T21:00:40Z</time>
      </trkpt>
      <trkpt lat="47.58593" lon="1.34354">
        <ele>71</ele>
        <time>2019-01-11T21:00:41Z</time>
      </trkpt>
      <trkpt lat="47.58582" lon="1.34322">
        <ele>72</ele>
        <time>2019-01-11T21:00:42Z</time>
      </trkpt>
      <trkpt lat="47.58574" lon="1.34297">
        <ele>72</ele>
        <time>2019-01-11T21:00:43Z</time>
      </trkpt>
      <trkpt lat="47.58571" lon="1.34287">
        <ele>72</ele>
        <time>2019-01-11T21:00:44Z</time>
      </trkpt>
      <trkpt lat="47.58567" lon="1.3424">
        <ele>72</ele>
        <time>2019-01-11T21:00:45Z</time>
      </trkpt>
      <trkpt lat="47.58565" lon="1.34228">
        <ele>71</ele>
        <time>2019-01-11T21:00:46Z</time>
      </trkpt>
      <trkpt lat="47.58564" lon="1.34179">
        <ele>69</ele>
        <time>2019-01-11T21:00:47Z</time>
      </trkpt>
      <trkpt lat="47.58563" lon="1.34143">
        <ele>69</ele>
        <time>2019-01-11T21:00:48Z</time>
      </trkpt>
      <trkpt lat="47.5856" lon="1.34126">
        <ele>69</ele>
        <time>2019-01-11T21:00:49Z</time>
      </trkpt>
      <trkpt lat="47.58553" lon="1.34113">
        <ele>69</ele>
        <time>2019-01-11T21:00:50Z</time>
      </trkpt>
      <trkpt lat="47.58491" lon="1.34003">
        <ele>73</ele>
        <time>2019-01-11T21:00:51Z</time>
      </trkpt>
      <trkpt lat="47.58473" lon="1.33978">
        <ele>72</ele>
        <time>2019-01-11T21:00:52Z</time>
      </trkpt>
      <trkpt lat="47.58445" lon="1.33936">
        <ele>72</ele>
        <time>2019-01-11T21:00:53Z</time>
      </trkpt>
      <trkpt lat="47.58421" lon="1.33903">
        <ele>72</ele>
        <time>2019-01-11T21:00:54Z</time>
      </trkpt>
      <trkpt lat="47.58415" lon="1.33894">
        <ele>71</ele>
        <time>2019-01-11T21:00:55Z</time>
      </trkpt>
      <trkpt lat="47.58453" lon="1.3384">
        <ele>67</ele>
        <time>2019-01-11T21:00:56Z</time>
      </trkpt>
      <trkpt lat="47.58485" lon="1.33791">
        <ele>67</ele>
        <time>2019-01-11T21:00:57Z</time>
      </trkpt>
      <trkpt lat="47.58532" lon="1.3372">
        <ele>67</ele>
        <time>2019-01-11T21:00:58Z</time>
      </trkpt>
      <trkpt lat="47.58571" lon="1.33661">
        <ele>67</ele>
        <time>2019-01-11T21:00:59Z</time>
      </trkpt>
      <trkpt lat="47.58597" lon="1.33622">
        <ele>71</ele>
        <time>2019-01-11T21:01:00Z</time>
      </trkpt>
      <trkpt lat="47.58604" lon="1.33614">
        <ele>72</ele>
        <time>2019-01-11T21:01:01Z</time>
      </trkpt>
    </trkseg>
  </trk>
</gpx>